     2.11           OBSERVATION DATA    G (GPS)             RINEX VERSION / TYPE
teqc 2007Mar30 UNAVCO Archive Ops 20070409 20:36:31UTC      PGM / RUN BY / DATE
Solaris 5.9|UltraSparc IIIi|cc -xarch=v9 SC5.8|=+-|*Sparc   COMMENT
BIT 2 OF LLI FLAGS DATA COLLECTED UNDER A/S CONDITION       COMMENT
P262                                                        MARKER NAME
                                                            MARKER NUMBER
Michael Jackson UNAVCO/PBO                                  OBSERVER / AGENCY
4517248787 TRIMBLE NETRS 1.1-2                              REC # / TYPE / VERS
0220354831 TRM29659.00 SCIT                                 ANT # / TYPE
 -2673021.8450 -4261799.2259  3907637.9281                  APPROX POSITION XYZ
        0.0083        0.0000        0.0000                  ANTENNA: DELTA H/E/N
     1     1                                                WAVELENGTH FACT L1/2
     7    L1    L2    C1    P2    P1    S1    S2            # / TYPES OF OBSERV
     1.0000                                                 INTERVAL
RINEX file created by UNAVCO GPS Archive.                   COMMENT
For more information contact archive@unavco.org             COMMENT
Monument ID: 18806                                          COMMENT
UNAVCO 4-char name: P262                                    COMMENT
4-char name from Log or data file: P262                     COMMENT
Monument location: 38.025148 -122.096143 -8.5604            COMMENT
Visit ID: 83547                                             COMMENT
End of DB comments                                          COMMENT
SNR is mapped to RINEX snr flag value [0-9]                 COMMENT
L1 & L2: min(max(int(snr_dBHz/6), 0), 9)                    COMMENT
  2007     3    30     0     0    0.0000000     GPS         TIME OF FIRST OBS
                                                            END OF HEADER
 07  3 30  0  0  0.0000000  0 12G22G 5G23G14G 1G11G19G12G31G20G30G25
 -11299653.04447  -8786641.70645  23182823.1564   23182811.2974
        47.0004         32.0004
  -1174243.06346  -1072509.48842  25193114.9304   25193105.2384
        36.0004         15.5004
   -880736.63345   -624491.65643  25460544.7974   25460534.4024
        35.2504         19.7504
 -20640910.39448 -15973305.89146  21703914.1094   21703903.3634
        49.5004         39.0004
 -25139914.27148 -19573986.63147  20488341.3674   20488330.7974
        53.5004         47.0004
 -14116278.31248 -12793326.00846  21621823.4304   21621811.8634
        51.2504         41.2504
   -226389.20046  -1207817.26243  24574466.3134   24574456.4454
        39.0004         22.7504
      -647.02646       673.80643  25830965.6804   25830955.8134
        41.2504         22.7504
 -22813294.91748 -17768351.11147  21040162.8054   21040151.5904
        52.2504         45.5004
 -11997168.91047  -9323206.36144  23458330.5704   23458319.3554
        43.5004         28.7504
  -2820266.51045  -2167423.33743  24911448.8134   24911440.7624
        33.5004         18.5004
  -2928798.36046  -2267501.45543  24597424.1094   24597414.9454
        36.2504         19.5004
 07  3 30  0  0  1.0000000  0 12G22G 5G23G14G 1G11G19G12G31G20G30G25
 -11297285.41047  -8784796.80345  23183273.2274   23183261.8954
        46.7504         32.0004
  -1174453.02245  -1072673.07042  25193074.7974   25193065.5744
        35.7504         15.5004
   -883784.64046   -626866.71543  25459964.7814   25459953.8014
        36.5004         19.7504
 -20638653.63448 -15971547.37146  21704343.5864   21704332.4884
        49.2504         39.0004
 -25140004.71248 -19574057.10347  20488324.0314   20488313.8134
        53.5004         47.2504
 -14117093.65448 -12793961.34046  21621668.2424   21621656.5594
        51.2504         41.0004
   -223563.09346  -1205615.10943  24575004.0554   24574994.0124
        38.2504         23.7504
      -754.95846       589.70143  25830944.5634   25830935.1054
        40.7504         22.7504
 -22814777.97948 -17769506.74047  21039880.5554   21039869.0474
        52.0004         45.7504
 -12000022.11347  -9325429.63844  23457787.6174   23457776.4024
        43.2504         28.5004
  -2821681.68945  -2168526.07543  24911178.8914   24911171.6024
        32.2504         18.5004
  -2932530.89445  -2270409.92443  24596713.5314   24596704.7774
        35.5004         19.7504
 07  3 30  0  0  2.0000000  0 12G22G 5G23G14G 1G11G19G12G31G20G30G25
 -11294917.75847  -8782951.88345  23183724.3204   23183712.5784
        47.0004         32.0004
  -1174662.56646  -1072836.29442  25193035.6334   25193025.5314
        36.0004         14.7504
   -886832.70846   -629241.83143  25459385.5474   25459374.0394
        37.0004         19.5004
 -20636396.86548 -15969788.84946  21704773.1724   21704762.3094
        49.2504         39.0004
 -25140094.94348 -19574127.41847  20488307.0634   20488296.7274
        53.5004         47.2504
 -14117908.59348 -12794596.35846  21621513.2194   21621501.7704
        51.0004         41.2504
   -220737.19146  -1203413.10343  24575542.0554   24575531.6024
        39.2504         22.7504
      -862.55746       505.85243  25830924.1724   25830914.4224
        41.0004         22.7504
 -22816260.64448 -17770662.05847  21039598.1644   21039586.5984
        52.2504         45.7504
 -12002875.44247  -9327653.01944  23457244.1884   23457233.6174
        42.5004         28.7504
  -2823096.61545  -2169628.61643  24910909.5234   24910902.0594
        32.5004         18.2504
  -2936263.60745  -2273318.54043  24596002.1414   24595994.6174
        35.7504         19.5004
 07  3 30  0  0  3.0000000  0 12G22G 5G23G14G 1G11G19G12G31G20G30G25
 -11292549.77047  -8781106.69245  23184174.9694   23184162.8754
        47.0004         31.5004
  -1174871.45846  -1072999.10042  25192995.0474   25192986.0004
        36.0004         13.7504
   -889880.45546   -631616.69143  25458805.3594   25458793.5594
        37.5004         20.0004
 -20634139.72948 -15968030.04146  21705202.8754   21705191.5434
        49.0004         39.5004
 -25140184.59648 -19574197.27847  20488289.7974   20488279.3444
        53.2504         47.0004
 -14118722.75448 -12795230.76446  21621358.3054   21621346.5634
        50.5004         41.0004
   -217911.07046  -1201210.92343  24576080.3524   24576069.7814
        39.0004         22.7504
      -969.45246       422.55443  25830904.7034   25830894.2504
        41.2504         22.7504
 -22817742.54448 -17771816.78647  21039316.6484   21039304.7894
        52.0004         45.7504
 -12005728.56147  -9329876.22344  23456701.3524   23456691.0744
        42.5004         28.5004
  -2824510.94545  -2170730.70743  24910640.9694   24910633.0944
        32.7504         18.5004
  -2939996.10945  -2276226.97443  24595291.6094   24595284.1454
        35.5004         19.5004
 07  3 30  0  0  4.0000000  0 12G22G 5G23G14G 1G11G19G12G31G20G30G25
 -11290181.75447  -8779261.49145  23184625.8284   23184613.5594
        47.2504         31.7504
  -1175079.98245  -1073161.59842  25192954.6334   25192946.0554
        35.0004         14.7504
   -892928.32446   -633991.65143  25458224.5944   25458213.9064
        37.2504         20.5004
 -20631882.57348 -15966271.21946  21705632.3284   21705620.8204
        49.5004         39.5004
 -25140274.04248 -19574266.97147  20488272.8524   20488262.3984
        53.5004         47.2504
 -14119536.50948 -12795864.86146  21621203.6644   21621192.0394
        50.5004         41.0004
   -215085.12946  -1199008.86743  24576617.8754   24576606.8364
        38.7504         22.5004
     -1076.01546       339.51343  25830882.8444   25830873.7974
        41.2504         22.2504
 -22819224.04148 -17772971.20247  21039034.4384   21039022.8134
        52.0004         45.5004
 -12008581.82847  -9332099.55044  23456158.3984   23456147.7704
        43.0004         28.5004
  -2825924.98545  -2171832.56943  24910370.8364   24910363.6644
        32.2504         18.2504
  -2943728.71945  -2279135.48943  24594581.5084   24594573.6914
        35.7504         19.5004
 07  3 30  0  0  5.0000000  0 12G22G 5G23G14G 1G11G19G12G31G20G30G25
 -11287813.44447  -8777416.05145  23185076.5554   23185064.5204
        46.2504         32.0004
  -1175287.76645  -1073323.53042  25192915.1564   25192906.1684
        35.2504         14.7504
   -895975.91646   -636366.40343  25457644.9614   25457633.9804
        38.0004         21.2504
 -20629625.11048 -15964512.16246  21706062.0394   21706050.7074
        49.2504         39.5004
 -25140362.97448 -19574336.27047  20488256.0864   20488245.5164
        53.5004         47.2504
 -14120349.55048 -12796498.39846  21621048.9844   21621037.5944
        50.5004         41.0004
   -212259.05246  -1196806.76343  24577156.0314   24577144.5824
        39.7504         22.5004
     -1181.94746       256.96843  25830863.4924   25830853.8594
        41.0004         22.5004
 -22820704.81748 -17774125.05247  21038752.7344   21038741.5204
        52.0004         45.5004
 -12011434.92847  -9334322.75244  23455615.7114   23455604.7304
        43.2504         28.5004
  -2827338.53445  -2172934.00843  24910101.0704   24910094.7194
        31.2504         18.5004
  -2947461.19145  -2282043.90643  24593870.9774   24593863.2774
        35.0004         19.5004
 07  3 30  0  0  6.0000000  0 12G22G 5G23G14G 1G11G19G12G31G20G30G25
 -11285445.04347  -8775570.55245  23185527.1254   23185514.3874
        46.5004         31.7504
  -1175495.14345  -1073485.11842  25192876.5944   25192866.9024
        35.5004         14.7504
   -899023.56746   -638741.21043  25457065.0314   25457053.7584
        38.2504         21.5004
 -20627367.54948 -15962753.02346  21706491.9384   21706480.3714
        49.2504         39.5004
 -25140451.62148 -19574405.34647  20488239.0474   20488228.4774
        53.0004         47.2504
 -14121162.09948 -12797131.55646  21620894.1724   21620882.4304
        50.7504         41.2504
   -209433.07746  -1194604.68243  24577693.5784   24577682.4804
        39.5004         22.7504
     -1287.46146       174.74343  25830843.1724   25830834.1844
        41.2504         22.7504
 -22822185.12448 -17775278.53947  21038470.9694   21038459.5204
        52.2504         45.2504
 -12014288.09147  -9336545.98544  23455072.7504   23455062.0044
        43.2504         29.5004
  -2828751.70845  -2174035.13543  24909831.1954   24909825.7234
        31.2504         18.5004
  -2951193.71345  -2284952.36543  24593160.2344   24593153.1214
        34.5004         19.5004
 07  3 30  0  0  7.0000000  0 12G22G 5G23G14G 1G11G19G12G31G20G30G25
 -11283076.11447  -8773724.62945  23185977.7194   23185965.2734
        46.5004         31.7504
  -1175701.63245  -1073646.04642  25192837.1564   25192827.1724
        35.7504         14.7504
   -902070.72246   -641115.61243  25456485.6024   25456474.0354
        38.5004         21.2504
 -20625109.42948 -15960993.44746  21706920.8674   21706910.1804
        49.0004         39.5004
 -25140539.52848 -19574473.84947  20488222.2734   20488211.9384
        53.0004         47.5004
 -14121973.70248 -12797763.97346  21620739.7194   21620727.9774
        51.0004         41.2504
   -206606.77346  -1192402.36443  24578231.6254   24578220.2934
        39.7504         22.7504
     -1392.09546        93.21743  25830823.1954   25830814.0904
        41.5004         22.7504
 -22823664.46948 -17776431.27247  21038189.5634   21038178.1724
        52.2504         45.5004
 -12017140.85547  -9338768.91444  23454529.6804   23454518.6414
        43.5004         28.5004
  -2830164.10145  -2175135.68542  24909563.2734   24909556.7464
        32.5004         17.7504
  -2954925.83645  -2287860.51743  24592450.2664   24592443.0354
        35.0004         19.5004
 07  3 30  0  0  8.0000000  0 12G22G 5G23G14G 1G11G19G12G31G20G30G25
 -11280707.44247  -8771878.90945  23186428.6024   23186416.0984
        46.0004         32.0004
  -1175907.98045  -1073806.85842  25192797.7894   25192788.1564
        35.0004         14.7504
   -905118.24246   -643490.31543  25455906.3594   25455894.3834
        38.5004         21.0004
 -20622851.55748 -15959234.07146  21707350.4844   21707339.4454
        49.2504         39.5004
 -25140627.47848 -19574542.38047  20488205.4384   20488195.5124
        53.2504         47.2504
 -14122785.17548 -12798396.28946  21620585.2814   21620573.7154
        51.2504         41.0004
   -203780.90246  -1190200.37943  24578768.6954   24578757.9494
        38.7504         22.5004
     -1496.68546        11.71043  25830803.2734   25830794.3444
        41.2504         22.7504
 -22825143.69248 -17777583.90947  21037907.9774   21037896.2934
        52.2504         45.5004
 -12019994.00447  -9340992.15244  23453987.2114   23453975.8204
        44.0004         29.0004
  -2831576.52345  -2176236.24043  24909293.7424   24909288.3284
        32.2504         18.2504
  -2958658.36546  -2290768.97043  24591740.1024   24591732.8134
        36.0004         20.2504
 07  3 30  0  0  9.0000000  0 12G22G 5G23G14G 1G11G19G12G31G20G30G25
 -11278338.33447  -8770032.85245  23186879.1024   23186866.5394
        45.7504         32.2504
  -1176113.58745  -1073967.06342  25192759.5314   25192748.6094
        35.0004         14.7504
   -908165.41246   -645864.73543  25455326.5314   25455314.0864
        38.2504         21.2504
 -20620593.28948 -15957474.38146  21707780.3204   21707769.6334
        48.5004         39.2504
 -25140714.81248 -19574610.43247  20488189.0704   20488178.5594
        53.5004         47.0004
 -14123595.83048 -12799027.96746  21620431.1024   21620419.3594
        51.0004         41.0004
   -200954.76646  -1187998.20043  24579306.4304   24579295.6254
        38.5004         22.7504
     -1600.50746       -69.19043  25830783.0554   25830774.4184
        41.5004         22.5004
 -22826622.08548 -17778735.91047  21037626.9144   21037615.2894
        52.5004         45.5004
 -12022846.89747  -9343215.17744  23453444.4774   23453433.0274
        43.2504         28.2504
  -2832988.28345  -2177336.32343  24909025.2274   24909019.3444
        33.0004         18.5004
  -2962390.62545  -2293677.22243  24591029.6254   24591022.7464
        35.0004         20.7504
 07  3 30  0  0 10.0000000  0 12G22G 5G23G14G 1G11G19G12G31G20G30G25
 -11275969.11647  -8768186.71145  23187329.7194   23187317.3324
        45.7504         32.5004
  -1176318.60045  -1074126.80142  25192719.9144   25192709.5204
        34.0004         13.7504
   -911212.51246   -648239.11043  25454746.8524   25454734.2304
        37.5004         21.0004
 -20618334.83348 -15955714.54046  21708209.9924   21708198.9534
        48.5004         39.2504
 -25140801.78548 -19574678.20147  20488172.5944   20488162.2584
        53.0004         47.0004
 -14124405.92148 -12799659.20946  21620276.4144   21620265.1414
        51.0004         40.7504
   -198128.68946  -1185796.05143  24579844.3984   24579833.4774
        38.5004         23.0004
     -1703.84046      -149.70943  25830764.7734   25830755.1994
        41.7504         22.5004
 -22828099.93848 -17779887.47747  21037345.3284   21037333.9384
        52.5004         45.5004
 -12025699.79747  -9345438.22444  23452901.7584   23452890.4264
        43.0004         29.0004
  -2834399.63245  -2178436.12043  24908757.2114   24908750.6844
        34.2504         18.2504
  -2966122.91245  -2296585.49243  24590319.6024   24590312.6054
        35.5004         20.7504
 07  3 30  0  0 11.0000000  0 12G22G 5G23G14G 1G11G19G12G31G20G30G25
 -11273599.80547  -8766340.48945  23187780.7504   23187768.1294
        46.0004         31.7504
  -1176523.32945  -1074286.30242  25192681.0554   25192671.3054
        34.0004         13.7504
   -914259.65546   -650613.51043  25454165.8594   25454154.4694
        37.0004         20.5004
 -20616076.32748 -15953954.67046  21708640.2504   21708628.8014
        48.7504         39.5004
 -25140888.48348 -19574745.75747  20488156.2664   20488145.4614
        53.2504         47.2504
 -14125215.53648 -12800290.07746  21620122.5704   21620111.0044
        50.7504         40.5004
   -195302.72246  -1183593.98643  24580381.5634   24580371.6374
        39.0004         22.7504
     -1806.81147      -229.95343  25830744.7504   25830735.6454
        42.0004         22.5004
 -22829577.30048 -17781038.67047  21037064.2974   21037052.8484
        53.0004         45.7504
 -12028552.75347  -9347661.31244  23452358.3054   23452347.0314
        43.0004         28.7504
  -2835810.68545  -2179535.67643  24908489.2034   24908482.1484
        34.5004         18.5004
  -2969855.21645  -2299493.77143  24589609.2894   24589602.1764
        34.7504         20.7504
 07  3 30  0  0 12.0000000  0 12G22G 5G23G14G 1G11G19G12G31G20G30G25
 -11271230.06347  -8764493.93645  23188232.0634   23188219.1454
        45.7504         32.0004
  -1176727.15445  -1074445.11742  25192641.3914   25192631.7584
        33.2504         13.7504
   -917306.46146   -652987.62243  25453586.0634   25453574.3794
        37.2504         20.2504
 -20613817.38948 -15952194.46546  21709070.0634   21709058.8484
        48.5004         39.2504
 -25140974.54248 -19574812.81847  20488139.6414   20488129.1884
        53.0004         47.2504
 -14126024.32648 -12800920.30646  21619969.0234   21619957.3984
        49.7504         41.0004
   -192476.49946  -1181391.74543  24580920.3054   24580909.5594
        39.0004         22.5004
     -1908.99946      -309.57643  25830725.5474   25830715.8554
        41.7504         22.7504
 -22831053.83548 -17782189.21147  21036783.2194   21036772.0634
        53.2504         45.5004
 -12031405.41847  -9349884.16644  23451815.3204   23451804.6334
        42.7504         27.7504
  -2837221.02245  -2180634.62843  24908221.1884   24908213.9574
        34.7504         18.5004
  -2973587.22146  -2302401.82143  24588899.7814   24588891.7304
        36.2504         21.2504
 07  3 30  0  0 13.0000000  0 12G22G 5G23G14G 1G11G19G12G31G20G30G25
 -11268860.18047  -8762647.26945  23188683.4304   23188670.2774
        45.5004         32.0004
  -1176930.48645  -1074603.54442  25192602.9844   25192593.1764
        33.7504         13.7504
   -920353.20446   -655361.69843  25453006.4924   25452994.5744
        37.5004         20.2504
 -20611558.28748 -15950434.12646  21709500.4064   21709488.7234
        48.7504         39.5004
 -25141060.26548 -19574879.60847  20488123.4144   20488112.4924
        53.0004         47.0004
 -14126832.57248 -12801550.10046  21619814.9774   21619803.7624
        49.7504         41.0004
   -189650.32746  -1179189.54343  24581457.0704   24581447.0864
        38.2504         22.7504
     -2010.72246      -388.83944  25830706.6804   25830696.5204
        41.2504         24.0004
 -22832529.82048 -17783339.33447  21036502.5634   21036491.0554
        52.7504         45.5004
 -12034258.08247  -9352107.01544  23451272.2734   23451261.1764
        43.5004         26.5004
  -2838631.01045  -2181733.30943  24907953.6884   24907945.6374
        35.5004         18.2504
  -2977319.26846  -2305309.91243  24588189.9774   24588181.2814
        36.2504         21.0004
 07  3 30  0  0 14.0000000  0 12G22G 5G23G14G 1G11G19G12G31G20G30G25
 -11266490.25847  -8760800.57045  23189134.0164   23189121.0394
        45.7504         32.0004
  -1177133.51745  -1074761.79542  25192564.3444   25192554.8874
        33.5004         14.7504
   -923399.97046   -657735.80943  25452426.4614   25452414.7194
        37.2504         19.7504
 -20609299.16248 -15948673.76346  21709929.9384   21709918.1954
        48.0004         39.0004
 -25141145.74548 -19574946.22347  20488107.2894   20488096.6024
        53.0004         47.2504
 -14127640.39748 -12802179.58246  21619661.1414   21619649.5744
        49.7504         40.7504
   -186824.26046  -1176987.43443  24581995.7274   24581984.8634
        38.5004         22.7504
     -2112.08246      -467.79743  25830687.3364   25830677.1174
        41.7504         23.7504
 -22834005.39548 -17784489.12847  21036221.9144   21036210.4654
        52.5004         45.5004
 -12037110.87247  -9354329.96644  23450729.8284   23450718.6724
        43.5004         26.5004
  -2840040.76145  -2182831.77543  24907685.1254   24907677.0164
        35.7504         18.2504
  -2981051.39446  -2308218.06643  24587479.6804   24587471.2194
        36.5004         21.0004
 07  3 30  0  0 15.0000000  0 12G22G 5G23G14G 1G11G19G12G31G20G30G25
 -11264119.99347  -8758953.61645  23189585.1884   23189572.6254
        45.5004         31.7504
  -1177335.71945  -1074919.32942  25192525.7504   25192516.4694
        33.5004         13.7504
   -926446.48146   -660109.72343  25451846.9774   25451835.4104
        37.5004         19.5004
 -20607039.65248 -15946913.11046  21710359.9304   21710348.3054
        48.0004         39.0004
 -25141230.64648 -19575012.37447  20488091.2894   20488080.1914
        53.0004         47.2504
 -14128447.44248 -12802808.44146  21619508.0004   21619496.4344
        49.7504         41.0004
   -183998.05846  -1174785.21443  24582532.7424   24582522.6994
        38.5004         23.2504
     -2212.77546      -546.25744  25830667.7584   25830658.1844
        41.5004         24.5004
 -22835480.16748 -17785638.29947  21035941.1174   21035929.6684
        52.7504         45.5004
 -12039963.41847  -9356552.72044  23450186.3524   23450175.4884
        42.5004         27.5004
  -2841449.84146  -2183929.73542  24907417.4614   24907408.7074
        36.5004         17.2504
  -2984783.32346  -2311126.05843  24586769.8054   24586760.9924
        36.5004         21.5004
 07  3 30  0  0 16.0000000  0 12G22G 5G23G14G 1G11G19G12G31G20G30G25
 -11261749.66147  -8757106.60845  23190035.8754   23190023.5474
        45.2504         32.2504
  -1177537.50445  -1075076.57542  25192487.1954   25192478.4414
        32.2504         13.7504
   -929493.04346   -662483.68043  25451266.6644   25451255.8594
        37.0004         19.5004
 -20604780.09748 -15945152.41846  21710790.1804   21710778.6724
        48.0004         39.2504
 -25141315.29448 -19575078.33947  20488075.0394   20488064.7034
        52.5004         47.5004
 -14129254.03648 -12803436.95246  21619353.9614   21619342.6884
        50.0004         41.0004
   -181171.99946  -1172583.09643  24583070.7034   24583060.6024
        38.7504         23.7504
     -2313.04846      -624.38643  25830648.6954   25830639.4734
        41.5004         23.5004
 -22836954.51848 -17786787.14347  21035660.4924   21035649.2194
        52.7504         45.5004
 -12042816.07847  -9358775.58344  23449643.8914   23449632.7344
        43.0004         28.0004
  -2842858.66246  -2185027.51742  24907149.2194   24907140.5234
        37.2504         17.7504
  -2988515.30846  -2314034.09843  24586059.8674   24586050.8204
        36.0004         21.2504
 07  3 30  0  0 17.0000000  0 12G22G 5G23G14G 1G11G19G12G31G20G30G25
 -11259379.04447  -8755259.37045  23190486.7814   23190474.8634
        45.2504         31.5004
  -1177738.70345  -1075233.34242  25192449.6954   25192440.1804
        32.2504         13.7504
   -932539.38446   -664857.46343  25450687.0234   25450675.6334
        37.2504         19.5004
 -20602520.24948 -15943391.49346  21711219.7734   21711208.5004
        48.0004         39.5004
 -25141399.47048 -19575143.93347  20488058.8914   20488047.9694
        52.5004         47.5004
 -14130059.93948 -12804064.92646  21619200.5864   21619189.3714
        50.0004         41.0004
   -178345.82746  -1170380.88643  24583609.0004   24583598.6644
        39.0004         23.0004
     -2412.70546      -702.05143  25830629.3674   25830619.9694
        40.7504         23.2504
 -22838428.17148 -17787935.44847  21035380.0314   21035368.4064
        53.0004         45.7504
 -12045668.59147  -9360998.31144  23449101.4924   23449089.5744
        43.0004         28.7504
  -2844266.92446  -2186124.88542  24906881.2424   24906872.0784
        37.0004         17.2504
  -2992247.16046  -2316942.03643  24585349.6484   24585341.0124
        36.7504         21.5004
 07  3 30  0  0 18.0000000  0 12G22G 5G23G14G 1G11G19G12G31G20G30G25
 -11257008.44447  -8753412.14945  23190938.1954   23190925.9844
        45.0004         32.0004
  -1177939.51845  -1075389.81342  25192411.1484   25192401.8674
        32.0004         13.7504
   -935585.82446   -667231.32543  25450107.0314   25450095.8754
        36.7504         19.5004
 -20600260.38748 -15941630.56146  21711649.6094   21711638.3364
        48.2504         39.2504
 -25141483.42548 -19575209.34647  20488043.0394   20488032.2344
        52.7504         47.2504
 -14130865.44548 -12804692.60046  21619047.7424   21619036.6454
        50.7504         41.2504
   -175519.81346  -1168178.79843  24584146.7504   24584136.6484
        39.5004         22.7504
     -2512.07046      -779.48343  25830610.2424   25830601.2544
        41.0004         23.0004
 -22839901.43548 -17789083.44347  21035099.6174   21035088.1684
        53.0004         45.7504
 -12048521.23847  -9363221.14944  23448558.3674   23448546.6254
        43.2504         28.2504
  -2845674.91846  -2187222.03642  24906613.2664   24906604.4534
        36.5004         17.2504
  -2995979.16746  -2319850.09043  24584638.6804   24584630.6294
        36.0004         21.5004
 07  3 30  0  0 19.0000000  0 12G22G 5G23G14G 1G11G19G12G31G20G30G25
 -11254637.49547  -8751564.65545  23191389.5554   23191377.2854
        45.2504         32.0004
  -1178139.61745  -1075545.74542  25192372.8284   25192363.9574
        31.7504         14.7504
   -938631.98746   -669604.98043  25449527.7034   25449516.0204
        36.5004         19.0004
 -20598000.18948 -15939869.37246  21712079.7114   21712068.7894
        48.0004         39.2504
 -25141566.84148 -19575274.34947  20488027.1724   20488016.1914
        53.0004         47.0004
 -14131670.22048 -12805319.68946  21618894.5944   21618882.9104
        50.7504         41.0004
   -172693.69646  -1165976.62043  24584684.9304   24584674.4774
        39.5004         23.2504
     -2610.71646      -856.34943  25830591.6954   25830582.4734
        41.0004         22.7504
 -22841373.93748 -17790230.84847  21034819.6564   21034808.1484
        53.0004         45.7504
 -12051373.70147  -9365443.84844  23448015.4224   23448004.5594
        43.2504         27.5004
  -2847082.35846  -2188318.76542  24906344.4924   24906336.4414
        36.0004         16.7504
  -2999711.00146  -2322758.01943  24583928.7974   24583920.3364
        36.5004         21.0004
 07  3 30  0  0 20.0000000  0 12G22G 5G23G14G 1G11G19G12G31G20G30G25
 -11252266.29247  -8749716.96145  23191840.5084   23191828.2974
        44.7504         32.0004
  -1178339.08945  -1075701.20842  25192334.4224   25192326.1374
        32.0004         13.7504
   -941677.98346   -671978.49843  25448947.6024   25448936.6804
        36.5004         19.0004
 -20595739.70448 -15938107.95546  21712509.9454   21712498.9064
        48.0004         39.2504
 -25141649.77048 -19575338.96847  20488011.3984   20488000.7704
        53.0004         47.2504
 -14132474.27848 -12805946.23446  21618741.7894   21618730.2814
        50.5004         41.0004
   -169867.45446  -1163774.34443  24585222.9694   24585211.9884
        40.0004         23.0004
     -2708.78346      -932.78443  25830572.4064   25830563.8284
        40.7504         22.7504
 -22842845.76248 -17791377.72547  21034539.3984   21034528.0664
        52.7504         45.5004
 -12054226.01047  -9367666.43644  23447473.1724   23447461.6054
        43.2504         28.0004
  -2848489.25246  -2189415.05342  24906077.1174   24906068.4804
        37.2504         16.7504
  -3003442.67846  -2325665.81043  24583218.4924   24583210.2664
        36.0004         20.7504
 07  3 30  0  0 21.0000000  0 12G22G 5G23G14G 1G11G19G12G31G20G30G25
 -11249895.07647  -8747869.26445  23192291.8054   23192279.5354
        45.0004         32.0004
  -1178538.19545  -1075856.33542  25192296.6484   25192288.3054
        31.2504         13.7504
   -944724.06246   -674352.08243  25448368.5234   25448356.9574
        36.2504         18.2504
 -20593479.23148 -15936346.54746  21712940.1954   21712928.8054
        48.0004         39.5004
 -25141732.50948 -19575403.43847  20487995.6954   20487984.4224
        52.2504         47.2504
 -14133277.98248 -12806572.50146  21618588.4144   21618577.4924
        50.7504         41.0004
   -167041.41046  -1161572.22943  24585760.6414   24585749.4264
        41.0004         22.5004
     -2806.51346     -1008.93843  25830553.7034   25830545.0664
        40.5004         22.7504
 -22844317.20748 -17792524.29847  21034259.3834   21034247.8754
        53.0004         45.5004
 -12057078.49547  -9369889.14944  23446929.8984   23446918.4494
        42.2504         28.2504
  -2849895.92446  -2190511.15242  24905809.2734   24905800.9884
        37.0004         16.7504
  -3007174.46045  -2328573.69643  24582508.3134   24582500.1454
        35.5004         21.2504
 07  3 30  0  0 22.0000000  0 12G22G 5G23G14G 1G11G19G12G31G20G30G25
 -11247523.62447  -8746021.38045  23192743.3754   23192731.2814
        45.5004         32.5004
  -1178736.68545  -1076010.97942  25192259.2274   25192250.2384
        32.2504         13.7504
   -947769.99846   -676725.56343  25447789.0234   25447776.8714
        36.2504         18.2504
 -20591218.49048 -15934584.93746  21713370.4774   21713359.1454
        48.2504         39.2504
 -25141814.79948 -19575467.55947  20487979.8284   20487969.4344
        52.2504         47.5004
 -14134081.02248 -12807198.24746  21618435.8134   21618424.1884
        50.7504         41.0004
   -164215.31046  -1159370.07943  24586298.0234   24586287.3954
        39.7504         22.5004
     -2903.66446     -1084.68443  25830536.5944   25830526.7854
        40.7504         22.5004
 -22845787.99048 -17793670.36847  21033979.6564   21033968.0314
        52.5004         45.5004
 -12059930.87647  -9372111.78244  23446387.2344   23446375.8444
        42.0004         28.5004
  -2851302.09046  -2191606.83242  24905541.8754   24905533.1804
        38.0004         16.7504
  -3010906.18845  -2331481.53243  24581797.9534   24581789.9614
        35.7504         20.7504
 07  3 30  0  0 23.0000000  0 12G22G 5G23G14G 1G11G19G12G31G20G30G25
 -11245151.94447  -8744173.31945  23193194.2584   23193182.5164
        45.2504         32.5004
  -1178934.59145  -1076165.21542  25192222.7194   25192212.6174
        32.0004         13.7504
   -950815.76046   -679098.89343  25447209.6334   25447197.7734
        36.0004         18.2504
 -20588957.53247 -15932823.14946  21713800.6174   21713789.5204
        47.5004         39.2504
 -25141896.65948 -19575531.34647  20487964.2734   20487953.7034
        52.7504         47.5004
 -14134883.43248 -12807823.49946  21618283.3834   21618271.4654
        50.2504         41.0004
   -161389.16046  -1157167.89743  24586836.1024   24586825.1214
        40.2504         22.5004
     -3000.29246     -1159.93243  25830517.1724   25830508.4184
        41.2504         23.0004
 -22847258.14648 -17794815.94847  21033699.8364   21033688.3284
        52.5004         45.7504
 -12062783.18546  -9374334.35544  23445844.0784   23445833.0984
        41.5004         28.0004
  -2852707.83646  -2192702.24742  24905274.7114   24905265.4304
        37.2504         17.7504
  -3014637.86145  -2334389.31543  24581088.2894   24581079.5354
        35.5004         20.7504
 07  3 30  0  0 24.0000000  0 12G22G 5G23G14G 1G11G19G12G31G20G30G25
 -11242780.09547  -8742325.13445  23193645.7424   23193634.2934
        44.7504         32.2504
  -1179131.99645  -1076319.02242  25192184.6954   25192174.8284
        31.7504         13.7504
   -953861.42345   -681472.13843  25446629.4144   25446617.7304
        35.5004         18.5004
 -20586696.39847 -15931061.22946  21714231.1024   21714219.6524
        47.7504         39.2504
 -25141978.15048 -19575594.84847  20487948.6884   20487938.1174
        53.0004         47.2504
 -14135685.27948 -12808448.31846  21618130.5004   21618119.1094
        50.5004         41.0004
   -158563.03046  -1154965.72343  24587373.7814   24587362.7424
        39.2504         22.5004
     -3096.44346     -1234.84943  25830499.7034   25830489.7774
        41.0004         22.5004
 -22848727.74348 -17795961.08047  21033420.0084   21033408.7344
        52.5004         45.5004
 -12065635.43447  -9376556.88544  23445301.3284   23445290.0554
        42.2504         28.7504
  -2854113.11746  -2193797.26243  24905006.9924   24904998.1804
        36.7504         18.2504
  -3018369.48545  -2337297.06843  24580378.2194   24580369.5234
        35.7504         20.7504
 07  3 30  0  0 25.0000000  0 12G22G 5G23G14G 1G11G19G12G31G20G30G25
 -11240407.97747  -8740476.73345  23194096.9774   23194085.5274
        45.0004         32.0004
  -1179328.64045  -1076472.26742  25192146.7034   25192137.7734
        31.7504         14.7504
   -956906.88045   -683845.22343  25446049.0944   25446038.1724
        35.2504         19.0004
 -20584434.96747 -15929299.07146  21714661.2814   21714649.8324
        47.5004         39.2504
 -25142059.14548 -19575657.95647  20487933.5164   20487922.3594
        53.0004         47.2504
 -14136486.41648 -12809072.57446  21617978.2894   21617966.9574
        50.0004         41.0004
   -155736.83046  -1152763.49143  24587911.0084   24587900.7304
        38.7504         22.5004
     -3191.92746     -1309.23843  25830481.4844   25830472.2624
        40.7504         22.5004
 -22850196.64248 -17797105.67247  21033140.5944   21033128.9104
        52.5004         45.5004
 -12068487.54847  -9378779.30644  23444758.6884   23444747.8834
        42.5004         28.5004
  -2855517.89846  -2194891.88243  24904739.2274   24904730.6484
        36.5004         18.2504
  -3022100.92745  -2340204.68543  24579668.0704   24579659.7274
        35.7504         21.0004
 07  3 30  0  0 26.0000000  0 12G22G 5G23G14G 1G11G19G12G31G20G30G25
 -11238035.82147  -8738628.29845  23194548.4384   23194536.9304
        44.7504         32.2504
  -1179524.99745  -1076625.29642  25192109.5864   25192099.8954
        32.2504         14.7504
   -959952.44945   -686218.38243  25445470.6484   25445458.6134
        35.0004         18.5004
 -20582173.48847 -15927536.88246  21715091.4844   21715080.4454
        47.7504         39.0004
 -25142139.88148 -19575720.86547  20487918.0864   20487906.8714
        53.2504         47.2504
 -14137287.13248 -12809696.51446  21617825.9924   21617814.0744
        50.7504         41.0004
   -152910.73746  -1150561.33643  24588449.1954   24588438.0984
        39.5004         22.5004
     -3287.05346     -1383.36943  25830463.3594   25830453.5514
        41.2504         22.5004
 -22851665.10048 -17798249.92847  21032861.1804   21032849.8484
        52.5004         45.5004
 -12071339.76947  -9381001.82044  23444216.1414   23444205.1604
        42.5004         28.5004
  -2856922.38446  -2195986.29443  24904473.0784   24904463.3284
        36.7504         18.2504
  -3025832.48846  -2343112.38343  24578957.4534   24578949.1094
        36.2504         21.5004
 07  3 30  0  0 27.0000000  0 12G22G 5G23G14G 1G11G19G12G31G20G30G25
 -11235663.38347  -8736779.65445  23194999.5554   23194988.2814
        45.0004         32.5004
  -1179720.68845  -1076777.78242  25192072.0634   25192062.9574
        32.7504         14.7504
   -962997.83145   -688591.40443  25444890.4384   25444879.3404
        34.2504         18.5004
 -20579911.72548 -15925774.46546  21715522.0554   21715510.7234
        48.0004         39.2504
 -25142220.15048 -19575783.41347  20487902.7814   20487892.0944
        53.0004         47.2504
 -14138087.16348 -12810319.91446  21617673.6804   21617661.9964
        50.7504         41.0004
   -150084.56746  -1148359.10743  24588987.3754   24588976.1604
        39.2504         22.2504
     -3381.59946     -1457.04243  25830445.3674   25830435.6174
        40.0004         22.7504
 -22853132.87748 -17799393.65347  21032581.9144   21032570.6414
        53.0004         45.5004
 -12074191.84347  -9383224.21644  23443673.1024   23443662.1214
        42.0004         28.0004
  -2858326.32546  -2197080.28443  24904205.9064   24904195.9804
        36.7504         18.2504
  -3029563.93746  -2346020.00243  24578248.0234   24578239.4454
        36.7504         21.5004
 07  3 30  0  0 28.0000000  0 12G22G 5G23G14G 1G11G19G12G31G20G30G25
 -11233290.87947  -8734930.95145  23195451.4454   23195439.9384
        45.2504         33.0004
  -1179915.89945  -1076929.86542  25192036.0234   25192025.7464
        32.5004         14.7504
   -966043.21945   -690964.42443  25444310.0944   25444299.8754
        34.7504         19.0004
 -20577649.92047 -15924012.02346  21715952.5864   21715941.0204
        47.5004         39.2504
 -25142300.17848 -19575845.78047  20487887.3754   20487876.9224
        53.2504         47.2504
 -14138886.74548 -12810942.96546  21617521.4064   21617510.0164
        50.5004         41.0004
   -147258.50546  -1146156.97443  24589524.9304   24589513.5394
        39.5004         22.5004
     -3475.71746     -1530.39043  25830427.1024   25830417.5864
        40.5004         23.0004
 -22854600.20648 -17800537.02447  21032302.6254   21032291.1174
        53.0004         45.5004
 -12077044.05547  -9385446.72944  23443130.5704   23443119.1214
        42.2504         28.0004
  -2859729.96646  -2198174.01543  24903938.5944   24903928.7274
        37.2504         18.5004
  -3033295.39946  -2348927.62843  24577537.3364   24577529.4024
        36.2504         21.0004
 07  3 30  0  0 29.0000000  0 12G22G 5G23G14G 1G11G19G12G31G20G30G25
 -11230917.89547  -8733081.87845  23195903.0474   23195891.4804
        45.2504         32.5004
  -1180110.41245  -1077081.44842  25191998.5944   25191988.7274
        32.0004         14.7504
   -969088.20245   -693337.11343  25443730.7194   25443720.5594
        34.5004         18.5004
 -20575387.60548 -15922249.17646  21716383.0634   21716371.9064
        48.0004         39.2504
 -25142379.49248 -19575907.57847  20487872.2974   20487862.1374
        53.5004         47.2504
 -14139685.42648 -12811565.31446  21617369.4694   21617357.9024
        50.7504         41.0004
   -144432.14246  -1143954.61943  24590062.0234   24590051.6294
        39.2504         22.2504
     -3569.02746     -1603.11044  25830409.8914   25830399.7304
        41.0004         24.0004
 -22856066.62648 -17801679.68647  21032023.8594   21032012.1764
        53.2504         45.5004
 -12079895.87347  -9387668.91444  23442587.9384   23442576.6054
        43.0004         28.0004
  -2861132.88246  -2199267.22043  24903671.6414   24903661.5394
        36.7504         18.5004
  -3037026.54246  -2351835.00843  24576827.7664   24576819.0124
        36.5004         20.7504
 07  3 30  0  0 30.0000000  0 12G22G 5G23G14G 1G11G19G12G31G20G30G25
 -11228545.16747  -8731233.00245  23196354.8754   23196342.7234
        45.7504         32.2504
  -1180304.64245  -1077232.78842  25191961.6564   25191951.4964
        32.2504         14.7504
   -972133.40845   -695709.98543  25443151.6724   25443141.1024
        34.5004         18.5004
 -20573125.52148 -15920486.51646  21716813.3524   21716802.2544
        48.5004         39.0004
 -25142458.83048 -19575969.40347  20487857.3754   20487846.6884
        53.2504         47.0004
 -14140483.93348 -12812187.52646  21617217.5554   21617206.1054
        51.0004         41.0004
   -141606.21546  -1141752.61143  24590599.8444   24590588.9224
        39.2504         22.2504
     -3662.25246     -1675.75144  25830392.5634   25830382.6954
        41.0004         25.0004
 -22857532.87548 -17802822.21747  21031744.2034   21031732.6954
        52.7504         45.5004
 -12082748.07147  -9389891.40344  23442045.2034   23442034.0474
        42.5004         28.0004
  -2862535.83046  -2200360.44343  24903404.9534   24903394.3834
        36.2504         18.5004
  -3040758.06946  -2354742.70443  24576118.0864   24576109.2154
        37.0004         20.7504
 07  3 30  0  0 31.0000000  0 12G22G 5G23G14G 1G11G19G12G31G20G30G25
 -11226171.80347  -8729383.63245  23196806.3914   23196794.4734
        46.0004         32.5004
  -1180497.96945  -1077383.45742  25191925.3674   25191915.2074
        32.5004         14.7504
   -975178.24445   -698082.58443  25442572.8524   25442561.2274
        35.0004         18.5004
 -20570862.82948 -15918723.38146  21717244.0864   21717232.8134
        49.0004         39.2504
 -25142537.36148 -19576030.59247  20487842.3594   20487831.6724
        53.5004         47.0004
 -14141281.43748 -12812808.95746  21617065.7274   21617053.8674
        50.7504         40.7504
   -138779.87846  -1139550.28043  24591138.0944   24591126.8204
        40.0004         22.0004
     -3754.53346     -1747.65144  25830374.5234   25830364.8324
        41.5004         25.0004
 -22858998.10948 -17803963.95747  21031465.9774   21031454.3524
        52.5004         45.5004
 -12085599.78647  -9392113.52644  23441502.7424   23441491.5864
        42.2504         27.7504
  -2863937.89346  -2201452.92943  24903138.0944   24903127.7584
        36.7504         18.2504
  -3044489.13546  -2357650.03143  24575407.7814   24575399.6724
        37.5004         21.0004
 07  3 30  0  0 32.0000000  0 12G22G 5G23G14G 1G11G19G12G31G20G30G25
 -11223798.49447  -8727534.30145  23197258.0704   23197246.5634
        46.0004         32.0004
  -1180690.95445  -1077533.81442  25191888.0394   25191878.1724
        32.5004         14.7504
   -978223.10545   -700455.19543  25441993.5394   25441982.0904
        35.2504         18.5004
 -20568600.16548 -15916960.26446  21717674.9064   21717663.5744
        49.0004         39.0004
 -25142615.73748 -19576091.66347  20487827.4844   20487816.7974
        53.2504         47.2504
 -14142078.56648 -12813430.09546  21616913.9064   21616902.7504
        50.7504         40.7504
   -135953.73346  -1137348.10143  24591676.1724   24591664.4304
        40.5004         22.5004
     -3846.54547     -1819.33244  25830357.4454   25830347.6374
        42.2504         25.2504
 -22860462.98548 -17805105.42047  21031187.0234   21031175.3404
        52.2504         45.5004
 -12088451.70547  -9394335.80144  23440959.9924   23440949.0124
        42.2504         27.7504
  -2865339.73345  -2202545.27042  24902870.8364   24902861.0864
        35.7504         17.7504
  -3048220.35546  -2360557.45843  24574697.8754   24574689.6484
        37.5004         21.5004
 07  3 30  0  0 33.0000000  0 12G22G 5G23G14G 1G11G19G12G31G20G30G25
 -11221425.04547  -8725684.86345  23197710.0084   23197698.1484
        46.5004         32.0004
  -1180883.43145  -1077683.77442  25191850.7894   25191841.5084
        33.2504         14.7504
   -981267.94545   -702827.79743  25441413.1094   25441403.0664
        34.7504         18.5004
 -20566337.36848 -15915197.04546  21718105.6724   21718093.8714
        48.5004         39.0004
 -25142693.74548 -19576152.45247  20487812.6024   20487801.6214
        53.2504         47.2504
 -14142875.16048 -12814050.82146  21616762.2504   21616751.2114
        50.2504         40.5004
   -133127.64346  -1135145.96443  24592215.0004   24592202.5554
        41.0004         22.5004
     -3938.04247     -1890.61244  25830340.4844   25830330.3244
        42.5004         24.5004
 -22861927.32548 -17806246.46247  21030908.5164   21030896.7734
        52.2504         45.5004
 -12091303.62047  -9396558.07144  23440417.2504   23440406.3874
        43.0004         27.5004
  -2866741.19845  -2203637.34042  24902605.0784   24902594.2154
        35.0004         17.7504
  -3051951.58746  -2363464.89243  24573988.6564   24573979.5514
        37.5004         22.0004
 07  3 30  0  0 34.0000000  0 12G22G 5G23G14G 1G11G19G12G31G20G30G25
 -11219051.33847  -8723835.22545  23198161.8204   23198149.5514
        47.0004         32.5004
  -1181075.28445  -1077833.23142  25191815.2504   25191805.2074
        32.5004         14.7504
   -984312.62345   -705200.26243  25440833.2194   25440823.2344
        34.2504         19.0004
 -20564074.27948 -15913433.60246  21718535.9844   21718524.5944
        48.7504         39.0004
 -25142771.29348 -19576212.87747  20487797.8754   20487787.5984
        53.0004         47.2504
 -14143671.08448 -12814671.02046  21616610.6884   21616599.2974
        50.2504         40.5004
   -130301.49146  -1132943.76443  24592752.2734   24592740.8244
        41.0004         22.5004
     -4028.96147     -1961.44844  25830322.3054   25830312.8484
        42.0004         24.7504
 -22863390.98748 -17807386.97847  21030629.9844   21030618.1844
        52.2504         45.5004
 -12094155.39947  -9398780.23544  23439873.9844   23439863.5314
        43.0004         28.5004
  -2868142.09445  -2204728.96142  24902338.1414   24902327.0434
        35.0004         17.7504
  -3055682.66746  -2366372.21643  24573277.9844   24573269.8164
        36.5004         22.0004
 07  3 30  0  0 35.0000000  0 12G22G 5G23G14G 1G11G19G12G31G20G30G25
 -11216677.48647  -8721985.46945  23198613.9064   23198601.5784
        47.5004         32.2504
  -1181266.62345  -1077982.35842  25191777.7734   25191769.1374
        32.0004         14.7504
   -987357.23645   -707572.69043  25440254.4694   25440243.8404
        34.2504         19.2504
 -20561811.06748 -15911670.05746  21718966.7974   21718955.5824
        48.5004         39.0004
 -25142848.50748 -19576273.04747  20487783.0944   20487772.6414
        52.2504         47.5004
 -14144466.46248 -12815290.79546  21616459.5164   21616448.4184
        50.0004         40.5004
   -127475.38946  -1130741.60143  24593290.5864   24593278.7854
        41.0004         22.5004
     -4119.41747     -2031.92644  25830304.6334   25830295.0594
        42.0004         24.5004
 -22864854.10748 -17808527.07047  21030351.5554   21030339.9304
        52.5004         45.5004
 -12097007.20047  -9401002.42144  23439331.5394   23439320.2664
        43.5004         28.7504
  -2869542.71145  -2205820.33043  24902072.5634   24902060.7624
        34.7504         18.2504
  -3059413.75746  -2369279.55143  24572568.1954   24572559.7934
        36.5004         22.0004
 07  3 30  0  0 36.0000000  0 12G22G 5G23G14G 1G11G19G12G31G20G30G25
 -11214303.21847  -8720135.38845  23199065.4614   23199053.2504
        47.5004         32.0004
  -1181457.19945  -1078130.85642  25191742.8444   25191732.6254
        33.5004         14.7504
   -990401.48545   -709944.83243  25439675.0634   25439665.0204
        34.5004         19.2504
 -20559547.41648 -15909906.17946  21719397.1334   21719386.0354
        48.0004         39.2504
 -25142925.08348 -19576332.71347  20487768.5234   20487758.0124
        51.7504         47.2504
 -14145261.00748 -12815909.92646  21616308.3364   21616296.9454
        49.7504         40.7504
   -124649.04646  -1128539.24343  24593828.1954   24593816.3364
        40.5004         22.7504
     -4209.11547     -2101.83444  25830289.3284   25830278.2304
        42.7504         24.7504
 -22866316.39948 -17809666.52147  21030073.0474   21030061.5394
        52.2504         45.5004
 -12099858.70247  -9403224.36844  23438789.2974   23438778.1414
        43.7504         28.7504
  -2870942.58545  -2206911.17643  24901805.8134   24901794.3054
        35.2504         18.5004
  -3063144.63046  -2372186.72943  24571858.3984   24571849.8204
        36.7504         22.2504
 07  3 30  0  0 37.0000000  0 12G22G 5G23G14G 1G11G19G12G31G20G30G25
 -11211929.03047  -8718285.37145  23199517.1884   23199505.0354
        47.5004         31.5004
  -1181647.49245  -1078279.14842  25191705.5784   25191696.7074
        33.7504         14.7504
   -993445.97345   -712317.13743  25439095.9694   25439086.1604
        34.5004         20.0004
 -20557283.85748 -15908142.36646  21719827.9304   21719816.9494
        48.5004         38.7504
 -25143001.52048 -19576392.27447  20487753.8134   20487743.5944
        51.7504         47.5004
 -14146055.23848 -12816528.80046  21616157.0784   21616145.9224
        50.0004         40.5004
   -121822.96046  -1126337.10143  24594365.5784   24594353.7774
        40.7504         22.2504
     -4298.56847     -2171.54444  25830271.7194   25830261.7344
        42.7504         25.7504
 -22867778.35248 -17810805.70447  21029794.7584   21029783.4264
        52.5004         45.5004
 -12102710.45747  -9405446.51644  23438246.1884   23438235.0904
        43.2504         29.0004
  -2872342.34645  -2208001.90643  24901539.2114   24901527.8204
        35.5004         18.5004
  -3066875.68246  -2375094.05243  24571148.5864   24571139.4804
        36.7504         22.0004
 07  3 30  0  0 38.0000000  0 12G22G 5G23G14G 1G11G19G12G31G20G30G25
 -11209554.55247  -8716435.13345  23199969.0314   23199956.6454
        47.5004         31.5004
  -1181837.08945  -1078426.91342  25191669.2664   25191660.5124
        33.5004         14.7504
   -996490.11445   -714689.18043  25438517.2664   25438506.4614
        34.2504         20.2504
 -20555019.95748 -15906378.29146  21720259.0314   21720247.6414
        48.2504         38.7504
 -25143077.47748 -19576451.46247  20487739.5004   20487728.6374
        52.0004         47.7504
 -14146848.72948 -12817147.10546  21616006.0164   21615994.6844
        49.7504         40.7504
   -118996.77546  -1124134.87043  24594903.1564   24594891.9414
        40.5004         22.5004
     -4387.38747     -2240.77144  25830253.7894   25830244.7424
        42.2504         24.7504
 -22869239.62548 -17811944.35647  21029516.9384   21029505.1374
        52.5004         45.5004
 -12105562.03947  -9407668.52844  23437704.0234   23437692.7504
        43.5004         28.5004
  -2873741.49545  -2209092.12443  24901273.8834   24901261.2034
        35.5004         19.0004
  -3070606.58146  -2378001.23343  24570438.8054   24570429.6414
        37.0004         21.5004
 07  3 30  0  0 39.0000000  0 12G22G 5G23G14G 1G11G19G12G31G20G30G25
 -11207179.99847  -8714584.82945  23200420.7424   23200408.8834
        47.0004         32.2504
  -1182026.25845  -1078574.28642  25191632.8364   25191624.4344
        34.5004         14.7504
   -999534.29945   -717061.26443  25437937.4064   25437927.3054
        33.7504         20.2504
 -20552756.00148 -15904614.17546  21720689.6094   21720678.2774
        48.7504         39.0004
 -25143153.15048 -19576510.42847  20487725.0084   20487714.3794
        52.0004         47.5004
 -14147641.79348 -12817765.07546  21615854.9304   21615843.8914
        50.2504         40.7504
   -116170.66646  -1121932.71543  24595441.3594   24595430.0274
        40.7504         23.5004
     -4475.81047     -2309.66743  25830237.4454   25830227.6374
        42.0004         23.0004
 -22870700.41248 -17813082.62447  21029239.0394   21029227.2384
        52.0004         45.7504
 -12108413.66647  -9409890.57344  23437160.7194   23437149.8554
        43.0004         28.0004
  -2875140.33246  -2210182.09543  24901007.5474   24900995.2774
        36.0004         18.5004
  -3074337.51246  -2380908.44243  24569728.1564   24569719.6374
        37.0004         21.2504
 07  3 30  0  0 40.0000000  0 12G22G 5G23G14G 1G11G19G12G31G20G30G25
 -11204805.21747  -8712734.34945  23200872.1254   23200860.5004
        47.0004         32.2504
  -1182214.83345  -1078721.24442  25191598.1484   25191588.2814
        33.5004         15.5004
  -1002578.43045   -719433.30443  25437358.2664   25437348.0474
        35.0004         20.5004
 -20550491.80248 -15902849.86346  21721120.5634   21721109.0554
        48.5004         39.0004
 -25143228.38948 -19576569.05847  20487710.7894   20487700.0434
        52.0004         47.5004
 -14148434.18948 -12818382.52946  21615704.9224   21615693.0634
        50.0004         41.0004
   -113344.54546  -1119730.54743  24595978.9064   24595967.6914
        41.0004         22.0004
     -4563.64747     -2378.12444  25830221.0394   25830210.8204
        42.0004         24.7504
 -22872160.56548 -17814220.40947  21028961.2114   21028949.5864
        52.0004         45.7504
 -12111265.25347  -9412112.58644  23436618.6334   23436607.5944
        43.0004         29.2504
  -2876538.77146  -2211271.79543  24900741.5784   24900728.8404
        36.0004         18.2504
  -3078068.37346  -2383815.61143  24569018.1804   24569010.1294
        36.7504         21.0004
 07  3 30  0  0 41.0000000  0 12G22G 5G23G14G 1G11G19G12G31G20G30G25
 -11202430.23047  -8710883.70545  23201324.0394   23201312.3554
        46.5004         32.7504
  -1182402.83145  -1078867.71342  25191561.8054   25191552.8754
        34.5004         16.2504
  -1005622.29945   -721805.14143  25436780.5864   25436768.9024
        35.2504         21.0004
 -20548227.36648 -15901085.36346  21721551.6024   21721540.0944
        48.2504         38.7504
 -25143303.19548 -19576627.34847  20487696.6644   20487685.6844
        52.0004         47.2504
 -14149225.98748 -12818999.51446  21615553.9614   21615542.6294
        50.2504         41.0004
   -110518.34746  -1117528.31343  24596516.6644   24596505.3324
        41.0004         22.0004
     -4650.98147     -2446.17644  25830203.7194   25830194.3204
        42.2504         24.5004
 -22873620.07148 -17815357.68447  21028683.3284   21028671.5274
        52.5004         45.5004
 -12114116.71647  -9414334.50544  23436076.1484   23436064.5234
        43.0004         28.5004
  -2877936.66345  -2212361.06643  24900475.3674   24900463.1564
        35.2504         19.0004
  -3081799.16046  -2386722.71043  24568308.1644   24568300.1724
        37.0004         21.0004
 07  3 30  0  0 42.0000000  0 12G22G 5G23G14G 1G11G19G12G31G20G30G25
 -11200054.98147  -8709032.86145  23201776.3444   23201764.8954
        46.5004         32.5004
  -1182590.25145  -1079013.76942  25191525.9534   25191516.7894
        35.0004         16.2504
  -1008666.06746   -724176.89743  25436200.6724   25436189.3984
        36.0004         21.0004
 -20545962.69948 -15899320.68446  21721982.6174   21721971.2274
        48.5004         39.0004
 -25143377.57248 -19576685.30147  20487682.4844   20487672.0904
        52.2504         47.2504
 -14150017.10648 -12819615.96846  21615402.9614   21615391.3954
        50.0004         41.0004
   -107692.14546  -1115326.08743  24597054.6024   24597043.7384
        40.5004         22.0004
     -4737.72547     -2513.76344  25830187.0234   25830177.6844
        42.0004         25.0004
 -22875078.94848 -17816494.47447  21028405.4694   21028394.1954
        52.2504         45.5004
 -12116968.10147  -9416556.36944  23435533.3754   23435522.5124
        42.7504         28.0004
  -2879334.09145  -2213449.96143  24900209.1644   24900197.1294
        35.5004         18.2504
  -3085529.78046  -2389629.69243  24567598.9774   24567589.9304
        37.7504         21.5004
 07  3 30  0  0 43.0000000  0 12G22G 5G23G14G 1G11G19G12G31G20G30G25
 -11197679.57847  -8707181.90145  23202228.2424   23202216.9694
        46.5004         32.5004
  -1182777.12645  -1079159.41042  25191490.2584   25191481.2704
        34.5004         16.2504
  -1011709.76746   -726548.60143  25435621.7274   25435610.3954
        36.5004         21.5004
 -20543697.87448 -15897555.88446  21722413.6484   21722402.0824
        48.5004         39.0004
 -25143451.56848 -19576742.95947  20487668.3984   20487658.1214
        52.2504         47.2504
 -14150807.68848 -12820232.00946  21615252.5634   21615241.3484
        50.2504         41.0004
   -104865.93046  -1113123.85343  24597591.2034   24597581.0434
        39.0004         21.7504
     -4823.95947     -2580.94743  25830170.6884   25830161.1134
        42.0004         23.5004
 -22876537.26448 -17817630.81947  21028127.9774   21028116.7034
        52.5004         45.5004
 -12119819.46147  -9418778.21544  23434990.5634   23434979.6994
        43.0004         28.2504
  -2880731.10245  -2214538.56042  24899942.7344   24899930.7584
        35.5004         17.7504
  -3089260.48446  -2392536.75243  24566888.1884   24566879.7854
        37.0004         22.0004
 07  3 30  0  0 44.0000000  0 12G22G 5G23G14G 1G11G19G12G31G20G30G25
 -11195303.98347  -8705330.78945  23202680.0554   23202668.4304
        46.5004         32.5004
  -1182963.41045  -1079304.55642  25191454.8134   25191446.2344
        35.2504         15.5004
  -1014753.33346   -728920.20543  25435043.2424   25435030.9734
        36.7504         22.0004
 -20541432.81548 -15895790.90146  21722844.6564   21722833.2074
        48.7504         39.0004
 -25143525.15748 -19576800.30447  20487654.1884   20487643.6764
        52.7504         47.2504
 -14151597.65348 -12820847.56946  21615102.1094   21615091.0124
        50.0004         41.0004
   -102039.70246  -1110921.59643  24598129.4384   24598118.8094
        39.7504         22.0004
     -4909.67347     -2647.72644  25830154.7274   25830145.0944
        42.0004         24.0004
 -22877994.96748 -17818766.69247  21027850.5554   21027839.1054
        52.0004         45.2504
 -12122670.74647  -9420999.99044  23434448.0164   23434437.2114
        43.7504         29.2504
  -2882127.62645  -2215626.73742  24899677.2114   24899665.1174
        35.5004         17.2504
  -3092991.02746  -2395443.68443  24566179.1174   24566169.8364
        36.5004         21.7504
 07  3 30  0  0 45.0000000  0 12G22G 5G23G14G 1G11G19G12G31G20G30G25
 -11192928.23747  -8703479.56445  23203132.4144   23203120.3794
        46.7504         32.5004
  -1183149.21945  -1079449.32042  25191419.8444   25191411.0904
        35.5004         16.2504
  -1017796.86546   -731291.79043  25434464.0864   25434451.9344
        37.2504         22.2504
 -20539167.64248 -15894025.83646  21723275.6484   21723263.6724
        48.5004         39.5004
 -25143598.41948 -19576857.39247  20487640.6094   20487630.0984
        52.7504         47.2504
 -14152387.09848 -12821462.72046  21614952.0554   21614940.7234
        50.5004         41.0004
    -99213.52646  -1108719.38743  24598667.1024   24598656.6484
        39.0004         22.5004
     -4994.94346     -2714.17444  25830138.3444   25830128.8284
        41.7504         24.5004
 -22879452.13948 -17819902.15547  21027573.4924   21027561.8094
        52.2504         45.5004
 -12125522.05547  -9423221.79044  23433905.7814   23433894.6844
        43.5004         28.5004
  -2883523.82946  -2216714.71342  24899412.7584   24899399.3134
        36.5004         17.7504
  -3096721.62946  -2398350.63643  24565468.6564   24565460.0784
        36.5004         21.5004
 07  3 30  0  0 46.0000000  0 12G22G 5G23G14G 1G11G19G12G31G20G30G25
 -11190552.16247  -8701628.08345  23203584.2664   23203572.8754
        46.5004         32.2504
  -1183334.29345  -1079593.54342  25191384.5004   25191375.8054
        35.2504         16.2504
  -1020840.10846   -733663.15343  25433884.0634   25433872.8484
        37.0004         22.2504
 -20536902.09948 -15892260.48046  21723706.7034   21723695.1374
        48.5004         39.2504
 -25143671.11448 -19576914.03747  20487626.7114   20487615.6724
        52.7504         47.2504
 -14153175.75848 -12822077.25946  21614801.8594   21614790.8204
        49.7504         40.7504
    -96387.20546  -1106517.06243  24599205.1724   24599194.5434
        39.5004         22.5004
     -5079.49746     -2780.06843  25830122.4534   25830112.1174
        41.2504         22.0004
 -22880908.54648 -17821037.01547  21027296.2814   21027284.7154
        52.2504         45.5004
 -12128373.18147  -9425443.44244  23433362.6804   23433352.0514
        43.7504         28.7504
  -2884919.40446  -2217802.15842  24899146.9454   24899133.9694
        36.5004         17.7504
  -3100452.00546  -2401257.41043  24564759.5314   24564750.3674
        36.7504         21.5004
 07  3 30  0  0 47.0000000  0 12G22G 5G23G14G 1G11G19G12G31G20G30G25
 -11188176.17447  -8699776.66145  23204036.3984   23204024.8324
        46.5004         32.2504
  -1183519.16945  -1079737.61042  25191349.5004   25191340.2774
        35.0004         15.5004
  -1023883.51546   -736034.62743  25433305.2344   25433294.0204
        37.2504         22.0004
 -20534636.65848 -15890495.20746  21724137.6564   21724126.6174
        48.0004         39.0004
 -25143743.70948 -19576970.60347  20487612.5704   20487601.8834
        53.0004         47.0004
 -14153964.13448 -12822691.57546  21614652.0164   21614640.5664
        50.0004         40.7504
    -93561.15046  -1104314.94943  24599743.2194   24599731.8874
        39.5004         22.7504
     -5163.81146     -2845.77243  25830106.0634   25830096.2544
        41.0004         22.2504
 -22882364.63748 -17822171.62547  21027019.0944   21027007.6454
        52.0004         45.5004
 -12131224.49447  -9427665.23244  23432819.7504   23432809.7074
        43.5004         28.7504
  -2886314.82646  -2218889.49442  24898881.2664   24898868.1724
        36.7504         17.7504
  -3104182.62746  -2404164.38743  24564048.3364   24564040.4614
        36.2504         20.7504
 07  3 30  0  0 48.0000000  0 12G22G 5G23G14G 1G11G19G12G31G20G30G25
 -11185799.75047  -8697924.90445  23204488.5004   23204476.9924
        46.0004         31.2504
  -1183703.11745  -1079880.90342  25191313.8524   25191305.3914
        35.0004         14.7504
  -1026926.61246   -738405.88543  25432726.2194   25432715.3554
        37.2504         22.0004
 -20532370.77348 -15888729.57446  21724569.2734   21724557.5904
        48.5004         39.2504
 -25143815.66448 -19577026.67447  20487598.8754   20487588.4804
        53.0004         47.0004
 -14154751.66048 -12823305.22846  21614502.0234   21614490.5164
        49.7504         40.7504
    -90734.86746  -1102112.65243  24600280.3594   24600270.2584
        39.0004         22.5004
     -5247.39546     -2910.90143  25830089.8754   25830080.5354
        41.0004         22.5004
 -22883819.90548 -17823305.60247  21026742.3284   21026730.7034
        52.2504         45.5004
 -12134075.53347  -9429886.82244  23432277.8524   23432266.9304
        43.0004         28.2504
  -2887709.57146  -2219976.33542  24898615.9064   24898602.9884
        37.0004         17.7504
  -3107912.89246  -2407071.06843  24563337.9534   24563330.7234
        36.0004         21.0004
 07  3 30  0  0 49.0000000  0 12G22G 5G23G14G 1G11G19G12G31G20G30G25
 -11183423.28647  -8696073.11745  23204940.7274   23204928.7504
        45.7504         31.5004
  -1183886.72745  -1080023.96842  25191278.7194   25191270.0234
        35.5004         14.7504
  -1029969.75146   -740777.15443  25432146.7504   25432135.6524
        37.5004         22.2504
 -20530104.85647 -15886963.92446  21725000.0944   21724988.4104
        47.5004         39.2504
 -25143887.38448 -19577082.55647  20487585.4304   20487574.8014
        53.2504         47.2504
 -14155538.74848 -12823918.54446  21614352.3524   21614341.0204
        49.0004         40.5004
    -87908.73946  -1099910.48643  24600818.7894   24600807.9844
        40.0004         22.5004
     -5330.58846     -2975.74043  25830073.5314   25830064.0744
        41.0004         22.0004
 -22885274.72748 -17824439.23447  21026465.0084   21026453.9694
        52.2504         45.5004
 -12136926.69547  -9432108.50544  23431735.6094   23431724.9804
        42.2504         28.2504
  -2889103.99946  -2221062.89242  24898350.8524   24898337.6994
        37.0004         17.7504
  -3111643.29746  -2409977.85643  24562628.9454   24562620.5434
        37.2504         21.0004
 07  3 30  0  0 50.0000000  0 12G22G 5G23G14G 1G11G19G12G31G20G30G25
 -11181046.58547  -8694221.14645  23205392.7584   23205381.1914
        45.5004         31.7504
  -1184069.77346  -1080166.61542  25191245.0944   25191235.6374
        36.0004         13.7504
  -1033012.67546   -743148.25843  25431568.1724   25431556.8984
        37.2504         22.5004
 -20527838.69448 -15885198.08946  21725431.6414   21725419.7814
        48.0004         39.2504
 -25143958.65248 -19577138.09647  20487571.7584   20487561.2464
        53.0004         47.2504
 -14156325.18848 -12824531.35846  21614202.8754   21614191.0744
        49.7504         40.5004
    -85082.52246  -1097708.23043  24601356.2194   24601345.4144
        38.7504         22.7504
     -5413.21946     -3040.10843  25830058.0164   25830048.6174
        41.2504         22.5004
 -22886728.90948 -17825572.36047  21026188.8444   21026177.1024
        52.5004         45.5004
 -12139777.73747  -9434330.10144  23431192.3834   23431181.9304
        42.7504         29.2504
  -2890497.97046  -2222149.10143  24898085.0554   24898072.3164
        36.7504         18.2504
  -3115373.62846  -2412884.60443  24561919.7974   24561910.6914
        36.7504         21.0004
 07  3 30  0  0 51.0000000  0 12G22G 5G23G14G 1G11G19G12G31G20G30G25
 -11178669.75747  -8692369.06945  23205844.8984   23205833.2734
        46.0004         31.0004
  -1184252.26146  -1080308.80442  25191211.0784   25191200.5084
        36.0004         14.7504
  -1036055.62546   -745519.39343  25430989.3204   25430977.8714
        37.0004         23.0004
 -20525572.36147 -15883432.11546  21725862.5084   21725851.3524
        47.5004         39.5004
 -25144029.57148 -19577193.35647  20487558.4454   20487547.9344
        53.0004         47.2504
 -14157111.09048 -12825143.75146  21614053.6174   21614041.8754
        50.0004         40.7504
    -82256.36946  -1095506.02443  24601893.8054   24601883.3524
        39.0004         22.7504
     -5495.37646     -3104.11844  25830042.7034   25830033.3054
        40.7504         24.5004
 -22888182.52748 -17826705.04647  21025911.9384   21025900.6644
        52.7504         45.7504
 -12142628.78447  -9436551.70544  23430649.7734   23430639.3204
        43.2504         29.5004
  -2891891.56446  -2223235.02243  24897820.1414   24897806.7544
        37.5004         18.5004
  -3119103.91046  -2415791.31043  24561210.2894   24561201.0084
        37.5004         21.0004
 07  3 30  0  0 52.0000000  0 12G22G 5G23G14G 1G11G19G12G31G20G30G25
 -11176292.59847  -8690516.73845  23206297.2274   23206285.7774
        46.0004         31.2504
  -1184434.07145  -1080450.49342  25191175.8284   25191166.0204
        35.7504         14.7504
  -1039098.31546   -747890.31743  25430410.5704   25430398.8284
        36.7504         23.0004
 -20523305.73847 -15881665.91746  21726293.8834   21726282.4924
        47.5004         39.0004
 -25144099.97848 -19577248.21347  20487545.0394   20487533.9414
        53.0004         47.5004
 -14157896.24848 -12825755.55746  21613903.9454   21613892.2034
        49.5004         40.5004
    -79430.11346  -1093303.73743  24602431.7194   24602421.1484
        38.5004         23.2504
     -5576.88946     -3167.63244  25830026.7194   25830017.6724
        40.5004         24.7504
 -22889635.44348 -17827837.18547  21025635.4384   21025624.0474
        52.5004         45.7504
 -12145479.67347  -9438773.17644  23430107.3284   23430096.6994
        43.2504         28.5004
  -2893284.57446  -2224320.47743  24897555.1174   24897542.6134
        37.5004         18.2504
  -3122834.05346  -2418697.91843  24560501.3204   24560490.9844
        37.7504         21.2504
 07  3 30  0  0 53.0000000  0 12G22G 5G23G14G 1G11G19G12G31G20G30G25
 -11173915.35447  -8688664.34545  23206749.9774   23206738.0594
        46.2504         31.5004
  -1184615.47746  -1080591.85442  25191141.5234   25191131.7154
        36.2504         14.7504
  -1042140.94846   -750261.20243  25429832.5394   25429819.7424
        37.2504         22.7504
 -20521038.99447 -15879899.62146  21726725.1724   21726713.8984
        47.7504         39.5004
 -25144170.08348 -19577302.84447  20487532.0394   20487521.3524
        53.2504         47.5004
 -14158680.93148 -12826366.99646  21613754.9694   21613743.1094
        49.5004         40.5004
    -76603.89646  -1091101.49643  24602969.2274   24602959.1254
        38.5004         22.5004
     -5657.99346     -3230.83343  25830011.8444   25830002.0944
        40.7504         22.7504
 -22891087.85648 -17828968.93347  21025359.0704   21025347.7384
        53.0004         45.7504
 -12148330.59947  -9440994.67844  23429565.2974   23429554.4344
        43.5004         28.7504
  -2894677.24146  -2225405.69343  24897290.2114   24897277.1174
        37.2504         18.5004
  -3126564.21346  -2421604.52243  24559790.8984   24559781.5594
        38.0004         21.2504
 07  3 30  0  0 54.0000000  0 12G22G 5G23G14G 1G11G19G12G31G20G30G25
 -11171537.90747  -8686811.78945  23207202.3984   23207190.5394
        46.5004         31.5004
  -1184796.30445  -1080732.75942  25191106.2504   25191097.0864
        35.5004         14.7504
  -1045183.50246   -752632.02143  25429252.5474   25429240.8054
        36.5004         23.5004
 -20518772.05547 -15878133.17846  21727156.9304   21727145.5394
        47.5004         39.5004
 -25144239.79748 -19577357.16747  20487518.3594   20487508.1414
        53.0004         47.2504
 -14159464.98548 -12826977.95246  21613605.4694   21613593.9024
        49.5004         40.5004
    -73777.71946  -1088899.27543  24603507.6564   24603497.2624
        38.7504         22.7504
     -5738.53246     -3293.58944  25829996.8754   25829986.5984
        41.7504         24.0004
 -22892539.67648 -17830100.22447  21025082.9924   21025071.3674
        52.7504         45.5004
 -12151181.48547  -9443216.13844  23429021.3674   23429011.5004
        43.5004         28.5004
  -2896069.43646  -2226490.52043  24897025.2814   24897012.2464
        37.2504         18.5004
  -3130294.32246  -2424511.10743  24559081.5084   24559071.4654
        38.0004         21.2504
 07  3 30  0  0 55.0000000  0 12G22G 5G23G14G 1G11G19G12G31G20G30G25
 -11169160.28447  -8684959.10045  23207655.1644   23207643.0704
        46.5004         31.7504
  -1184976.54146  -1080873.19242  25191072.9844   25191063.2344
        36.0004         14.7504
  -1048225.93446   -755002.74843  25428672.8914   25428661.9694
        36.5004         22.2504
 -20516504.91647 -15876366.57146  21727587.7114   21727577.1414
        47.7504         39.5004
 -25144309.08848 -19577411.15847  20487504.9844   20487494.5904
        53.5004         47.2504
 -14160248.47648 -12827588.46346  21613456.4694   21613444.1994
        49.7504         40.7504
    -70951.52946  -1086697.05143  24604044.9384   24604035.1294
        39.0004         22.5004
     -5818.57346     -3355.96744  25829981.7584   25829971.3054
        41.2504         25.0004
 -22893990.88948 -17831231.03747  21024806.7664   21024795.5514
        52.5004         45.7504
 -12154032.31247  -9445437.55244  23428480.0164   23428469.2704
        43.5004         29.0004
  -2897461.18846  -2227575.02443  24896759.5704   24896747.6524
        37.5004         18.5004
  -3134024.39546  -2427417.66143  24558372.2504   24558361.5044
        37.7504         21.5004
 07  3 30  0  0 56.0000000  0 12G22G 5G23G14G 1G11G19G12G31G20G30G25
 -11166782.62747  -8683106.37545  23208107.6564   23208095.0944
        46.5004         31.0004
  -1185156.41146  -1081013.38942  25191039.0554   25191029.0704
        36.0004         14.7504
  -1051268.45046   -757373.53143  25428093.9144   25428082.8754
        36.7504         22.7504
 -20514237.72848 -15874599.93246  21728019.1954   21728007.9224
        48.0004         39.5004
 -25144378.15848 -19577464.97647  20487492.0004   20487481.5474
        53.7504         47.2504
 -14161031.50648 -12828198.62146  21613307.6724   21613295.5784
        50.0004         40.7504
    -68125.46546  -1084494.92743  24604582.3134   24604572.9144
        39.7504         22.5004
     -5898.20546     -3418.02744  25829965.9454   25829956.4304
        41.2504         24.5004
 -22895441.65448 -17832361.50747  21024530.7194   21024519.0354
        52.5004         45.5004
 -12156883.21847  -9447659.04244  23427937.3444   23427927.0084
        43.7504         29.7504
  -2898852.68446  -2228659.30343  24896494.9064   24896482.6954
        37.5004         18.2504
  -3137754.56746  -2430324.28043  24557660.5084   24557651.8714
        37.7504         21.5004
 07  3 30  0  0 57.0000000  0 12G22G 5G23G14G 1G11G19G12G31G20G30G25
 -11164404.39147  -8681253.21345  23208560.3524   23208547.8484
        46.5004         31.2504
  -1185335.31646  -1081152.80242  25191004.6024   25190994.9694
        36.0004         15.5004
  -1054310.42246   -759743.89043  25427514.6644   25427503.9184
        36.7504         22.5004
 -20511969.98447 -15872832.86446  21728450.8984   21728439.5664
        47.7504         39.5004
 -25144446.45448 -19577518.19847  20487479.1094   20487468.6564
        53.5004         47.2504
 -14161813.55648 -12828808.01146  21613158.3284   21613146.5274
        50.2504         40.7504
    -65299.02646  -1082292.50843  24605120.4694   24605111.1294
        39.2504         22.2504
     -5976.97346     -3479.41743  25829950.9224   25829941.4654
        41.2504         22.7504
 -22896891.43948 -17833491.20247  21024254.8834   21024243.0824
        53.0004         45.5004
 -12159733.72547  -9449880.22544  23427394.6484   23427384.3714
        44.0004         28.7504
  -2900243.38246  -2229742.93943  24896230.6094   24896217.8714
        37.5004         18.2504
  -3141484.26646  -2433230.54643  24556951.5314   24556942.0744
        38.2504         22.0004
 07  3 30  0  0 58.0000000  0 12G22G 5G23G14G 1G11G19G12G31G20G30G25
 -11162026.24347  -8679400.11545  23209012.3674   23209000.3324
        46.2504         31.7504
  -1185513.96246  -1081292.00442  25190971.3284   25190960.9344
        36.2504         15.5004
  -1057352.62746   -762114.42143  25426936.4144   25426925.4344
        37.2504         22.0004
 -20509702.31347 -15871065.85246  21728882.4924   21728871.1024
        47.7504         39.2504
 -25144514.63548 -19577571.32247  20487465.9694   20487455.2234
        53.5004         47.0004
 -14162595.31248 -12829417.17046  21613009.6954   21612997.5434
        50.5004         40.7504
    -62472.85546  -1080090.31243  24605658.8984   24605648.7384
        39.2504         22.5004
     -6055.50646     -3540.61243  25829936.5864   25829926.3094
        41.2504         23.0004
 -22898340.92948 -17834620.67847  21023978.8984   21023967.6254
        53.0004         45.5004
 -12162584.46547  -9452101.57744  23426852.4144   23426841.9614
        43.5004         28.5004
  -2901633.89246  -2230826.43443  24895965.5084   24895953.7074
        38.0004         18.2504
  -3145214.26046  -2436137.03043  24556241.6724   24556232.2734
        37.7504         22.0004
 07  3 30  0  0 59.0000000  0 12G22G 5G23G14G 1G11G19G12G31G20G30G25
 -11159647.86847  -8677546.83745  23209465.4384   23209452.8164
        47.0004         31.7504
  -1185692.00146  -1081430.71142  25190936.4144   25190927.0164
        36.2504         14.7504
  -1060394.65946   -764484.83943  25426357.5704   25426346.2974
        37.0004         21.5004
 -20507434.43848 -15869298.67546  21729314.3364   21729302.4774
        48.0004         39.5004
 -25144582.39248 -19577624.12347  20487452.9774   20487442.4064
        53.5004         47.2504
 -14163376.43348 -12830025.83146  21612861.0234   21612849.1054
        50.5004         40.7504
    -59646.63646  -1077888.06943  24606196.3984   24606186.8244
        39.5004         22.5004
     -6133.47546     -3601.37743  25829921.1564   25829911.6994
        41.0004         22.7504
 -22899789.77748 -17835749.64747  21023703.2274   21023691.7194
        52.0004         45.7504
 -12165435.09547  -9454322.84644  23426309.9924   23426299.7154
        43.5004         29.0004
  -2903023.92746  -2231909.59143  24895701.2344   24895688.9654
        38.5004         18.5004
  -3148944.13246  -2439043.43343  24555531.8984   24555522.4414
        37.2504         21.5004
 07  3 30  0  1  0.0000000  0 12G22G 5G23G14G 1G11G19G12G31G20G30G25
 -11157269.46647  -8675693.53745  23209917.9224   23209905.3594
        46.2504         31.5004
  -1185869.66245  -1081569.11942  25190902.5704   25190893.7584
        35.7504         14.7504
  -1063436.75446   -766855.31743  25425778.7424   25425767.4694
        36.5004         21.5004
 -20505166.47748 -15867531.43046  21729745.7424   21729734.4694
        48.0004         39.5004
 -25144649.88648 -19577676.71047  20487440.3984   20487429.4774
        53.5004         47.5004
 -14164157.08648 -12830634.13746  21612712.6564   21612700.9144
        50.2504         41.0004
    -56820.58246  -1075685.94143  24606734.0704   24606724.1454
        39.7504         22.2504
     -6211.05046     -3661.81643  25829906.4694   25829896.5434
        40.5004         22.5004
 -22901238.17248 -17836878.26947  21023427.7034   21023416.1954
        52.0004         45.5004
 -12168285.83147  -9456544.20044  23425767.4454   23425757.0514
        43.2504         29.2504
  -2904413.64346  -2232992.49443  24895437.1804   24895424.0864
        38.5004         18.5004
  -3152674.06046  -2441949.86843  24554821.9614   24554812.9734
        37.5004         21.2504
 07  3 30  0  1  1.0000000  0 12G22G 5G23G14G 1G11G19G12G31G20G30G25
 -11154890.58947  -8673839.86045  23210370.9454   23210358.2074
        46.7504         31.5004
  -1186046.47445  -1081706.89542  25190868.4534   25190859.1724
        35.7504         14.7504
  -1066478.45346   -769225.48943  25425199.9534   25425188.3874
        37.0004         21.5004
 -20502898.08147 -15865763.84746  21730177.6954   21730166.3054
        47.5004         39.5004
 -25144716.72048 -19577728.79547  20487427.6024   20487417.0904
        53.0004         47.2504
 -14164936.90548 -12831241.78446  21612564.1884   21612552.5634
        50.0004         41.0004
    -53994.25246  -1073483.59943  24607271.8914   24607261.9654
        39.5004         22.5004
     -6287.87346     -3721.67043  25829892.1334   25829882.0904
        40.7504         22.5004
 -22902685.70348 -17838006.21447  21023152.1254   21023140.7344
        52.2504         45.5004
 -12171136.28347  -9458765.32444  23425225.8834   23425214.6684
        43.7504         28.7504
  -2905802.69346  -2234074.86843  24895172.4144   24895160.2624
        38.7504         18.5004
  -3156403.68846  -2444856.05543  24554112.1334   24554102.8524
        37.5004         21.0004
 07  3 30  0  1  2.0000000  0 12G22G 5G23G14G 1G11G19G12G31G20G30G25
 -11152511.66247  -8671986.14545  23210823.8594   23210811.2384
        46.5004         31.7504
  -1186222.83245  -1081844.30642  25190834.6804   25190825.8674
        35.7504         14.7504
  -1069520.13646   -771595.64243  25424621.3674   25424609.4494
        37.0004         21.2504
 -20500629.61048 -15863996.20746  21730609.3284   21730597.4694
        48.0004         39.2504
 -25144783.29348 -19577780.66347  20487415.1094   20487404.4804
        53.2504         47.5004
 -14165716.21748 -12831849.04346  21612416.1174   21612403.9064
        50.2504         41.0004
    -51168.04346  -1071281.36943  24607809.8444   24607800.0354
        40.0004         22.7504
     -6364.27846     -3781.19543  25829878.0944   25829867.6414
        41.2504         22.5004
 -22904132.75648 -17839133.78147  21022876.5944   21022865.2034
        52.5004         45.2504
 -12173986.75547  -9460986.46644  23424682.5554   23424672.3364
        43.7504         28.7504
  -2907191.38746  -2235156.98343  24894908.7814   24894895.9844
        39.0004         19.0004
  -3160133.39146  -2447762.32243  24553403.0474   24553393.0634
        37.5004         20.7504
 07  3 30  0  1  3.0000000  0 12G22G 5G23G14G 1G11G19G12G31G20G30G25
 -11150132.53847  -8670132.27645  23211275.9384   23211263.7274
        46.2504         32.2504
  -1186398.67346  -1081981.34442  25190802.1094   25190792.3014
        36.5004         14.7504
  -1072561.76346   -773965.73543  25424042.6484   25424030.7304
        37.2504         21.2504
 -20498360.93248 -15862228.40446  21731040.9774   21731029.2934
        48.0004         39.0004
 -25144849.46748 -19577832.23247  20487402.4454   20487391.8754
        53.5004         47.2504
 -14166494.97248 -12832455.86646  21612267.8754   21612255.9574
        50.5004         41.0004
    -48341.82546  -1069079.12543  24608347.6334   24608337.3554
        40.5004         22.7504
     -6440.13946     -3840.30243  25829863.0164   25829852.9734
        41.0004         22.5004
 -22905579.21948 -17840260.90147  21022601.7424   21022590.0594
        52.5004         45.2504
 -12176837.21447  -9463207.60944  23424140.3364   23424129.4144
        43.5004         28.2504
  -2908579.67446  -2236238.77843  24894644.3914   24894631.8874
        39.2504         19.0004
  -3163863.08846  -2450668.57143  24552693.2114   24552683.2274
        37.7504         21.2504
 07  3 30  0  1  4.0000000  0 12G22G 5G23G14G 1G11G19G12G31G20G30G25
 -11147753.29147  -8668278.32045  23211729.0474   23211716.4844
        46.2504         31.7504
  -1186574.01745  -1082117.97442  25190767.9774   25190759.1644
        35.2504         14.7504
  -1075603.31446   -776335.77643  25423463.1954   25423451.8634
        37.0004         20.7504
 -20496092.13848 -15860460.51446  21731472.8594   21731461.0004
        48.0004         39.2504
 -25144915.33048 -19577883.54947  20487389.6724   20487378.9844
        53.5004         47.2504
 -14167273.18048 -12833062.26146  21612119.6954   21612107.6604
        50.5004         41.0004
    -45515.71946  -1066876.97043  24608886.3834   24608874.9924
        40.7504         22.7504
     -6515.57246     -3899.08944  25829849.2584   25829839.0394
        40.7504         24.5004
 -22907025.16848 -17841387.61747  21022326.3674   21022315.1524
        53.0004         45.5004
 -12179687.71547  -9465428.77944  23423598.1334   23423587.2704
        43.2504         28.5004
  -2909967.58946  -2237320.26043  24894380.5394   24894368.0354
        40.0004         19.2504
  -3167592.73746  -2453574.78443  24551983.5394   24551973.7304
        37.0004         21.2504
 07  3 30  0  1  5.0000000  0 12G22G 5G23G14G 1G11G19G12G31G20G30G25
 -11145373.80747  -8666424.17845  23212182.4224   23212168.9774
        46.5004         32.0004
  -1186748.74445  -1082254.17642  25190735.0314   25190725.8094
        35.0004         14.7504
  -1078644.70346   -778705.68243  25422884.6484   25422873.1994
        37.2504         21.5004
 -20493823.07648 -15858692.41546  21731904.5314   21731893.0234
        48.5004         39.5004
 -25144980.69448 -19577934.48647  20487377.3674   20487366.5044
        53.2504         47.2504
 -14168050.72048 -12833668.14046  21611971.7504   21611960.0084
        50.5004         41.0004
    -42689.48946  -1064674.70343  24609423.8914   24609413.0274
        40.2504         22.5004
     -6590.40246     -3957.40443  25829835.0864   25829824.8094
        40.5004         23.0004
 -22908470.43548 -17842513.80047  21022051.5394   21022039.6804
        53.0004         45.5004
 -12182538.04147  -9467649.81444  23423055.7274   23423044.6294
        42.7504         28.2504
  -2911354.96946  -2238401.32643  24894116.2194   24894103.9494
        40.0004         19.2504
  -3171322.25946  -2456480.90543  24551273.3364   24551264.0554
        37.2504         21.0004
 07  3 30  0  1  6.0000000  0 12G22G 5G23G14G 1G11G19G12G31G20G30G25
 -11142994.00247  -8664569.78745  23212635.0634   23212622.2034
        46.2504         32.0004
  -1186922.79145  -1082389.78642  25190701.8524   25190692.5124
        33.7504         14.7504
  -1081685.90646   -781075.42843  25422306.1414   25422294.3984
        37.5004         21.2504
 -20491553.71648 -15856924.08346  21732336.3134   21732324.7464
        48.7504         39.5004
 -25145045.58848 -19577985.05347  20487364.9924   20487354.3054
        53.2504         47.5004
 -14168827.56348 -12834273.47246  21611823.8524   21611811.7584
        50.5004         41.0004
    -39863.17246  -1062472.36343  24609961.4144   24609950.7854
        40.0004         22.7504
     -6664.62446     -4015.23244  25829820.8754   25829810.3054
        41.0004         24.0004
 -22909915.00548 -17843639.42947  21021776.5634   21021765.1134
        52.7504         45.2504
 -12185388.24847  -9469870.75644  23422513.1484   23422502.6954
        43.5004         29.2504
  -2912741.85546  -2239482.02943  24893852.5234   24893840.1954
        40.0004         19.2504
  -3175051.65746  -2459386.93743  24550563.6484   24550553.9574
        37.2504         20.7504
 07  3 30  0  1  7.0000000  0 12G22G 5G23G14G 1G11G19G12G31G20G30G25
 -11140614.22347  -8662715.41845  23213088.4694   23213075.0824
        46.7504         32.0004
  -1187096.48545  -1082525.11642  25190669.2504   25190659.5004
        34.2504         15.5004
  -1084727.08946   -783445.17343  25421727.2894   25421715.6054
        36.5004         20.7504
 -20489284.35548 -15855155.75346  21732767.8674   21732756.5354
        48.2504         39.5004
 -25145110.28248 -19578035.46147  20487352.8284   20487342.1994
        53.0004         47.5004
 -14169604.01948 -12834878.50146  21611676.3674   21611664.2154
        50.2504         41.0004
    -37037.04946  -1060270.19243  24610499.5164   24610488.4774
        40.2504         22.7504
     -6738.51346     -4072.80144  25829806.6564   25829796.3204
        41.5004         24.0004
 -22911359.18448 -17844764.76747  21021501.5474   21021490.2734
        52.5004         45.2504
 -12188238.61047  -9472091.82144  23421970.5084   23421959.9384
        43.5004         28.7504
  -2914128.44046  -2240562.52043  24893589.0234   24893575.9884
        40.5004         19.2504
  -3178781.20446  -2462293.07243  24549853.9454   24549844.0204
        37.2504         20.5004
 07  3 30  0  1  8.0000000  0 12G22G 5G23G14G 1G11G19G12G31G20G30G25
 -11138234.16247  -8660860.82245  23213541.1334   23213527.9804
        46.5004         31.7504
  -1187269.51145  -1082659.94642  25190636.3914   25190626.3484
        35.0004         15.5004
  -1087768.22546   -785814.89843  25421147.7814   25421136.7424
        36.5004         20.5004
 -20487014.73247 -15853387.21646  21733199.6804   21733188.4654
        47.2504         39.2504
 -25145174.48048 -19578085.49147  20487340.5944   20487329.9064
        53.2504         47.5004
 -14170379.78448 -12835482.99246  21611528.4534   21611516.8284
        49.5004         41.0004
    -34210.86046  -1058067.96043  24611037.6564   24611026.2664
        40.0004         23.2504
     -6811.78546     -4129.87043  25829793.3524   25829782.3714
        41.5004         22.0004
 -22912802.67548 -17845889.55947  21021226.8834   21021215.3164
        52.5004         45.2504
 -12191088.82447  -9474312.75744  23421428.4774   23421417.5554
        43.0004         28.7504
  -2915514.55346  -2241642.59343  24893325.0234   24893311.9884
        40.5004         19.2504
  -3182510.58246  -2465199.07543  24549143.9304   24549134.4144
        37.5004         20.5004
 07  3 30  0  1  9.0000000  0 12G22G 5G23G14G 1G11G19G12G31G20G30G25
 -11135853.86447  -8659006.04445  23213993.8054   23213980.7114
        46.7504         32.2504
  -1187441.98745  -1082794.33242  25190603.6414   25190593.8324
        35.5004         14.7504
  -1090809.16245   -788184.46843  25420569.1414   25420558.3954
        35.7504         20.7504
 -20484744.84447 -15851618.47246  21733631.8284   21733620.0864
        47.5004         39.0004
 -25145238.24148 -19578135.17047  20487328.3284   20487317.8754
        53.0004         47.2504
 -14171154.91248 -12836086.99246  21611380.7734   21611368.9144
        49.5004         41.0004
    -31384.58146  -1055865.66243  24611574.7114   24611564.0824
        39.2504         22.5004
     -6884.47246     -4186.51043  25829778.8834   25829768.7814
        41.2504         22.2504
 -22914245.51548 -17847013.84447  21020952.2274   21020940.7194
        52.7504         45.5004
 -12193938.93747  -9476533.62844  23420885.7424   23420875.1134
        42.7504         28.5004
  -2916900.12246  -2242722.24943  24893060.9694   24893048.9344
        40.5004         19.5004
  -3186239.85946  -2468104.97743  24548434.2194   24548424.8204
        37.0004         20.2504
 07  3 30  0  1 10.0000000  0 12G22G 5G23G14G 1G11G19G12G31G20G30G25
 -11133473.49847  -8657151.21745  23214446.7664   23214433.8484
        47.0004         32.2504
  -1187614.03945  -1082928.38142  25190570.5554   25190561.3914
        35.7504         14.7504
  -1093850.08646   -790553.99843  25419990.9454   25419979.1454
        36.5004         20.5004
 -20482474.89647 -15849849.68546  21734064.2664   21734052.6994
        47.5004         39.0004
 -25145301.74348 -19578184.65247  20487316.2194   20487305.4734
        53.0004         47.2504
 -14171929.55848 -12836690.60746  21611233.1724   21611221.7814
        49.2504         40.7504
    -28558.43746  -1053663.48043  24612113.4384   24612102.1054
        39.5004         22.5004
     -6956.81746     -4242.90243  25829765.1334   25829754.6214
        41.2504         22.5004
 -22915687.88048 -17848137.77147  21020677.7894   21020666.5744
        52.7504         45.2504
 -12196789.12347  -9478754.56444  23420343.8984   23420333.2704
        43.0004         28.0004
  -2918285.38246  -2243801.66543  24892797.4534   24892785.3594
        40.5004         19.2504
  -3189969.19046  -2471010.95243  24547724.3674   24547715.3794
        37.7504         20.7504
 07  3 30  0  1 11.0000000  0 12G22G 5G23G14G 1G11G19G12G31G20G30G25
 -11131092.94047  -8655296.23845  23214899.3134   23214887.2774
        47.0004         32.2504
  -1187785.51645  -1083062.00442  25190537.2974   25190528.7774
        34.7504         14.7504
  -1096890.88846   -792923.46543  25419412.8984   25419400.4534
        36.7504         20.5004
 -20480204.74448 -15848080.72946  21734496.3284   21734484.7034
        48.0004         39.0004
 -25145364.83348 -19578233.81447  20487304.2424   20487293.9064
        52.7504         47.0004
 -14172703.59848 -12837293.76146  21611086.1414   21611074.5164
        49.7504         41.0004
    -25732.28546  -1051461.29043  24612650.6094   24612639.8634
        39.7504         22.5004
     -7028.57546     -4298.83043  25829751.2504   25829740.9734
        40.5004         22.7504
 -22917129.64248 -17849261.22347  21020403.6564   21020392.1484
        52.7504         45.5004
 -12199639.25747  -9480975.44144  23419801.4534   23419790.7074
        42.7504         27.5004
  -2919670.22646  -2244880.75343  24892533.5474   24892521.6294
        40.5004         19.2504
  -3193698.52346  -2473916.92743  24547014.9924   24547005.1844
        38.0004         20.7504
 07  3 30  0  1 12.0000000  0 12G22G 5G23G14G 1G11G19G12G31G20G30G25
 -11128712.10047  -8653441.03845  23215352.4384   23215340.4024
        46.5004         32.0004
  -1187956.31445  -1083195.07842  25190505.3594   25190496.1374
        35.0004         13.7504
  -1099931.47246   -795292.76243  25418835.0084   25418822.2114
        36.0004         20.2504
 -20477934.29948 -15846311.55746  21734928.1254   21734916.3834
        48.5004         39.0004
 -25145427.44748 -19578282.60747  20487292.1414   20487281.8054
        52.5004         47.2504
 -14173476.95048 -12837896.37446  21610938.9694   21610927.1684
        50.0004         41.0004
    -22906.02446  -1049259.01243  24613187.7504   24613177.5314
        38.7504         22.7504
     -7099.72946     -4354.25943  25829737.4924   25829727.7424
        40.2504         22.5004
 -22918570.69848 -17850384.12147  21020129.3054   21020118.0314
        52.7504         45.2504
 -12202489.21947  -9483196.19144  23419259.3914   23419248.2344
        43.0004         27.7504
  -2921054.49746  -2245959.40943  24892271.1804   24892258.5594
        40.5004         19.5004
  -3197427.65846  -2476822.74443  24546305.7274   24546295.5664
        39.0004         20.5004
 07  3 30  0  1 13.0000000  0 12G22G 5G23G14G 1G11G19G12G31G20G30G25
 -11126331.00947  -8651585.64545  23215805.0474   23215793.7154
        46.2504         32.2504
  -1188126.51245  -1083327.71642  25190472.9774   25190463.7544
        34.5004         15.5004
  -1102971.98346   -797662.01843  25418254.4224   25418243.3834
        36.0004         20.0004
 -20475663.61048 -15844542.18246  21735360.2424   21735348.5594
        48.0004         38.7504
 -25145489.60248 -19578331.03347  20487280.4614   20487270.1844
        52.2504         47.5004
 -14174249.67648 -12838498.50046  21610792.0164   21610780.2734
        50.5004         41.0004
    -20079.72146  -1047056.70843  24613725.9844   24613715.3554
        39.0004         23.7504
     -7170.31046     -4409.26043  25829724.3674   25829713.9734
        40.5004         22.2504
 -22920011.13148 -17851506.53647  21019855.1644   21019843.5394
        53.0004         45.5004
 -12205339.12147  -9485416.89644  23418717.0084   23418705.8524
        43.2504         28.7504
  -2922438.29346  -2247037.68743  24892007.4774   24891995.1484
        41.0004         19.0004
  -3201156.71246  -2479728.50043  24545595.8284   24545586.6054
        37.5004         21.2504
 07  3 30  0  1 14.0000000  0 12G22G 5G23G14G 1G11G19G12G31G20G30G25
 -11123949.87047  -8649730.20645  23216258.3754   23216246.5744
        45.7504         32.5004
  -1188296.31245  -1083459.98942  25190439.3524   25190431.5944
        34.2504         15.5004
  -1106012.45146   -800031.20143  25417675.9224   25417664.8244
        36.0004         20.0004
 -20473392.88648 -15842772.79146  21735792.0864   21735780.8134
        48.0004         39.0004
 -25145551.51148 -19578379.27947  20487268.6174   20487258.2814
        52.7504         47.0004
 -14175021.92548 -12839100.25446  21610645.2974   21610633.2034
        51.0004         41.0004
    -17253.53246  -1044854.50444  24614263.9304   24614253.4774
        39.2504         24.0004
     -7240.53146     -4463.97943  25829710.8364   25829700.5004
        40.0004         22.2504
 -22921451.09148 -17852628.57947  21019581.1724   21019569.5474
        52.5004         45.5004
 -12208189.10147  -9487637.65844  23418174.8984   23418163.2734
        43.5004         28.5004
  -2923821.74946  -2248115.71143  24891743.5864   24891731.9614
        40.5004         19.2504
  -3204885.82446  -2482634.29743  24544886.3054   24544877.0234
        37.7504         21.0004
 07  3 30  0  1 15.0000000  0 12G22G 5G23G14G 1G11G19G12G31G20G30G25
 -11121568.53447  -8647874.62345  23216711.6884   23216699.7114
        46.0004         32.0004
  -1188465.53845  -1083591.82842  25190407.0784   25190399.0274
        35.5004         15.5004
  -1109052.83046   -802400.30343  25417097.3204   25417085.6954
        36.0004         19.7504
 -20471121.93647 -15841003.21646  21736224.0004   21736212.9024
        47.5004         39.0004
 -25145613.01948 -19578427.20447  20487256.8674   20487246.4144
        52.5004         47.0004
 -14175793.58148 -12839701.53846  21610498.2034   21610486.6374
        50.2504         41.2504
    -14427.37146  -1042652.31543  24614802.4304   24614791.0394
        40.0004         23.0004
     -7310.20346     -4518.26343  25829697.8984   25829687.2114
        40.5004         22.2504
 -22922890.45848 -17853750.16547  21019307.2974   21019296.1414
        52.5004         45.5004
 -12211039.01247  -9489858.36044  23417631.7034   23417621.1334
        43.2504         29.5004
  -2925204.80446  -2249193.40943  24891480.5944   24891468.7934
        40.7504         18.5004
  -3208614.87246  -2485540.04343  24544176.2584   24544167.2704
        37.5004         21.5004
 07  3 30  0  1 16.0000000  0 12G22G 5G23G14G 1G11G19G12G31G20G30G25
 -11119186.95347  -8646018.84645  23217164.9774   23217153.7034
        46.0004         32.0004
  -1188634.09145  -1083723.16542  25190376.2504   25190367.2034
        35.5004         15.5004
  -1112093.02046   -804769.28443  25416518.2194   25416506.7704
        36.0004         19.5004
 -20468850.72247 -15839233.43946  21736656.2734   21736644.9414
        47.5004         39.0004
 -25145674.07148 -19578474.77947  20487245.3204   20487234.8094
        52.5004         47.2504
 -14176564.55948 -12840302.30146  21610351.4224   21610339.7974
        50.0004         41.2504
    -11601.13846  -1040450.05843  24615340.4924   24615328.6914
        41.2504         22.5004
     -7379.27546     -4572.10043  25829685.0474   25829674.5354
        41.2504         22.0004
 -22924329.14048 -17854871.21647  21019033.8984   21019022.1564
        52.2504         45.5004
 -12213888.80347  -9492078.96744  23417090.0164   23417078.8014
        43.5004         28.7504
  -2926587.31446  -2250270.67642  24891218.1094   24891205.7234
        40.5004         17.7504
  -3212343.81246  -2488445.70443  24543467.7034   24543457.7194
        38.0004         22.0004
 07  3 30  0  1 17.0000000  0 12G22G 5G23G14G 1G11G19G12G31G20G30G25
 -11116805.11447  -8644162.87245  23217617.3054   23217606.2664
        45.7504         31.5004
  -1188802.05346  -1083854.06642  25190344.4774   25190335.1954
        36.0004         15.5004
  -1115133.01045   -807138.11143  25415940.0004   25415928.2584
        35.5004         19.5004
 -20466579.26247 -15837463.47246  21737088.5004   21737077.0514
        47.2504         39.2504
 -25145734.66348 -19578521.98947  20487233.6024   20487222.7974
        52.5004         47.0004
 -14177334.88548 -12840902.55046  21610204.6334   21610192.7154
        49.5004         41.0004
     -8774.81846  -1038247.73143  24615878.4454   24615866.5864
        41.7504         22.5004
     -7447.78046     -4625.47743  25829671.7194   25829660.9734
        40.7504         22.0004
 -22925767.18048 -17855991.76247  21018759.9694   21018748.4614
        52.2504         45.5004
 -12216738.47647  -9494299.48544  23416547.6094   23416536.6294
        43.7504         28.5004
  -2927969.34246  -2251347.60442  24890954.5394   24890943.2074
        41.0004         17.7504
  -3216072.61146  -2491351.26643  24542757.9534   24542748.0864
        38.2504         22.2504
 07  3 30  0  1 18.0000000  0 12G22G 5G23G14G 1G11G19G12G31G20G30G25
 -11114423.34747  -8642306.95845  23218070.8674   23218059.3594
        46.2504         32.0004
  -1188969.73245  -1083984.78542  25190312.4694   25190303.2464
        35.2504         15.5004
  -1118173.23345   -809507.14843  25415360.8984   25415349.6254
        35.5004         19.5004
 -20464307.87147 -15835693.56246  21737520.8054   21737509.5314
        47.5004         39.2504
 -25145795.11148 -19578569.09547  20487222.2734   20487211.5274
        52.5004         47.0004
 -14178104.86948 -12841502.54346  21610058.2584   21610046.5744
        49.7504         41.0004
     -5948.75146  -1036045.58743  24616416.3444   24616404.4264
        41.5004         22.7504
     -7516.04146     -4678.65343  25829659.4144   25829647.8484
        41.2504         22.2504
 -22927204.87948 -17857112.05247  21018486.1094   21018474.8364
        52.2504         45.5004
 -12219588.36747  -9496520.18244  23416005.2734   23415994.5274
        44.5004         28.0004
  -2929351.17846  -2252424.37143  24890691.2194   24890679.6524
        40.7504         18.2504
  -3219801.61146  -2494256.97043  24542048.0474   24542038.5904
        37.7504         21.5004
 07  3 30  0  1 19.0000000  0 12G22G 5G23G14G 1G11G19G12G31G20G30G25
 -11112041.13947  -8640450.68945  23218524.4454   23218512.5864
        46.0004         30.7504
  -1189136.61445  -1084114.82142  25190281.4304   25190271.1524
        35.0004         15.5004
  -1121213.04545   -811875.83643  25414783.1094   25414771.6604
        35.2504         19.2504
 -20462036.04947 -15833923.31346  21737953.2344   21737941.6094
        47.7504         39.0004
 -25145854.91248 -19578615.69347  20487210.8594   20487200.0554
        52.7504         47.2504
 -14178874.01348 -12842101.87546  21609911.6334   21609900.1254
        49.5004         41.0004
     -3122.51146  -1033843.33043  24616953.4774   24616942.2624
        41.2504         22.5004
     -7583.48646     -4731.20943  25829646.5394   25829635.3834
        41.0004         22.0004
 -22928641.73448 -17858231.67847  21018213.1724   21018201.4884
        52.2504         45.5004
 -12222437.96947  -9498740.66044  23415463.5704   23415451.9454
        45.0004         29.5004
  -2930732.30746  -2253500.58743  24890429.4534   24890416.9494
        41.2504         18.2504
  -3223530.30346  -2497162.45643  24541338.5864   24541328.8954
        37.5004         22.0004
 07  3 30  0  1 20.0000000  0 12G22G 5G23G14G 1G11G19G12G31G20G30G25
 -11109658.93747  -8638594.42645  23218977.6414   23218966.1914
        46.0004         31.5004
  -1189303.07245  -1084244.53642  25190249.8364   25190239.6764
        35.5004         15.5004
  -1124252.90645   -814244.53643  25414204.1954   25414193.2154
        34.0004         19.2504
 -20459764.22247 -15832153.06246  21738385.5394   21738374.0314
        47.5004         39.0004
 -25145914.53048 -19578662.15047  20487199.5474   20487189.2114
        53.0004         47.5004
 -14179642.74148 -12842700.88346  21609765.6254   21609753.6484
        49.2504         41.0004
      -296.38346  -1031641.15343  24617490.9924   24617479.9534
        40.5004         23.2504
     -7650.63246     -4783.54543  25829633.1024   25829622.2974
        41.2504         22.5004
 -22930078.18148 -17859350.98647  21017939.6644   21017927.9224
        52.2504         45.5004
 -12225287.69347  -9500961.23444  23414920.6644   23414909.9184
        45.0004         29.2504
  -2932113.21446  -2254576.63743  24890165.9064   24890153.9884
        40.7504         18.5004
  -3227259.14846  -2500068.06243  24540628.4384   24540619.2734
        37.0004         22.0004
 07  3 30  0  1 21.0000000  0 12G22G 5G23G14G 1G11G19G12G31G20G30G25
 -11107276.42647  -8636737.93545  23219430.8754   23219419.3674
        45.7504         32.0004
  -1189468.92945  -1084373.76742  25190218.5634   25190207.9924
        34.7504         14.7504
  -1127292.58045   -816613.12343  25413625.8364   25413614.7384
        35.0004         19.0004
 -20457492.08247 -15830382.56346  21738817.8524   21738806.1684
        47.5004         39.2504
 -25145973.63648 -19578708.20647  20487188.2424   20487177.8484
        52.7504         47.5004
 -14180410.78148 -12843299.35746  21609619.6254   21609607.7074
        49.2504         41.0004
      2529.78046  -1029438.93944  24618029.1484   24618017.5824
        41.0004         24.7504
     -7717.11746     -4835.32343  25829621.3754   25829609.8674
        40.7504         22.7504
 -22931513.92148 -17860469.74247  21017666.3984   21017654.7154
        52.5004         45.5004
 -12228137.25747  -9503181.67744  23414378.3524   23414367.6054
        45.0004         28.7504
  -2933493.55646  -2255652.21743  24889902.6644   24889891.7424
        40.2504         19.0004
  -3230987.80646  -2502973.50143  24539919.5784   24539910.0044
        37.0004         22.0004
 07  3 30  0  1 22.0000000  0 12G22G 5G23G14G 1G11G19G12G31G20G30G25
 -11104893.72947  -8634881.28545  23219884.2274   23219873.1294
        46.2504         31.7504
  -1189634.20545  -1084502.55942  25190187.1174   25190176.3134
        34.0004         14.7504
  -1130332.15045   -818981.63143  25413047.7344   25413035.9344
        34.7504         19.0004
 -20455219.74847 -15828611.91346  21739250.0554   21739239.0164
        47.5004         39.2504
 -25146032.34648 -19578753.95147  20487177.1484   20487166.8714
        53.0004         47.5004
 -14181178.19848 -12843897.34446  21609473.5784   21609462.2464
        49.5004         41.2504
      5356.02046  -1027236.67243  24618567.3054   24618554.9774
        40.5004         23.0004
     -7783.12046     -4886.76343  25829608.2974   25829597.3754
        41.0004         22.5004
 -22932949.07248 -17861588.04247  21017393.2424   21017381.9104
        52.0004         45.5004
 -12230986.78047  -9505402.08344  23413836.5554   23413825.5744
        45.5004         28.7504
  -2934873.45746  -2256727.45043  24889640.8674   24889629.7114
        40.5004         19.0004
  -3234716.46246  -2505878.94243  24539208.9454   24539200.3094
        37.5004         22.2504
 07  3 30  0  1 23.0000000  0 12G22G 5G23G14G 1G11G19G12G31G20G30G25
 -11102510.92047  -8633024.55245  23220337.6724   23220326.5164
        46.5004         32.0004
  -1189799.00745  -1084630.95242  25190154.3594   25190145.7234
        34.0004         14.7504
  -1133371.70245   -821350.10243  25412469.6644   25412457.8054
        34.0004         19.0004
 -20452947.31547 -15826841.18446  21739682.8134   21739671.3054
        47.7504         39.0004
 -25146090.76148 -19578799.46847  20487165.9144   20487155.5204
        52.7504         47.5004
 -14181945.11748 -12844494.94046  21609327.8364   21609316.0354
        49.7504         41.0004
      8182.14946  -1025034.49443  24619105.2034   24619092.9344
        40.7504         22.2504
     -7848.62446     -4937.79743  25829595.1724   25829584.7774
        40.5004         22.5004
 -22934383.70248 -17862705.93447  21017120.1564   21017108.8834
        52.5004         45.5004
 -12233836.35147  -9507622.52244  23413294.4694   23413283.1374
        44.7504         29.0004
  -2936252.99746  -2257802.41743  24889377.5784   24889366.9494
        40.5004         19.0004
  -3238445.12746  -2508784.38243  24538499.8134   24538490.8244
        37.5004         22.5004
 07  3 30  0  1 24.0000000  0 12G22G 5G23G14G 1G11G19G12G31G20G30G25
 -11100127.84147  -8631167.60945  23220791.1254   23220780.0864
        46.5004         31.5004
  -1189963.23645  -1084758.92342  25190122.7814   25190114.1454
        33.0004         15.5004
  -1136411.10345   -823718.45343  25411890.6884   25411879.7074
        34.5004         19.0004
 -20450674.60247 -15825070.23746  21740115.0164   21740103.4494
        47.5004         39.0004
 -25146148.67848 -19578844.59647  20487155.0784   20487144.4494
        52.7504         47.7504
 -14182711.35048 -12845092.00946  21609181.6884   21609170.1804
        49.7504         40.7504
     11008.34646  -1022832.25843  24619642.9924   24619631.0164
        40.7504         22.7504
     -7913.56146     -4988.40143  25829583.4534   25829572.4144
        40.5004         22.7504
 -22935817.64248 -17863823.28947  21016847.3984   21016836.0664
        52.5004         45.5004
 -12236685.76547  -9509842.83044  23412751.6724   23412740.9264
        45.0004         29.0004
  -2937631.99246  -2258876.95243  24889115.3914   24889104.4694
        40.5004         19.2504
  -3242173.58446  -2511689.66243  24537790.1954   24537781.3244
        37.2504         21.7504
 07  3 30  0  1 25.0000000  0 12G22G 5G23G14G 1G11G19G12G31G20G30G25
 -11097744.60847  -8629310.55345  23221244.7894   23221233.5164
        46.5004         32.0004
  -1190126.83645  -1084886.37142  25190090.4064   25190083.0004
        31.5004         15.5004
  -1139450.40745   -826086.73343  25411312.1884   25411300.9734
        34.5004         18.5004
 -20448401.71047 -15823299.15046  21740547.5084   21740535.5904
        47.2504         39.0004
 -25146206.21948 -19578889.43947  20487144.1174   20487133.6644
        53.0004         47.5004
 -14183477.00148 -12845688.61846  21609036.0474   21609024.4224
        49.5004         41.0004
     13834.54046  -1020630.02243  24620180.9694   24620168.7584
        40.5004         22.2504
     -7978.00146     -5038.62643  25829571.2584   25829560.2774
        41.2504         22.7504
 -22937251.00548 -17864940.19447  21016574.8284   21016562.9104
        52.5004         45.5004
 -12239535.15947  -9512063.12644  23412210.0164   23412198.5084
        45.2504         29.5004
  -2939010.59346  -2259951.19743  24888853.6094   24888841.7504
        40.2504         19.2504
  -3245902.05246  -2514594.94343  24537080.9454   24537072.1334
        37.0004         21.7504
 07  3 30  0  1 26.0000000  0 12G22G 5G23G14G 1G11G19G12G31G20G30G25
 -11095361.10247  -8627453.28045  23221698.7344   23221686.6414
        46.5004         32.0004
  -1190289.85845  -1085013.43442  25190059.8914   25190051.4884
        32.5004         15.5004
  -1142489.50845   -828454.84043  25410733.6804   25410722.8164
        34.5004         18.5004
 -20446128.56347 -15821527.86946  21740980.2734   21740968.6484
        47.7504         39.2504
 -25146263.32748 -19578933.93947  20487133.4534   20487123.2344
        52.5004         47.0004
 -14184242.01248 -12846284.73246  21608890.8444   21608878.9844
        49.7504         41.0004
     16660.80046  -1018427.73743  24620718.7894   24620706.6374
        40.7504         22.5004
     -8041.85946     -5088.38143  25829558.9694   25829548.1054
        41.7504         22.7504
 -22938683.70748 -17866056.58247  21016302.0474   21016290.6564
        52.5004         45.5004
 -12242384.43147  -9514283.34244  23411668.1414   23411656.2234
        45.0004         29.0004
  -2940388.67746  -2261025.03343  24888591.7814   24888580.2734
        40.2504         19.2504
  -3249630.37546  -2517500.12843  24536370.8524   24536362.4494
        36.7504         21.5004
 07  3 30  0  1 27.0000000  0 12G22G 5G23G14G 1G11G19G12G31G20G30G25
 -11092977.29947  -8625595.77645  23222152.5864   23222140.5514
        46.5004         32.0004
  -1190452.23545  -1085139.94242  25190030.1094   25190020.8874
        32.2504         15.5004
  -1145528.35845   -830822.78643  25410155.2114   25410144.6994
        33.5004         18.2504
 -20443855.11947 -15819756.36146  21741412.7344   21741401.1684
        47.2504         39.0004
 -25146319.91548 -19578978.03347  20487122.4694   20487111.7234
        52.7504         47.2504
 -14185006.31448 -12846880.29146  21608744.9614   21608733.3954
        49.2504         41.2504
     19487.17046  -1016225.36643  24621255.7584   24621244.2504
        40.5004         22.7504
     -8105.04846     -5137.60843  25829547.0864   25829536.3404
        41.7504         22.5004
 -22940115.71648 -17867172.43447  21016029.5394   21016017.7974
        52.7504         45.5004
 -12245233.52747  -9516503.41344  23411125.4694   23411113.7854
        45.5004         28.7504
  -2941766.21446  -2262098.41343  24888328.6724   24888317.9844
        40.2504         19.0004
  -3253358.60446  -2520405.23443  24535662.1804   24535652.7234
        37.0004         22.0004
 07  3 30  0  1 28.0000000  0 12G22G 5G23G14G 1G11G19G12G31G20G30G25
 -11090593.59947  -8623738.34845  23222606.7734   23222593.9144
        46.5004         31.7504
  -1190614.27045  -1085266.18342  25189998.2504   25189989.7894
        32.2504         15.5004
  -1148567.38645   -833190.85542  25409576.8984   25409566.3284
        35.0004         17.7504
 -20441581.75947 -15817984.91046  21741845.3444   21741833.9534
        47.5004         39.2504
 -25146376.40348 -19579022.04747  20487111.5944   20487101.1414
        52.5004         47.2504
 -14185770.30648 -12847475.60646  21608599.7034   21608588.1954
        49.5004         41.0004
     22313.24446  -1014023.22343  24621793.3834   24621781.9344
        41.0004         22.7504
     -8168.02846     -5186.67743  25829534.8754   25829524.1294
        41.5004         22.5004
 -22941547.37348 -17868288.01147  21015757.1724   21015745.5474
        53.0004         45.5004
 -12248082.89147  -9518723.69844  23410583.1724   23410571.4304
        45.5004         28.7504
  -2943143.58646  -2263171.67343  24888066.7814   24888055.8014
        39.7504         19.2504
  -3257087.00046  -2523310.47143  24534953.0164   24534943.1484
        37.0004         22.0004
 07  3 30  0  1 29.0000000  0 12G22G 5G23G14G 1G11G19G12G31G20G30G25
 -11088209.65547  -8621880.73145  23223059.9924   23223047.4884
        46.0004         32.2504
  -1190775.75645  -1085392.08942  25189968.1174   25189959.1884
        32.2504         14.7504
  -1151606.32245   -835558.84442  25408999.0554   25408988.1914
        35.0004         17.7504
 -20439308.15147 -15816213.27346  21742278.1884   21742266.9144
        47.7504         39.2504
 -25146432.44448 -19579065.71547  20487101.0234   20487090.5124
        52.0004         47.2504
 -14186533.65648 -12848070.42646  21608454.5164   21608443.0084
        50.0004         41.0004
     25139.38746  -1011821.04743  24622331.4534   24622319.7114
        40.0004         22.5004
     -8230.42947     -5235.30543  25829522.9304   25829512.6524
        42.2504         23.0004
 -22942978.41448 -17869403.10847  21015484.7814   21015473.0984
        53.0004         45.5004
 -12250932.13247  -9520943.89344  23410040.9614   23410029.6884
        45.0004         29.0004
  -2944520.47946  -2264244.56043  24887805.4144   24887794.0824
        39.0004         19.5004
  -3260815.30746  -2526215.65243  24534242.4924   24534233.6804
        37.0004         22.0004
 07  3 30  0  1 30.0000000  0 12G22G 5G23G14G 1G11G19G12G31G20G30G25
 -11085825.42447  -8620022.88245  23223513.4614   23223501.4264
        46.5004         32.0004
  -1190936.58445  -1085517.41642  25189936.8444   25189929.0274
        33.5004         14.7504
  -1154644.96745   -837926.62043  25408420.2894   25408410.0704
        35.2504         18.5004
 -20437034.26447 -15814441.41246  21742710.6334   21742699.5354
        47.2504         39.0004
 -25146487.98348 -19579108.99247  20487090.5704   20487079.8834
        52.0004         47.0004
 -14187296.30548 -12848664.69546  21608309.4774   21608297.5594
        49.2504         40.7504
     27965.62246  -1009618.78743  24622869.2194   24622857.6524
        40.0004         22.5004
     -8292.19046     -5283.44543  25829511.1804   25829500.4924
        41.7504         22.5004
 -22944408.75848 -17870517.65847  21015212.8754   21015201.1334
        53.2504         45.5004
 -12253781.22247  -9523163.97444  23409498.8594   23409487.4694
        44.5004         29.2504
  -2945896.81546  -2265317.02843  24887543.1564   24887532.0004
        40.0004         20.0004
  -3264543.49146  -2529120.73743  24533532.8594   24533524.1644
        37.2504         22.0004
 07  3 30  0  1 31.0000000  0 12G22G 5G23G14G 1G11G19G12G31G20G30G25
 -11083441.00947  -8618164.89345  23223967.1644   23223954.7194
        46.7504         32.0004
  -1191096.86845  -1085642.26042  25189906.3984   25189898.0554
        33.5004         15.5004
  -1157683.61945   -840294.41343  25407842.0864   25407831.9844
        34.7504         18.2504
 -20434760.18447 -15812669.39646  21743143.5634   21743132.5824
        47.7504         39.0004
 -25146543.14248 -19579151.97647  20487079.9774   20487069.5234
        51.7504         47.2504
 -14188058.35848 -12849258.50746  21608164.2974   21608152.7894
        50.0004         40.5004
     30791.84346  -1007416.55243  24623406.8134   24623395.7154
        39.2504         22.5004
     -8353.44747     -5331.16743  25829499.6884   25829488.8244
        42.5004         22.0004
 -22945838.49948 -17871631.74047  21014940.6334   21014929.0084
        53.0004         45.5004
 -12256630.27247  -9525384.01044  23408957.0474   23408945.0124
        44.2504         28.7504
  -2947272.71646  -2266389.16843  24887281.5704   24887270.1214
        39.7504         19.7504
  -3268271.56946  -2532025.72143  24532823.3984   24532815.2894
        37.2504         22.0004
 07  3 30  0  1 32.0000000  0 12G22G 5G23G14G 1G11G19G12G31G20G30G25
 -11081056.50547  -8616306.83845  23224420.8984   23224408.3954
        46.5004         31.5004
  -1191256.62745  -1085766.79142  25189875.8284   25189867.9534
        34.0004         14.7504
  -1160722.17145   -842662.13343  25407264.9144   25407253.6994
        35.0004         19.2504
 -20432486.00247 -15810897.30546  21743576.3134   21743564.8634
        47.2504         39.0004
 -25146598.00248 -19579194.71847  20487069.6414   20487059.3054
        51.5004         47.2504
 -14188819.91448 -12849851.92946  21608019.2814   21608007.5984
        50.0004         40.5004
     33617.99946  -1005214.36043  24623944.5864   24623933.4884
        39.5004         22.0004
     -8414.23347     -5378.53843  25829487.6414   25829477.2464
        42.2504         22.2504
 -22947267.73948 -17872745.42847  21014668.6644   21014656.9224
        53.0004         45.5004
 -12259479.36047  -9527604.07744  23408414.2424   23408402.7934
        44.2504         28.5004
  -2948648.26046  -2267461.02843  24887018.9144   24887008.8714
        39.2504         19.7504
  -3271999.71546  -2534930.75743  24532114.5394   24532105.6094
        38.2504         21.7504
 07  3 30  0  1 33.0000000  0 12G22G 5G23G14G 1G11G19G12G31G20G30G25
 -11078671.76647  -8614448.60745  23224875.2344   23224862.3164
        47.0004         31.7504
  -1191415.83745  -1085890.84642  25189845.6174   25189837.0984
        34.0004         14.7504
  -1163760.62845   -845029.74643  25406686.3204   25406675.8094
        35.0004         20.0004
 -20430211.61747 -15809125.05946  21744009.1884   21743997.5044
        47.2504         39.0004
 -25146652.45548 -19579237.15147  20487059.2034   20487049.1024
        51.5004         47.2504
 -14189580.85948 -12850444.87446  21607874.1644   21607863.1254
        49.2504         40.7504
     36444.15646  -1003012.16543  24624482.5704   24624471.2384
        39.5004         22.0004
     -8474.56846     -5425.56943  25829476.5474   25829465.9184
        41.2504         21.7504
 -22948696.35948 -17873858.64747  21014396.8834   21014385.4344
        52.2504         45.5004
 -12262328.38747  -9529824.09344  23407872.5944   23407860.5594
        44.5004         29.2504
  -2950023.37746  -2268532.55143  24886757.6254   24886747.2894
        39.7504         19.7504
  -3275727.75046  -2537835.71943  24531405.5004   24531396.5124
        37.5004         22.0004
 07  3 30  0  1 34.0000000  0 12G22G 5G23G14G 1G11G19G12G31G20G30G25
 -11076286.82647  -8612590.21745  23225329.0704   23225316.2114
        46.5004         31.5004
  -1191574.45745  -1086014.50742  25189815.0474   25189806.9384
        34.7504         14.7504
  -1166798.95545   -847397.25643  25406107.8914   25406097.2624
        35.7504         20.0004
 -20427936.99447 -15807352.62646  21744442.0944   21744430.7034
        47.5004         39.0004
 -25146706.45748 -19579279.23047  20487048.9304   20487038.1844
        51.5004         47.5004
 -14190341.16248 -12851037.31346  21607729.7034   21607718.6054
        49.2504         40.7504
     39270.35446  -1000809.93943  24625019.9144   24625009.2854
        39.5004         22.0004
     -8534.27746     -5472.08643  25829464.7344   25829454.8674
        41.5004         21.5004
 -22950124.33848 -17874971.35547  21014125.1884   21014113.5634
        52.5004         45.2504
 -12265177.31947  -9532044.04744  23407329.8364   23407318.9734
        44.5004         28.5004
  -2951397.97346  -2269603.65043  24886495.8204   24886485.6604
        40.0004         19.7504
  -3279455.72646  -2540740.62743  24530696.1564   24530686.9344
        37.0004         22.0004
 07  3 30  0  1 35.0000000  0 12G22G 5G23G14G 1G11G19G12G31G20G30G25
 -11073901.67947  -8610731.66045  23225783.6484   23225770.0274
        46.2504         31.5004
  -1191732.49345  -1086137.66642  25189786.1334   25189777.2034
        33.5004         15.5004
  -1169837.07845   -849764.62243  25405530.0084   25405519.2034
        35.7504         20.7504
 -20425662.17148 -15805580.03546  21744875.1644   21744863.5394
        48.0004         39.0004
 -25146760.07548 -19579321.01447  20487038.7424   20487027.9964
        51.7504         47.2504
 -14191100.86748 -12851629.29646  21607585.1024   21607573.8874
        49.7504         40.7504
     42096.55246   -998607.71443  24625558.1954   24625547.0984
        39.5004         22.2504
     -8593.48246     -5518.21843  25829453.3594   25829443.4344
        40.5004         22.0004
 -22951551.71948 -17876083.59647  21013853.3284   21013841.9384
        52.2504         45.5004
 -12268026.18447  -9534263.93344  23406787.7974   23406776.5234
        45.0004         28.7504
  -2952772.13946  -2270674.41543  24886235.0004   24886224.6054
        40.0004         20.0004
  -3283183.60746  -2543645.46943  24529986.3284   24529977.6914
        38.0004         21.7504
 07  3 30  0  1 36.0000000  0 12G22G 5G23G14G 1G11G19G12G31G20G30G25
 -11071516.42547  -8608873.02145  23226236.8284   23226224.2074
        46.2504         32.0004
  -1191890.10845  -1086260.43342  25189756.6564   25189746.8484
        33.5004         15.5004
  -1172875.29546   -852132.06943  25404952.6414   25404941.0744
        36.5004         20.5004
 -20423387.24248 -15803807.36446  21745307.4144   21745296.3164
        48.0004         39.2504
 -25146813.37048 -19579362.54347  20487028.6094   20487018.3914
        51.7504         47.2504
 -14191860.06348 -12852220.87646  21607440.8594   21607429.5274
        50.0004         40.7504
     44922.66546   -996405.57543  24626096.0474   24626085.1844
        40.0004         22.2504
     -8652.26446     -5564.02443  25829441.8674   25829432.5274
        40.7504         22.5004
 -22952978.58848 -17877195.44247  21013581.6094   21013570.2194
        52.0004         45.2504
 -12270875.11247  -9536483.87644  23406246.2974   23406234.9654
        45.0004         29.0004
  -2954145.92246  -2271744.89343  24885972.9064   24885962.6884
        38.7504         19.7504
  -3286911.52746  -2546550.34343  24529277.2734   24529267.9344
        37.5004         21.5004
 07  3 30  0  1 37.0000000  0 12G22G 5G23G14G 1G11G19G12G31G20G30G25
 -11069130.87947  -8607014.14645  23226690.6174   23226678.2304
        46.0004         31.5004
  -1192047.03045  -1086382.69542  25189726.6254   25189716.8164
        33.5004         14.7504
  -1175913.25746   -854499.30443  25404375.9144   25404362.9384
        37.5004         21.2504
 -20421112.03547 -15802034.47346  21745740.9614   21745729.3364
        47.5004         38.7504
 -25146866.19148 -19579403.69647  20487018.6094   20487008.0984
        51.5004         47.2504
 -14192618.56048 -12852811.90746  21607296.3834   21607285.0514
        49.2504         41.0004
     47748.87246   -994203.32443  24626633.9694   24626623.2234
        40.0004         22.5004
     -8710.44546     -5609.36843  25829431.0004   25829421.1334
        40.7504         22.5004
 -22954404.76448 -17878306.74747  21013310.5554   21013298.7544
        52.5004         45.5004
 -12273723.87947  -9538703.69344  23405703.9924   23405692.4844
        44.2504         28.5004
  -2955519.17746  -2272814.97243  24885711.3914   24885701.6414
        39.0004         19.5004
  -3290639.32546  -2549455.11343  24528567.3834   24528558.3364
        37.7504         21.7504
 07  3 30  0  1 38.0000000  0 12G22G 5G23G14G 1G11G19G12G31G20G30G25
 -11066745.12547  -8605155.11245  23227144.4384   23227131.8164
        45.2504         31.7504
  -1192203.39045  -1086504.52842  25189696.3364   25189687.3484
        33.7504         15.5004
  -1178951.05946   -856866.41643  25403797.8594   25403784.7074
        38.2504         21.5004
 -20418836.60948 -15800261.42046  21746174.1954   21746162.0434
        48.0004         38.5004
 -25146918.58248 -19579444.52547  20487008.6884   20486998.2344
        51.7504         47.5004
 -14193376.43248 -12853402.46446  21607152.2344   21607140.5514
        49.5004         41.0004
     50575.09846   -992001.06843  24627172.0864   24627160.3444
        40.0004         22.5004
     -8768.06246     -5654.26443  25829420.6254   25829409.9964
        41.2504         22.7504
 -22955830.32848 -17879417.57647  21013039.0944   21013027.4694
        52.2504         45.2504
 -12276572.55247  -9540923.44144  23405161.8284   23405150.4384
        44.0004         29.0004
  -2956891.97846  -2273884.68043  24885449.5394   24885440.5514
        38.5004         19.7504
  -3294366.94746  -2552359.82243  24527858.5234   24527849.1254
        38.5004         21.5004
 07  3 30  0  1 39.0000000  0 12G22G 5G23G14G 1G11G19G12G31G20G30G25
 -11064359.15747  -8603295.91845  23227598.2504   23227585.6294
        45.2504         31.7504
  -1192359.18945  -1086625.89042  25189666.4534   25189657.4064
        35.0004         15.5004
  -1181988.73746   -859233.44543  25403220.0164   25403207.1564
        37.7504         22.0004
 -20416560.94247 -15798488.16346  21746606.9224   21746595.5314
        47.7504         39.0004
 -25146970.55648 -19579485.02447  20486998.7194   20486988.2664
        51.5004         47.2504
 -14194133.68448 -12853992.52446  21607007.9534   21606996.6804
        49.5004         41.0004
     53401.37946   -989798.76543  24627710.3054   24627698.7974
        40.0004         23.0004
     -8825.14246     -5698.75043  25829409.4534   25829399.3524
        41.2504         22.7504
 -22957255.23648 -17880527.89147  21012767.9614   21012756.3954
        52.5004         45.2504
 -12279421.14447  -9543143.11644  23404619.5314   23404608.4924
        44.0004         29.5004
  -2958264.28846  -2274954.01943  24885187.8984   24885179.4384
        37.7504         19.5004
  -3298094.59446  -2555264.41543  24527149.1484   24527139.5164
        38.2504         21.5004
 07  3 30  0  1 40.0000000  0 12G22G 5G23G14G 1G11G19G12G31G20G30G25
 -11061973.20547  -8601436.73245  23228052.6954   23228040.0164
        45.5004         31.7504
  -1192514.63145  -1086746.99742  25189636.6484   25189627.7194
        34.5004         15.5004
  -1185026.52446   -861600.55743  25402641.3524   25402629.1414
        38.2504         22.0004
 -20414285.29547 -15796714.93446  21747040.0234   21747028.4574
        47.2504         39.0004
 -25147022.34248 -19579525.37647  20486988.8594   20486978.0554
        51.5004         47.0004
 -14194890.55248 -12854582.29546  21606863.7894   21606852.9264
        49.0004         41.0004
     56227.38646   -987596.67243  24628247.2194   24628236.3554
        40.0004         23.0004
     -8881.89746     -5742.99843  25829398.0944   25829388.2274
        40.7504         22.5004
 -22958679.78048 -17881637.92447  21012497.0164   21012485.1564
        53.0004         45.5004
 -12282269.92747  -9545362.94244  23404077.6724   23404066.1054
        44.2504         29.0004
  -2959636.35646  -2276023.14943  24884927.6724   24884917.8634
        38.2504         19.2504
  -3301822.38946  -2558169.19043  24526440.0164   24526430.1484
        38.0004         21.5004
 07  3 30  0  1 41.0000000  0 12G22G 5G23G14G 1G11G19G12G31G20G30G25
 -11059586.89547  -8599577.27145  23228507.0864   23228494.2274
        45.5004         31.5004
  -1192669.31045  -1086867.52142  25189607.0164   25189598.1454
        33.0004         16.2504
  -1188064.07046   -863967.47643  25402063.6884   25402051.0664
        38.5004         22.0004
 -20412009.29747 -15794941.43846  21747473.1804   21747461.3204
        47.5004         39.0004
 -25147073.58748 -19579565.30747  20486979.1024   20486968.5904
        51.5004         47.5004
 -14195646.65648 -12855171.46846  21606720.2034   21606708.6374
        49.2504         41.0004
     59053.60646   -985394.40343  24628784.5944   24628773.4964
        39.5004         23.5004
     -8937.92746     -5786.65943  25829388.0474   25829377.8874
        41.0004         22.7504
 -22960103.55648 -17882747.36347  21012225.9774   21012214.5274
        53.0004         45.5004
 -12285118.48147  -9547582.59944  23403535.5004   23403524.1684
        44.0004         28.0004
  -2961007.79746  -2277091.81843  24884666.4844   24884657.3794
        38.0004         19.2504
  -3305549.90846  -2561073.75843  24525730.6954   24525720.7114
        38.0004         21.0004
 07  3 30  0  1 42.0000000  0 12G22G 5G23G14G 1G11G19G12G31G20G30G25
 -11057200.53947  -8597717.77745  23228960.7814   23228948.4534
        45.5004         32.0004
  -1192823.60745  -1086987.75842  25189577.7894   25189568.9774
        33.7504         15.5004
  -1191101.61046   -866334.38243  25401485.0164   25401472.7464
        38.0004         22.5004
 -20409733.23448 -15793167.87846  21747906.3984   21747894.4224
        48.0004         39.2504
 -25147124.56048 -19579605.02547  20486969.6024   20486959.2664
        51.7504         47.2504
 -14196402.30948 -12855760.28746  21606576.0164   21606564.8594
        49.7504         41.0004
     61879.67746   -983192.27643  24629322.9144   24629311.0554
        39.7504         22.5004
     -8993.62746     -5830.05643  25829376.9924   25829367.2424
        41.0004         22.5004
 -22961526.86248 -17883856.42447  21011955.2504   21011943.8594
        53.0004         45.5004
 -12287967.11447  -9549802.31744  23402993.2194   23402982.0634
        44.0004         29.0004
  -2962378.94246  -2278160.24743  24884405.3134   24884396.2074
        38.0004         19.0004
  -3309277.55046  -2563978.41343  24525020.8364   24525011.4964
        37.5004         21.5004
 07  3 30  0  1 43.0000000  0 12G22G 5G23G14G 1G11G19G12G31G20G30G25
 -11054813.80847  -8595857.99145  23229414.9454   23229402.7344
        45.0004         32.0004
  -1192977.14245  -1087107.42542  25189549.3134   25189539.6804
        34.0004         15.5004
  -1194138.81846   -868701.03343  25400906.5554   25400895.1644
        37.7504         22.5004
 -20407456.77347 -15791394.01846  21748338.8284   21748327.3204
        47.2504         39.0004
 -25147174.93548 -19579644.27747  20486959.7814   20486949.6214
        51.5004         47.2504
 -14197157.16148 -12856348.48246  21606432.3914   21606421.4694
        49.0004         41.2504
     64705.95846   -980989.98643  24629861.0784   24629849.2774
        39.7504         22.5004
     -9048.57246     -5872.84843  25829366.3444   25829356.7704
        40.7504         23.0004
 -22962949.37048 -17884964.87647  21011684.3204   21011673.0474
        52.7504         45.5004
 -12290815.50647  -9552021.84444  23402451.1804   23402439.9654
        44.2504         29.7504
  -2963749.47046  -2279228.19943  24884144.0474   24884135.6454
        37.7504         19.5004
  -3313004.82046  -2566882.77243  24524311.6954   24524302.0634
        37.7504         21.5004
 07  3 30  0  1 44.0000000  0 12G22G 5G23G14G 1G11G19G12G31G20G30G25
 -11052426.98947  -8593998.13645  23229868.7274   23229856.9264
        45.0004         31.7504
  -1193130.21945  -1087226.69642  25189520.3914   25189510.2894
        33.0004         15.5004
  -1197176.05146   -871067.71143  25400329.3134   25400317.1024
        38.2504         22.5004
 -20405180.25947 -15789620.10846  21748772.2894   21748761.0164
        47.2504         39.0004
 -25147225.05548 -19579683.32947  20486950.2504   20486939.7384
        51.5004         47.2504
 -14197911.55048 -12856936.31946  21606289.1884   21606277.8554
        49.0004         41.2504
     67532.10146   -978787.79543  24630398.7974   24630387.1724
        40.0004         22.5004
     -9103.10946     -5915.34943  25829356.1804   25829346.3714
        40.7504         22.7504
 -22964371.39248 -17886072.94447  21011413.9304   21011402.2464
        53.0004         45.5004
 -12293663.94247  -9554241.40444  23401909.3594   23401898.1454
        44.5004         28.7504
  -2965119.65946  -2280295.86043  24883883.4454   24883875.1604
        37.5004         19.7504
  -3316732.25746  -2569787.26243  24523601.9534   24523592.6724
        37.5004         21.5004
 07  3 30  0  1 45.0000000  0 12G22G 5G23G14G 1G11G19G12G31G20G30G25
 -11050040.00447  -8592138.14145  23230322.7664   23230310.9654
        45.0004         31.5004
  -1193282.81545  -1087345.59942  25189491.3594   25189481.6684
        33.5004         16.2504
  -1200213.19146   -873434.30243  25399751.6334   25399739.1294
        38.0004         22.7504
 -20402903.53547 -15787846.03546  21749205.5314   21749194.0824
        47.5004         39.0004
 -25147274.78048 -19579722.08047  20486940.6644   20486930.4454
        51.2504         47.2504
 -14198665.34648 -12857523.69146  21606145.7424   21606134.3524
        49.0004         41.5004
     70358.23646   -976585.61643  24630935.9774   24630924.7034
        40.2504         22.5004
     -9157.15546     -5957.44043  25829346.3364   25829336.0594
        41.2504         22.5004
 -22965792.84448 -17887180.56647  21011143.4144   21011131.6724
        52.7504         45.5004
 -12296512.36747  -9556460.95644  23401367.3594   23401356.2624
        44.7504         28.7504
  -2966489.36646  -2281363.15143  24883622.8914   24883614.5474
        38.0004         19.2504
  -3320459.62446  -2572691.69743  24522892.5394   24522883.4344
        38.0004         21.5004
 07  3 30  0  1 46.0000000  0 12G22G 5G23G14G 1G11G19G12G31G20G30G25
 -11047652.73647  -8590277.93145  23230777.1884   23230765.2704
        45.0004         32.0004
  -1193434.65745  -1087463.87442  25189461.8364   25189452.8484
        33.2504         16.2504
  -1203250.15846   -875800.76143  25399173.8444   25399161.5164
        38.2504         22.5004
 -20400626.57247 -15786071.78246  21749638.9454   21749627.4964
        47.2504         39.5004
 -25147324.04448 -19579760.46547  20486931.5394   20486921.1454
        51.5004         47.2504
 -14199418.47348 -12858110.54046  21606002.5394   21605991.2664
        49.5004         41.2504
     73184.44146   -974383.37143  24631473.2274   24631462.7154
        40.2504         22.5004
     -9210.56446     -5999.05143  25829336.1804   25829325.9614
        41.5004         22.7504
 -22967213.61248 -17888287.65847  21010872.9844   21010861.4774
        52.5004         45.5004
 -12299360.67947  -9558680.41944  23400825.3134   23400814.0984
        45.5004         29.5004
  -2967858.60246  -2282430.07843  24883362.7274   24883353.8554
        38.0004         19.0004
  -3324186.87246  -2575596.02843  24522183.1644   24522173.6484
        37.0004         21.5004
 07  3 30  0  1 47.0000000  0 12G22G 5G23G14G 1G11G19G12G31G20G30G25
 -11045265.47247  -8588417.72645  23231231.2034   23231219.5204
        45.0004         31.5004
  -1193586.18745  -1087581.93642  25189433.5314   25189424.1914
        33.0004         16.7504
  -1206287.18946   -878167.28043  25398595.4144   25398583.7304
        37.5004         22.7504
 -20398349.59447 -15784297.51146  21750072.3284   21750060.8204
        47.2504         39.0004
 -25147373.09048 -19579798.68247  20486922.0784   20486911.3324
        51.5004         47.2504
 -14200171.16448 -12858697.05146  21605859.0704   21605847.5634
        49.7504         41.0004
     76010.45146   -972181.29143  24632012.2034   24632000.4614
        40.5004         22.7504
     -9263.63746     -6040.41343  25829326.0554   25829315.6024
        41.5004         23.0004
 -22968633.95548 -17889394.41947  21010602.6804   21010591.2894
        52.7504         45.5004
 -12302209.06947  -9560899.93444  23400283.2504   23400272.3284
        45.0004         29.2504
  -2969227.55546  -2283496.80443  24883102.1804   24883093.9534
        39.0004         19.5004
  -3327914.20846  -2578500.44943  24521473.6804   24521464.8094
        37.5004         21.7504
 07  3 30  0  1 48.0000000  0 12G22G 5G23G14G 1G11G19G12G31G20G30G25
 -11042877.70647  -8586557.12945  23231685.9924   23231674.1914
        45.0004         31.7504
  -1193736.84445  -1087699.35042  25189404.0234   25189395.3874
        33.0004         16.2504
  -1209323.76046   -880533.44143  25398017.0864   25398005.4614
        37.2504         23.2504
 -20396072.09347 -15782522.84446  21750505.5314   21750494.0824
        47.5004         39.2504
 -25147421.43048 -19579836.35147  20486913.0864   20486902.0474
        51.2504         47.2504
 -14200922.96548 -12859282.87246  21605716.1174   21605704.7274
        50.0004         41.0004
     78836.79146   -969978.95243  24632549.2504   24632538.3874
        40.0004         23.7504
     -9315.88746     -6081.13744  25829316.2344   25829305.9574
        41.2504         24.7504
 -22970053.39748 -17890500.47547  21010332.3594   21010321.3204
        52.7504         45.5004
 -12305057.13647  -9563119.20944  23399741.6414   23399730.2504
        45.7504         29.0004
  -2970595.77046  -2284562.92643  24882841.9224   24882833.5784
        38.5004         19.7504
  -3331641.21746  -2581404.61143  24520764.8594   24520755.6374
        37.0004         21.5004
 07  3 30  0  1 49.0000000  0 12G22G 5G23G14G 1G11G19G12G31G20G30G25
 -11040490.16147  -8584696.71945  23232140.2734   23232128.5904
        44.7504         32.2504
  -1193887.35045  -1087816.73042  25189374.9774   25189366.6914
        34.0004         16.7504
  -1212360.67746   -882899.86843  25397439.9534   25397427.6844
        38.0004         22.7504
 -20393794.81847 -15780748.33646  21750939.3284   21750927.3524
        47.7504         39.2504
 -25147469.77648 -19579874.02347  20486903.5234   20486892.7774
        51.2504         47.5004
 -14201674.56148 -12859868.52946  21605572.9844   21605561.5354
        50.0004         41.0004
     81662.73546   -967776.92443  24633087.3984   24633076.3594
        40.5004         22.7504
     -9367.99546     -6121.80644  25829306.3914   25829295.7034
        41.5004         25.5004
 -22971472.63848 -17891606.37447  21010062.6094   21010050.7504
        52.7504         45.5004
 -12307905.54147  -9565338.74544  23399199.2584   23399187.9844
        46.0004         29.5004
  -2971963.90946  -2285629.00943  24882581.2734   24882573.1054
        38.0004         19.7504
  -3335368.51746  -2584308.98743  24520056.0554   24520046.1884
        37.5004         21.5004
 07  3 30  0  1 50.0000000  0 12G22G 5G23G14G 1G11G19G12G31G20G30G25
 -11038102.17047  -8582835.94345  23232594.8984   23232582.8634
        45.0004         31.5004
  -1194037.05845  -1087933.40342  25189347.4614   25189338.2974
        34.7504         16.7504
  -1215397.24246   -885266.01544  25396861.9224   25396849.9454
        37.7504         24.2504
 -20391517.10047 -15778973.49746  21751372.9774   21751361.0594
        47.7504         39.0004
 -25147517.50048 -19579911.20947  20486894.4534   20486883.6484
        51.2504         47.2504
 -14202425.30448 -12860453.52346  21605430.2274   21605418.7194
        50.2504         41.2504
     84488.92546   -965574.70343  24633624.8134   24633614.3014
        40.5004         23.0004
     -9419.35146     -6161.72444  25829297.0864   25829286.1054
        41.2504         26.0004
 -22972891.02248 -17892711.61047  21009792.4844   21009781.1524
        52.7504         45.5004
 -12310753.62947  -9567558.02844  23398657.8834   23398646.5514
        45.2504         28.0004
  -2973331.35246  -2286694.55443  24882320.6484   24882313.1254
        38.0004         19.7504
  -3339095.53446  -2587213.14143  24519347.1644   24519337.2384
        37.0004         21.7504
 07  3 30  0  1 51.0000000  0 12G22G 5G23G14G 1G11G19G12G31G20G30G25
 -11035714.02347  -8580975.04745  23233049.6254   23233037.6484
        45.7504         32.0004
  -1194186.20545  -1088049.60942  25189319.2814   25189309.9414
        33.0004         16.7504
  -1218433.67446   -887632.06143  25396283.4534   25396272.1214
        37.7504         23.7504
 -20389239.20747 -15777198.50746  21751806.2114   21751794.1174
        47.5004         39.0004
 -25147564.82248 -19579948.08247  20486885.7664   20486875.3714
        51.2504         47.2504
 -14203175.46648 -12861038.06546  21605287.4774   21605276.0864
        50.0004         41.0004
     87315.08446   -963372.50643  24634162.9534   24634151.7974
        39.7504         23.7504
     -9470.17346     -6201.25644  25829286.5234   25829276.1884
        40.7504         25.2504
 -22974308.84048 -17893816.40247  21009522.9224   21009511.2974
        52.7504         45.5004
 -12313601.70147  -9569777.30944  23398115.1644   23398104.2424
        45.5004         28.5004
  -2974698.40546  -2287759.79543  24882061.3674   24882053.1994
        38.2504         19.7504
  -3342822.52546  -2590117.29743  24518637.8674   24518628.1764
        38.0004         21.5004
 07  3 30  0  1 52.0000000  0 12G22G 5G23G14G 1G11G19G12G31G20G30G25
 -11033325.80247  -8579114.10045  23233503.6954   23233491.6024
        45.7504         32.0004
  -1194335.02345  -1088165.55742  25189290.6884   25189282.0514
        34.5004         16.7504
  -1221470.19646   -889998.17344  25395706.0084   25395694.6764
        38.5004         24.0004
 -20386961.26347 -15775423.48246  21752239.5084   21752227.5904
        47.2504         39.0004
 -25147611.91048 -19579984.77347  20486876.9844   20486866.2974
        51.5004         47.2504
 -14203925.18848 -12861622.26746  21605144.7344   21605133.3444
        49.7504         41.0004
     90141.08346   -961170.43843  24634701.3054   24634690.0314
        40.5004         22.7504
     -9520.63746     -6240.67143  25829276.6484   25829267.0164
        40.7504         23.2504
 -22975726.19148 -17894920.83147  21009253.0704   21009241.6214
        53.0004         45.5004
 -12316449.85347  -9571996.65244  23397573.6094   23397562.2194
        44.7504         28.5004
  -2976065.14246  -2288824.80243  24881801.2194   24881792.8164
        38.2504         19.2504
  -3346549.61446  -2593021.51943  24517928.8674   24517919.1174
        38.0004         21.7504
 07  3 30  0  1 53.0000000  0 12G22G 5G23G14G 1G11G19G12G31G20G30G25
 -11030937.27747  -8577252.90845  23233957.7974   23233946.1134
        45.0004         32.0004
  -1194483.03045  -1088280.83842  25189263.4534   25189253.7034
        34.5004         16.2504
  -1224506.44946   -892364.07243  25395128.1414   25395116.9264
        37.7504         22.7504
 -20384682.99647 -15773648.20946  21752673.1094   21752661.4264
        47.5004         39.5004
 -25147658.47948 -19580021.06647  20486867.6484   20486857.2544
        51.5004         47.2504
 -14204674.15948 -12862205.87646  21605002.3754   21604990.5744
        50.0004         41.2504
     92967.24946   -958968.22743  24635239.0004   24635227.9614
        39.7504         22.7504
     -9570.41646     -6279.48044  25829268.1644   25829256.9494
        41.0004         24.5004
 -22977142.80348 -17896024.68647  21008983.7424   21008972.2934
        53.0004         45.5004
 -12319297.81347  -9574215.83644  23397031.4454   23397020.5824
        44.5004         28.5004
  -2977431.32846  -2289889.34943  24881540.8674   24881533.0514
        38.2504         19.0004
  -3350276.48846  -2595925.57043  24517219.3134   24517209.8554
        38.2504         22.0004
 07  3 30  0  1 54.0000000  0 12G22G 5G23G14G 1G11G19G12G31G20G30G25
 -11028548.42347  -8575391.47145  23234413.2344   23234401.0824
        45.5004         31.0004
  -1194630.38045  -1088395.60842  25189234.9454   25189225.8984
        35.2504         16.2504
  -1227542.50346   -894729.82343  25394550.2114   25394539.3484
        37.0004         22.5004
 -20382404.43947 -15771872.71346  21753106.7584   21753094.8984
        47.7504         39.2504
 -25147704.52448 -19580056.94147  20486859.0554   20486848.3674
        51.2504         47.0004
 -14205422.40848 -12862788.92846  21604859.9064   21604848.4574
        50.2504         41.2504
     95793.48546   -956765.98143  24635776.2114   24635765.4064
        40.0004         23.0004
     -9619.61446     -6317.80143  25829258.1644   25829247.6524
        41.0004         22.5004
 -22978558.72748 -17897128.00347  21008714.0474   21008702.5394
        53.0004         45.5004
 -12322145.61747  -9576434.90744  23396488.9534   23396478.2664
        44.5004         27.5004
  -2978796.88646  -2290953.40043  24881280.0394   24881273.3954
        37.7504         19.2504
  -3354003.17546  -2598829.49343  24516510.0164   24516500.9694
        37.5004         21.7504
 07  3 30  0  1 55.0000000  0 12G22G 5G23G14G 1G11G19G12G31G20G30G25
 -11026159.78947  -8573530.20245  23234867.5784   23234855.3674
        45.7504         31.7504
  -1194777.60145  -1088510.28942  25189206.1094   25189197.9414
        35.2504         16.2504
  -1230578.72946   -897095.71543  25393972.3594   25393961.1454
        36.2504         22.5004
 -20380126.04347 -15770097.34646  21753539.7894   21753528.5164
        47.2504         39.0004
 -25147750.57048 -19580092.82147  20486850.2814   20486839.7704
        51.7504         47.2504
 -14206170.46548 -12863371.83546  21604717.2814   21604706.0084
        49.7504         41.0004
     98619.39346   -954563.96544  24636314.2664   24636303.2274
        39.7504         24.2504
     -9668.61346     -6355.99343  25829249.2894   25829238.4264
        39.7504         22.5004
 -22979974.39148 -17898231.11747  21008444.5474   21008433.3324
        53.0004         45.2504
 -12324993.74947  -9578654.22544  23395947.4694   23395936.3714
        44.0004         28.5004
  -2980162.41646  -2292017.45643  24881021.2344   24881012.8914
        38.5004         19.5004
  -3357730.17146  -2601733.63543  24515800.3054   24515791.6094
        37.7504         22.2504
 07  3 30  0  1 56.0000000  0 12G22G 5G23G14G 1G11G19G12G31G20G30G25
 -11023770.45747  -8571668.38945  23235322.1024   23235309.8324
        46.0004         32.0004
  -1194923.75445  -1088624.20342  25189178.9844   25189169.7624
        35.7504         15.5004
  -1233614.46446   -899461.21943  25393393.8594   25393383.8164
        36.7504         22.2504
 -20377847.00447 -15768321.47046  21753973.9774   21753962.5274
        47.5004         39.5004
 -25147795.75048 -19580128.03247  20486841.3754   20486830.8054
        52.0004         47.0004
 -14206917.45048 -12863953.89746  21604575.2274   21604563.7774
        50.0004         41.0004
    101445.69446   -952361.63744  24636851.3834   24636841.3984
        38.7504         24.2504
     -9716.66046     -6393.43843  25829240.7344   25829229.4614
        40.2504         22.7504
 -22981389.02048 -17899333.42247  21008175.1564   21008164.0004
        53.0004         45.5004
 -12327841.37947  -9580873.15544  23395405.5394   23395394.0904
        43.5004         28.0004
  -2981527.06146  -2293080.79643  24880761.6024   24880753.4344
        38.5004         19.7504
  -3361456.64146  -2604637.36243  24515091.3444   24515082.1804
        38.5004         22.0004
 07  3 30  0  1 57.0000000  0 12G22G 5G23G14G 1G11G19G12G31G20G30G25
 -11021381.37947  -8569806.77845  23235776.4774   23235764.6764
        46.0004         31.5004
  -1195069.78645  -1088738.04242  25189150.7344   25189142.2154
        35.0004         14.7504
  -1236650.47345   -901826.93743  25392815.8594   25392805.7584
        35.5004         22.5004
 -20375568.18847 -15766545.77046  21754407.7114   21754396.0274
        47.5004         39.2504
 -25147840.95848 -19580163.25347  20486832.9844   20486821.9454
        51.5004         47.2504
 -14207664.25648 -12864535.82646  21604433.3134   21604421.3364
        50.2504         41.0004
    104271.62746   -950159.60843  24637388.6414   24637378.8324
        39.0004         22.5004
     -9764.56346     -6430.73443  25829230.9614   25829219.8054
        40.7504         22.5004
 -22982803.45948 -17900435.57847  21007906.1644   21007894.5984
        53.0004         45.5004
 -12330689.34947  -9583092.34944  23394863.2584   23394852.3954
        43.5004         27.5004
  -2982891.65646  -2294144.10343  24880501.8054   24880494.1054
        38.2504         19.7504
  -3365183.49046  -2607541.40143  24514382.1804   24514373.0164
        38.5004         22.0004
 07  3 30  0  1 58.0000000  0 12G22G 5G23G14G 1G11G19G12G31G20G30G25
 -11018991.83747  -8567944.80045  23236231.0784   23236219.4534
        46.0004         32.0004
  -1195215.07646  -1088851.29542  25189123.8284   25189114.5474
        36.0004         15.5004
  -1239686.17046   -904192.41443  25392239.0634   25392228.7274
        37.0004         22.7504
 -20373288.92348 -15764769.72246  21754841.1804   21754829.7894
        48.0004         39.2504
 -25147885.51448 -19580197.97147  20486824.6414   20486813.7194
        51.7504         47.2504
 -14208410.21448 -12865117.09146  21604291.0634   21604279.5554
        50.5004         41.0004
    107097.84146   -947957.37343  24637926.8754   24637916.5984
        39.7504         22.2504
     -9811.72146     -6467.49943  25829222.1804   25829211.2584
        40.5004         22.2504
 -22984217.04648 -17901537.07747  21007637.1724   21007625.6644
        53.2504         45.5004
 -12333537.01847  -9585311.30644  23394321.3284   23394310.2894
        44.0004         27.2504
  -2984255.55246  -2295206.88843  24880242.8834   24880234.4804
        38.5004         19.7504
  -3368910.03146  -2610445.20543  24513673.4304   24513663.9734
        38.2504         21.7504
 07  3 30  0  1 59.0000000  0 12G22G 5G23G14G 1G11G19G12G31G20G30G25
 -11016602.24847  -8566082.78445  23236686.4774   23236674.6174
        46.0004         31.7504
  -1195359.88345  -1088964.07542  25189097.3134   25189087.0354
        35.2504         16.2504
  -1242721.82946   -906557.85143  25391661.4304   25391650.8594
        36.5004         22.7504
 -20371009.60847 -15762993.63146  21755275.0474   21755263.5394
        47.2504         39.2504
 -25147929.82448 -19580232.49847  20486816.2664   20486805.6954
        51.7504         47.5004
 -14209155.71648 -12865698.00146  21604149.4924   21604137.6914
        50.0004         41.2504
    109923.82046   -945755.31743  24638465.5164   24638454.1844
        39.7504         22.2504
     -9858.50446     -6503.91643  25829214.1564   25829201.9454
        40.5004         23.0004
 -22985630.15448 -17902638.20247  21007368.6484   21007356.8484
        53.5004         45.5004
 -12336384.77547  -9587530.33744  23393779.6724   23393768.6334
        44.2504         28.0004
  -2985619.14046  -2296269.43143  24879983.6174   24879975.2154
        38.0004         19.7504
  -3372636.64346  -2613349.07643  24512964.2424   24512954.9614
        38.0004         21.7504
 07  3 30  0  2  0.0000000  0 12G22G 5G23G14G 1G11G19G12G31G20G30G25
 -11014212.41247  -8564220.57345  23237140.9384   23237129.4304
        46.0004         32.0004
  -1195504.02845  -1089076.41242  25189068.9454   25189059.3714
        34.7504         16.2504
  -1245757.35045   -908923.18843  25391083.7034   25391073.2504
        35.5004         22.5004
 -20368730.03448 -15761217.34246  21755708.9304   21755697.0124
        48.0004         39.0004
 -25147973.66148 -19580266.65547  20486807.8204   20486797.2504
        51.2504         47.5004
 -14209900.55748 -12866278.40046  21604007.8914   21603996.3834
        49.5004         41.0004
    112749.91446   -943553.16843  24639003.2734   24638992.0004
        39.5004         22.5004
     -9904.67346     -6539.92043  25829205.0004   25829193.6684
        40.2504         22.2504
 -22987042.60448 -17903738.81547  21007099.6334   21007088.0664
        53.5004         45.5004
 -12339232.41747  -9589749.27544  23393237.3524   23393226.7814
        44.5004         28.2504
  -2986982.21146  -2297331.55243  24879723.3834   24879715.5664
        38.0004         20.0004
  -3376363.10946  -2616252.81543  24512255.1804   24512245.6054
        38.0004         22.0004
 07  3 30  0  2  1.0000000  0 12G22G 5G23G14G 1G11G19G12G31G20G30G25
 -11011822.46647  -8562358.27445  23237596.2504   23237583.9804
        46.5004         32.0004
  -1195647.75045  -1089188.35642  25189042.4064   25189032.3634
        35.0004         15.5004
  -1248792.83146   -911288.47643  25390505.2194   25390495.5864
        36.0004         22.2504
 -20366450.35048 -15759440.96946  21756142.6484   21756131.1994
        48.0004         39.2504
 -25148017.19948 -19580300.57947  20486799.5784   20486789.3014
        52.0004         47.5004
 -14210644.87748 -12866858.38346  21603866.4064   21603854.6054
        49.5004         41.0004
    115575.92746   -941351.08443  24639541.2194   24639529.8874
        40.5004         22.5004
     -9950.40346     -6575.52843  25829195.6564   25829184.8524
        40.0004         22.7504
 -22988454.54548 -17904839.02147  21006830.9614   21006819.2774
        53.0004         45.5004
 -12342080.06947  -9591968.21644  23392695.1954   23392684.6254
        44.0004         28.5004
  -2988344.89446  -2298393.36743  24879464.7424   24879456.1644
        37.5004         19.7504
  -3380089.62546  -2619156.58443  24511546.1484   24511536.5164
        38.2504         21.7504
 07  3 30  0  2  2.0000000  0 12G22G 5G23G14G 1G11G19G12G31G20G30G25
 -11009432.40847  -8560495.88745  23238051.0944   23238038.5314
        46.5004         32.2504
  -1195790.96245  -1089299.96942  25189015.0704   25189004.9694
        35.0004         15.5004
  -1251828.26545   -913653.75843  25389928.5704   25389917.5904
        35.7504         22.5004
 -20364170.54147 -15757664.48946  21756576.3914   21756564.9414
        47.5004         39.2504
 -25148060.41148 -19580334.25147  20486791.2974   20486780.5514
        51.5004         47.5004
 -14211388.66648 -12867437.96146  21603724.8364   21603713.0354
        49.7504         41.0004
    118401.88046   -939149.04143  24640078.6564   24640067.3244
        40.2504         22.5004
     -9995.66946     -6610.82943  25829187.7194   25829175.9774
        40.0004         22.7504
 -22989865.94848 -17905938.81547  21006562.2734   21006550.7664
        53.0004         45.5004
 -12344927.77347  -9594187.20144  23392154.2974   23392142.8484
        44.7504         28.5004
  -2989707.22746  -2299454.93443  24879204.9534   24879196.9024
        37.5004         19.7504
  -3383816.15346  -2622060.37043  24510836.2504   24510826.8524
        37.7504         21.5004
 07  3 30  0  2  3.0000000  0 12G22G 5G23G14G 1G11G19G12G31G20G30G25
 -11007041.95447  -8558633.19745  23238506.1564   23238493.8284
        46.0004         31.5004
  -1195933.44745  -1089411.01742  25188987.5944   25188977.9614
        34.5004         15.5004
  -1254863.43045   -916018.81843  25389350.1174   25389340.0164
        35.0004         22.2504
 -20361890.35848 -15755887.72446  21757010.6644   21756999.0394
        48.0004         39.5004
 -25148103.04048 -19580367.47147  20486783.0234   20486772.4534
        51.5004         47.2504
 -14212131.67148 -12868016.93146  21603583.2734   21603571.7074
        49.5004         41.0004
    121227.97846   -936946.89043  24640617.1024   24640605.2424
        40.7504         22.7504
    -10040.21646     -6645.49543  25829178.2734   25829167.5274
        39.5004         23.0004
 -22991276.55848 -17907037.99647  21006294.0634   21006282.5554
        53.0004         45.5004
 -12347775.21647  -9596406.00044  23391611.9534   23391600.8554
        44.5004         28.5004
  -2991068.93546  -2300515.98343  24878945.3594   24878937.8954
        37.2504         19.5004
  -3387542.39746  -2624963.92743  24510127.3914   24510117.9344
        37.5004         21.7504
 07  3 30  0  2  4.0000000  0 12G22G 5G23G14G 1G11G19G12G31G20G30G25
 -11004651.27047  -8556770.33045  23238960.6564   23238948.6214
        45.2504         31.7504
  -1196075.29045  -1089521.51842  25188960.5164   25188950.5904
        34.2504         15.5004
  -1257898.40345   -918383.75043  25388772.5634   25388762.7544
        34.7504         22.0004
 -20359609.91147 -15754110.75246  21757444.3754   21757432.7504
        47.7504         39.5004
 -25148145.22348 -19580400.34347  20486775.2664   20486764.4024
        52.2504         47.2504
 -14212874.01448 -12868595.38246  21603442.2344   21603430.3754
        49.5004         41.2504
    124054.16246   -934744.66043  24641155.4144   24641142.9104
        40.5004         22.7504
    -10084.20046     -6679.82843  25829170.6414   25829158.8404
        39.5004         22.0004
 -22992686.51148 -17908136.65747  21006025.5164   21006013.9494
        52.7504         45.5004
 -12350622.54447  -9598624.69344  23391069.8524   23391059.1054
        44.5004         28.2504
  -2992430.15446  -2301576.69143  24878686.2734   24878678.7504
        36.5004         19.2504
  -3391268.55346  -2627867.42443  24509418.5084   24509408.8164
        37.7504         21.7504
 07  3 30  0  2  5.0000000  0 12G22G 5G23G14G 1G11G19G12G31G20G30G25
 -11002260.65647  -8554907.52245  23239415.2584   23239403.3404
        45.0004         31.7504
  -1196216.88045  -1089631.85542  25188933.2664   25188923.5744
        33.7504         15.5004
  -1260933.54145   -920748.80243  25388194.8284   25388184.7274
        35.0004         22.0004
 -20357329.56047 -15752333.85446  21757878.3914   21757866.7664
        47.7504         39.5004
 -25148187.27848 -19580433.11447  20486767.1954   20486756.7424
        52.2504         47.2504
 -14213616.05448 -12869173.59446  21603300.9224   21603289.1804
        49.7504         41.0004
    126880.05746   -932542.65343  24641692.7974   24641680.5864
        40.2504         22.7504
    -10127.93546     -6713.86843  25829161.7504   25829151.0634
        39.0004         21.7504
 -22994096.13748 -17909235.06947  21005757.4454   21005745.9964
        52.5004         45.5004
 -12353470.08047  -9600843.54944  23390527.7894   23390517.1604
        44.7504         28.5004
  -2993791.15446  -2302637.23143  24878427.0704   24878419.5474
        36.5004         19.2504
  -3394994.85946  -2630771.03943  24508709.3204   24508700.0984
        38.2504         21.7504
 07  3 30  0  2  6.0000000  0 12G22G 5G23G14G 1G11G19G12G31G20G30G25
 -10999869.61847  -8553044.37745  23239870.0394   23239857.9454
        45.5004         31.0004
  -1196357.57645  -1089741.51142  25188906.5394   25188896.8484
        34.0004         15.5004
  -1263968.31545   -923113.53243  25387618.0704   25387607.5004
        34.7504         21.7504
 -20355048.78247 -15750556.62646  21758312.0554   21758300.6054
        47.2504         39.2504
 -25148228.71348 -19580465.39847  20486759.0634   20486748.9614
        52.0004         47.2504
 -14214357.22648 -12869751.13246  21603159.7734   21603148.2074
        49.5004         41.0004
    129706.19446   -930340.47243  24642230.0234   24642218.6914
        39.5004         23.7504
    -10170.90046     -6747.34743  25829153.6174   25829142.3444
        38.7504         22.7504
 -22995504.91948 -17910332.81847  21005489.1644   21005477.8914
        52.5004         45.7504
 -12356317.35447  -9603062.20544  23389986.5554   23389975.5744
        45.0004         28.2504
  -2995151.47946  -2303697.22343  24878168.2894   24878160.4734
        36.7504         19.0004
  -3398720.98946  -2633674.50843  24508000.1414   24507990.6844
        37.2504         21.7504
 07  3 30  0  2  7.0000000  0 12G22G 5G23G14G 1G11G19G12G31G20G30G25
 -10997478.64847  -8551181.28945  23240325.5234   23240312.9024
        46.0004         31.7504
  -1196498.11845  -1089850.99042  25188879.4304   25188870.0904
        33.7504         16.2504
  -1267003.22645   -925478.37143  25387040.7274   25387029.7464
        33.5004         21.5004
 -20352768.07447 -15748779.45346  21758746.0314   21758734.6414
        47.7504         39.0004
 -25148270.01348 -19580497.58447  20486751.2974   20486740.9614
        52.2504         47.5004
 -14215098.07848 -12870328.41646  21603018.9694   21603007.2274
        50.0004         41.0004
    132532.03546   -928138.51743  24642766.9534   24642755.9144
        40.0004         22.7504
    -10213.61846     -6780.70543  25829145.1174   25829134.3134
        38.2504         22.2504
 -22996913.38348 -17911430.32147  21005221.1564   21005209.8834
        52.0004         45.5004
 -12359164.83147  -9605281.01744  23389444.8134   23389433.9494
        45.0004         28.0004
  -2996511.64746  -2304757.08543  24877909.0474   24877901.6414
        36.5004         18.5004
  -3402447.29046  -2636578.10843  24507290.3524   24507281.9494
        37.5004         21.7504
 07  3 30  0  2  8.0000000  0 12G22G 5G23G14G 1G11G19G12G31G20G30G25
 -10995087.14847  -8549317.77745  23240780.0314   23240767.5864
        46.0004         32.0004
  -1196637.63945  -1089959.68542  25188853.4304   25188843.5044
        34.5004         16.2504
  -1270037.71145   -927842.90643  25386463.0704   25386452.7344
        33.5004         20.7504
 -20350486.81747 -15747001.85146  21759180.0314   21759168.6994
        47.7504         39.2504
 -25148310.58048 -19580529.19347  20486743.8204   20486732.8404
        52.0004         47.5004
 -14215837.98948 -12870904.97846  21602877.9064   21602866.6334
        50.0004         41.0004
    135358.23446   -925936.28643  24643305.2734   24643294.0594
        40.5004         22.7504
    -10255.43946     -6813.20543  25829137.8444   25829126.0434
        38.2504         22.0004
 -22998320.88448 -17912527.07147  21004953.2274   21004941.8364
        52.2504         45.5004
 -12362011.90747  -9607499.52144  23388903.1174   23388892.0204
        45.0004         29.0004
  -2997871.01546  -2305816.30443  24877649.5944   24877642.7734
        36.0004         18.5004
  -3406173.12046  -2639481.35543  24506581.9144   24506572.6914
        37.5004         21.7504
 07  3 30  0  2  9.0000000  0 12G22G 5G23G14G 1G11G19G12G31G20G30G25
 -10992695.82047  -8547454.40445  23241235.6334   23241222.6564
        45.7504         31.5004
  -1196777.01045  -1090068.29342  25188826.9924   25188817.1254
        35.0004         16.2504
  -1273072.52145   -930207.70243  25385884.3524   25385874.8954
        33.5004         20.2504
 -20348205.74647 -15745224.39246  21759614.1564   21759602.9414
        47.7504         39.5004
 -25148351.11148 -19580560.77447  20486735.9534   20486725.2664
        52.5004         47.2504
 -14216577.67748 -12871481.35646  21602737.2584   21602725.5164
        50.2504         41.0004
    138184.08646   -923734.32343  24643843.6254   24643831.6484
        40.7504         22.5004
    -10297.11946     -6845.65343  25829129.7344   25829118.3444
        38.5004         22.5004
 -22999728.15048 -17913623.64047  21004685.4614   21004674.1294
        52.2504         45.5004
 -12364859.28647  -9609718.25944  23388360.3444   23388349.8324
        44.5004         28.2504
  -2999230.28546  -2306875.44343  24877391.3914   24877384.2774
        36.2504         18.2504
  -3409899.31646  -2642384.87843  24505873.2504   24505864.1454
        37.7504         22.0004
 07  3 30  0  2 10.0000000  0 12G22G 5G23G14G 1G11G19G12G31G20G30G25
 -10990304.10747  -8545590.73345  23241690.8054   23241678.3014
        46.2504         31.7504
  -1196915.64545  -1090176.31742  25188799.8594   25188790.5204
        34.7504         16.2504
  -1276107.02045   -932572.22743  25385307.8054   25385297.2344
        33.5004         20.0004
 -20345924.29547 -15743446.63946  21760048.6094   21760037.0434
        47.5004         39.5004
 -25148391.05148 -19580591.89647  20486728.2504   20486717.7384
        52.5004         47.0004
 -14217316.55848 -12872057.10746  21602596.4224   21602584.9734
        50.0004         41.0004
    141010.09246   -921532.25743  24644381.2274   24644369.1914
        39.2504         22.5004
    -10338.06746     -6877.61143  25829121.9924   25829110.6604
        38.0004         22.5004
 -23001134.62948 -17914719.60247  21004417.9844   21004406.7114
        52.5004         45.5004
 -12367706.43347  -9611936.81144  23387818.6414   23387807.9534
        44.2504         27.5004
  -3000588.94045  -2307934.12443  24877131.9384   24877125.2934
        35.7504         18.2504
  -3413625.24146  -2645288.18443  24505164.2734   24505154.5824
        37.5004         21.5004
 07  3 30  0  2 11.0000000  0 12G22G 5G23G14G 1G11G19G12G31G20G30G25
 -10987912.08547  -8543726.82445  23242145.5474   23242133.3364
        46.2504         31.2504
  -1197053.59345  -1090283.83542  25188773.8834   25188764.5434
        35.0004         15.5004
  -1279141.19845   -934936.52243  25384728.8364   25384719.7894
        31.0004         20.0004
 -20343642.51647 -15741668.62846  21760482.7114   21760471.1454
        47.7504         39.5004
 -25148430.48348 -19580622.62147  20486720.7034   20486710.3094
        52.7504         47.2504
 -14218054.69348 -12872632.27346  21602455.7504   21602444.3594
        50.5004         41.0004
    143836.28146   -919330.02443  24644919.1564   24644907.0634
        40.2504         22.2504
    -10378.35446     -6909.10143  25829114.3364   25829102.9454
        38.0004         22.2504
 -23002540.36648 -17915814.97947  21004150.2114   21004138.9964
        52.7504         45.5004
 -12370553.40947  -9614155.23944  23387277.0004   23387266.3134
        44.7504         27.5004
  -3001946.96646  -2308992.36043  24876875.0554   24876867.0044
        36.5004         18.2504
  -3417350.96346  -2648191.33543  24504454.8444   24504446.3244
        37.2504         21.5004
 07  3 30  0  2 12.0000000  0 12G22G 5G23G14G 1G11G19G12G31G20G30G25
 -10985519.97447  -8541862.83945  23242600.9924   23242588.7234
        46.5004         31.7504
  -1197191.06845  -1090390.96842  25188747.5944   25188738.3134
        34.5004         16.2504
  -1282175.42045   -937300.80443  25384149.7584   25384142.5274
        33.0004         19.7504
 -20341360.67447 -15739890.57446  21760916.8204   21760905.4884
        47.5004         39.5004
 -25148469.63848 -19580653.13347  20486713.2664   20486702.8134
        53.2504         47.2504
 -14218792.37948 -12873207.09046  21602315.7584   21602304.6024
        50.7504         41.2504
    146662.30746   -917127.93043  24645457.2974   24645445.1454
        40.2504         22.5004
    -10418.255 6                  25829106.758
        37.500
 -23003945.62348 -17916909.99147  21003882.9304   21003871.4224
        52.5004         45.5004
 -12373400.40847  -9616373.66944  23386735.4224   23386724.7934
        44.2504         27.7504
  -3003304.73446  -2310050.37643  24876616.2664   24876608.8594
        36.5004         18.5004
  -3421076.71246  -2651094.50743  24503745.2114   24503736.9844
        37.5004         21.5004
 07  3 30  0  2 13.0000000  0 12G22G 5G23G14G 1G11G19G12G31G20G30G25
 -10983127.74547  -8539998.76245  23243056.0474   23243044.2464
        46.5004         31.7504
  -1197328.04345  -1090497.74342  25188720.7194   25188712.0824
        33.7504         16.7504
  -1285209.63045   -939665.10343  25383574.5704   25383564.8794
        31.7504         19.5004
 -20339078.68848 -15738112.41046  21761351.2194   21761339.4774
        48.0004         39.5004
 -25148508.44948 -19580683.38047  20486706.0394   20486695.2344
        53.2504         47.0004
 -14219529.50748 -12873781.48246  21602175.3754   21602164.2774
        50.7504         41.0004
    149488.27346   -914925.87243  24645995.3834   24645982.8204
        40.0004         22.5004
    -10457.703 6                  25829099.141
        38.000
 -23005350.35248 -17918004.58347  21003615.6724   21003604.1054
        52.7504         45.5004
 -12376247.44747  -9618592.13544  23386193.5314   23386182.9024
        44.2504         28.0004
  -3004662.07346  -2311108.04643  24876358.6094   24876350.6174
        36.5004         18.5004
  -3424802.50846  -2653997.72043  24503035.9844   24503028.1094
        37.2504         21.5004
 07  3 30  0  2 14.0000000  0 12G22G 5G23G14G 1G11G19G12G31G20G30G25
 -10980735.27747  -8538134.49745  23243511.5784   23243498.9574
        46.7504         31.5004
  -1197464.44745  -1090604.01342  25188695.5634   25188686.1644
        34.0004         16.2504
  -1288243.60945   -942029.21743  25382997.6094   25382987.2734
        32.7504         19.5004
 -20336796.47748 -15736334.06346  21761785.4614   21761774.1294
        48.2504         39.5004
 -25148546.85348 -19580713.29547  20486698.7424   20486688.2894
        53.5004         47.0004
 -14220266.02448 -12874355.38146  21602035.2974   21602023.6724
        51.0004         41.2504
    152314.27346   -912723.78743  24646532.0704   24646520.3284
        40.0004         22.7504
    -10496.509 6                  25829091.016
        37.500
 -23006754.43248 -17919098.67047  21003348.8284   21003337.0864
        52.5004         45.5004
 -12379094.37447  -9620810.52444  23385651.7344   23385641.0474
        44.2504         28.0004
  -3006018.93046  -2312165.30143  24876101.4144   24876092.3094
        37.2504         19.0004
  -3428528.17846  -2656900.82743  24502327.8674   24502319.2894
        37.7504         21.7504
 07  3 30  0  2 15.0000000  0 12G22G 5G23G14G 1G11G19G12G31G20G30G25
 -10978342.63947  -8536270.10645  23243967.4064   23243954.3134
        47.0004         31.5004
  -1197600.34845  -1090709.87642  25188669.1884   25188660.0234
        33.2504         16.2504
  -1291277.60145   -944393.39343  25382420.9304   25382409.7734
        34.2504         19.5004
 -20334514.09048 -15734555.57446  21762219.9144   21762208.4654
        48.5004         39.5004
 -25148584.84848 -19580742.90047  20486691.5474   20486681.2704
        53.5004         47.0004
 -14221001.93348 -12874928.81946  21601895.4304   21601883.8634
        51.5004         41.5004
    155140.26246   -910521.72043  24647069.2974   24647058.7854
        39.2504         23.0004
    -10534.891 6                  25829083.719
        38.000
 -23008157.93948 -17920192.31447  21003081.4454   21003069.9964
        52.5004         45.5004
 -12381941.27647  -9623028.88744  23385110.4224   23385099.2074
        44.5004         27.7504
  -3007375.33946  -2313222.23843  24875842.4844   24875833.9064
        37.0004         18.2504
  -3432253.81246  -2659803.87443  24501618.8984   24501610.0274
        38.5004         22.0004
 07  3 30  0  2 16.0000000  0 12G22G 5G23G14G 1G11G19G12G31G20G30G25
 -10975949.81147  -8534405.56845  23244421.9774   23244409.4734
        46.5004         31.5004
  -1197735.59145  -1090815.27242  25188643.4844   25188634.3204
        33.5004         16.2504
  -1294311.36345   -946757.36043  25381844.1724   25381832.9574
        34.2504         19.2504
 -20332231.52748 -15732776.95146  21762654.0554   21762642.6644
        48.0004         39.7504
 -25148622.46148 -19580772.21047  20486684.2034   20486673.4574
        53.5004         47.2504
 -14221737.23848 -12875501.78546  21601755.3444   21601743.7194
        50.7504         41.2504
    157966.25146   -908319.66243  24647606.8674   24647596.2384
        39.2504         22.7504
    -10572.723 6                  25829076.914
        38.750
 -23009560.83048 -17921285.47247  21002814.5314   21002802.9064
        52.5004         45.5004
 -12384788.12547  -9625247.20944  23384568.2504   23384557.2114
        44.5004         27.7504
  -3008731.34046  -2314278.84142  24875585.0784   24875576.0314
        36.5004         17.7504
  -3435979.37946  -2662706.90743  24500910.1254   24500901.3714
        38.2504         21.7504
 07  3 30  0  2 17.0000000  0 12G22G 5G23G14G 1G11G19G12G31G20G30G25
 -10973556.89347  -8532540.95645  23244877.5234   23244864.7274
        46.7504         31.2504
  -1197870.46645  -1090920.37542  25188618.2974   25188608.3714
        33.2504         15.5004
  -1297345.19745   -949121.37443  25381267.5784   25381255.8954
        35.7504         19.0004
 -20329948.85147 -15730998.24946  21763088.8444   21763077.2774
        47.7504         39.5004
 -25148659.78248 -19580801.29447  20486677.1174   20486666.5474
        53.7504         47.2504
 -14222472.06748 -12876074.38446  21601615.5394   21601604.0904
        50.5004         41.5004
    160792.11446   -906117.70743  24648144.8594   24648133.4104
        39.5004         22.7504
    -10610.126 6                  25829069.891
        39.500
 -23010963.22648 -17922378.24347  21002547.6334   21002536.0664
        52.5004         45.5004
 -12387635.01647  -9627465.55544  23384026.7664   23384015.9024
        44.5004         27.7504
  -3010086.97046  -2315335.18742  24875326.2504   24875317.8484
        36.0004         17.7504
  -3439704.94646  -2665609.99243  24500201.6564   24500192.4344
        38.5004         21.5004
 07  3 30  0  2 18.0000000  0 12G22G 5G23G14G 1G11G19G12G31G20G30G25
 -10971163.68047  -8530676.11645  23245332.8834   23245320.4384
        46.5004         31.2504
  -1198004.64445  -1091024.95842  25188591.5554   25188582.8014
        32.5004         16.2504
  -1300378.72245   -951485.14143  25380690.6484   25380677.7304
        35.5004         19.0004
 -20327665.88848 -15729219.31546  21763523.1644   21763511.5984
        48.0004         39.7504
 -25148696.62048 -19580829.99747  20486670.1334   20486659.4454
        53.7504         47.2504
 -14223206.18248 -12876646.42446  21601475.4844   21601464.2114
        50.7504         41.7504
    163618.10546   -903915.62143  24648681.8834   24648671.3134
        39.5004         22.2504
    -10646.874 6                  25829063.258
        39.500
 -23012364.91148 -17923470.46747  21002280.8834   21002269.4344
        52.7504         45.5004
 -12390481.73047  -9629683.77544  23383485.2814   23383473.7734
        44.2504         27.5004
  -3011442.01145  -2316391.05943  24875068.8284   24875059.8984
        35.7504         18.2504
  -3443430.39446  -2668512.93843  24499492.7274   24499483.4454
        39.0004         22.0004
 07  3 30  0  2 19.0000000  0 12G22G 5G23G14G 1G11G19G12G31G20G30G25
 -10968770.20547  -8528811.06545  23245788.4384   23245775.4614
        46.2504         31.0004
  -1198138.15145  -1091128.96142  25188566.0474   25188557.9964
        33.7504         15.5004
  -1303412.19046   -953848.88343  25380112.4534   25380100.4184
        36.7504         19.2504
 -20325382.65647 -15727440.17046  21763957.1564   21763945.7074
        47.7504         39.5004
 -25148732.95949 -19580858.30947  20486663.1724   20486652.7194
        54.0004         47.2504
 -14223939.64248 -12877217.94346  21601336.2114   21601324.7624
        50.5004         41.7504
    166444.14646   -901713.52243  24649221.0394   24649208.8284
        40.0004         22.5004
    -10683.064 6                  25829056.406
        40.500
 -23013765.91848 -17924562.15847  21002014.4844   21002002.9184
        52.5004         45.5004
 -12393328.33147  -9631901.91544  23382943.4694   23382932.1954
        44.7504         28.2504
  -3012796.54946  -2317446.52742  24874811.3754   24874801.9774
        36.2504         17.7504
  -3447155.66746  -2671415.75543  24498784.1094   24498774.7704
        39.0004         22.0004
 07  3 30  0  2 20.0000000  0 12G22G 5G23G14G 1G11G19G12G31G20G30G25
 -10966376.54647  -8526945.87245  23246243.4454   23246230.9414
        46.5004         31.5004
  -1198271.11645  -1091232.57842  25188541.5234   25188532.2424
        34.0004         15.5004
  -1306445.47346   -956212.50843  25379535.4844   25379523.2734
        37.0004         19.2504
 -20323099.24647 -15725660.89246  21764391.5314   21764380.3754
        47.5004         39.5004
 -25148768.93649 -19580886.35247  20486656.3204   20486645.8674
        54.2504         47.0004
 -14224672.49548 -12877789.00546  21601196.9384   21601185.0784
        50.7504         41.5004
    169270.17746   -899511.42843  24649758.3984   24649746.9494
        39.7504         22.5004
    -10718.698 6                  25829049.664
        40.000
 -23015166.34548 -17925653.40447  21001748.0784   21001736.6294
        53.0004         45.5004
 -12396174.87147  -9634119.99744  23382401.3284   23382390.6994
        44.2504         28.7504
  -3014150.69946  -2318501.72243  24874553.8984   24874544.3244
        36.2504         18.2504
  -3450880.90346  -2674318.52843  24498075.0704   24498065.5554
        39.0004         22.0004
 07  3 30  0  2 21.0000000  0 12G22G 5G23G14G 1G11G19G12G31G20G30G25
 -10963982.85747  -8525080.66245  23246699.0864   23246686.6994
        46.2504         31.5004
  -1198403.70245  -1091335.87542  25188516.8284   25188507.1954
        35.0004         15.5004
  -1309478.77846   -958576.13843  25378958.3364   25378945.7154
        36.7504         18.5004
 -20320815.78847 -15723881.58046  21764826.1884   21764814.9144
        47.2504         39.0004
 -25148804.66649 -19580914.18847  20486649.4454   20486639.1684
        54.0004         47.2504
 -14225404.88548 -12878359.69746  21601057.4304   21601045.5124
        50.0004         41.7504
    172096.09246   -897309.40843  24650296.6644   24650284.8634
        39.5004         22.5004
    -10753.97546     -7201.60654  25829042.5394   25829032.9654
        39.7504         26.0004
 -23016566.30648 -17926744.27647  21001481.3914   21001469.9414
        53.0004         45.5004
 -12399021.52447  -9636338.17444  23381859.6954   23381848.8914
        43.7504         28.0004
  -3015504.47646  -2319556.62243  24874296.7504   24874286.7664
        36.5004         18.2504
  -3454606.20446  -2677221.36143  24497366.3674   24497356.7344
        38.0004         22.5004
 07  3 30  0  2 22.0000000  0 12G22G 5G23G14G 1G11G19G12G31G20G30G25
 -10961588.88147  -8523215.23045  23247155.0084   23247142.3874
        46.5004         31.5004
  -1198535.62045  -1091438.67842  25188492.0704   25188482.0864
        35.2504         15.5004
  -1312511.93546   -960939.66843  25378381.1954   25378368.2774
        37.0004         18.2504
 -20318532.06147 -15722102.04646  21765260.9304   21765249.4804
        47.7504         39.2504
 -25148839.92048 -19580941.66347  20486642.7894   20486632.6884
        53.7504         47.2504
 -14226136.61248 -12878929.87546  21600918.2274   21600906.6024
        50.5004         41.5004
    174922.02646   -895107.37143  24650834.4534   24650822.6524
        39.0004         22.5004
    -10788.64746     -7228.58544  25829036.1954   25829026.0354
        40.2504         26.0004
 -23017965.59648 -17927834.63347  21001215.4694   21001203.7854
        53.2504         45.5004
 -12401868.07547  -9638556.27044  23381318.3914   23381307.2934
        43.5004         27.2504
  -3016857.78946  -2320611.15543  24874038.7894   24874029.3324
        36.0004         18.2504
  -3458331.38946  -2680124.13743  24496657.1254   24496648.1954
        38.0004         22.0004
 07  3 30  0  2 23.0000000  0 12G22G 5G23G14G 1G11G19G12G31G20G30G25
 -10959194.90347  -8521349.79645  23247610.4774   23247598.2074
        47.0004         31.5004
  -1198667.19445  -1091541.19142  25188467.1644   25188456.8284
        35.5004         15.5004
  -1315545.15046   -963303.22343  25377803.0784   25377791.2194
        37.7504         18.2504
 -20316248.33448 -15720322.51946  21765695.7114   21765684.0864
        48.0004         39.5004
 -25148874.97548 -19580968.97247  20486636.2194   20486625.7074
        53.5004         47.2504
 -14226867.92848 -12879499.72846  21600779.2424   21600767.6174
        50.5004         41.7504
    177747.79646   -892905.46943  24651371.5634   24651359.5274
        39.0004         22.2504
    -10823.00246     -7255.35143  25829030.0944   25829019.8164
        39.7504         23.2504
 -23019364.45948 -17928924.66147  21000948.9454   21000937.2624
        53.2504         45.5004
 -12404714.71247  -9640774.42444  23380776.0004   23380765.0204
        43.2504         27.5004
  -3018210.80445  -2321665.42542  24873780.2664   24873771.7464
        35.0004         17.7504
  -3462056.69046  -2683026.95543  24495947.1254   24495938.7814
        38.2504         21.7504
 07  3 30  0  2 24.0000000  0 12G22G 5G23G14G 1G11G19G12G31G20G30G25
 -10956800.52747  -8519484.04945  23248065.8364   23248053.9184
        47.0004         31.0004
  -1198797.98345  -1091643.05742  25188442.9454   25188432.4344
        35.5004         15.5004
  -1318578.06146   -965666.54443  25377226.8364   25377213.7424
        39.0004         18.2504
 -20313964.18947 -15718542.66746  21766130.0864   21766118.6954
        47.5004         39.2504
 -25148909.40448 -19580995.80447  20486629.6334   20486619.1214
        53.5004         47.2504
 -14227598.42048 -12880068.94246  21600640.2584   21600628.3984
        50.5004         41.5004
    180573.77346   -890703.42143  24651909.1024   24651897.6524
        39.0004         22.5004
    -10856.58446     -7281.57743  25829022.7034   25829013.4804
        40.0004         22.2504
 -23020762.50948 -17930014.05247  21000682.9774   21000671.5864
        53.2504         45.5004
 -12407561.08447  -9642992.36944  23380234.5784   23380223.6564
        43.7504         28.0004
  -3019563.14045  -2322719.20242  24873523.2894   24873514.4774
        35.2504         17.2504
  -3465781.74946  -2685929.59243  24495238.5004   24495229.8054
        37.5004         22.0004
 07  3 30  0  2 25.0000000  0 12G22G 5G23G14G 1G11G19G12G31G20G30G25
 -10954405.90247  -8517618.11245  23248521.2814   23248509.8914
        46.5004         31.0004
  -1198928.10446  -1091744.42542  25188417.5634   25188407.4614
        36.0004         15.5004
  -1321610.76046   -968029.70143  25376649.4304   25376636.7504
        40.0004         18.2504
 -20311679.82147 -15716762.64046  21766564.8134   21766553.2464
        47.7504         39.2504
 -25148943.39648 -19581022.29347  20486623.1334   20486612.5634
        53.7504         47.2504
 -14228328.25648 -12880637.64646  21600501.4384   21600489.2274
        50.5004         41.5004
    183399.82546   -888501.31643  24652446.7664   24652435.1414
        39.0004         22.2504
    -10889.61146     -7307.41843  25829017.2194   25829007.0594
        40.2504         22.7504
 -23022159.90048 -17931102.91647  21000416.9924   21000405.2504
        52.7504         45.5004
 -12410407.35347  -9645210.23744  23379692.4224   23379682.4384
        43.5004         28.2504
  -3020914.98046  -2323772.57842  24873266.1884   24873256.6134
        36.0004         16.7504
  -3469506.65946  -2688832.12043  24494529.9694   24494521.5084
        37.2504         22.0004
 07  3 30  0  2 26.0000000  0 12G22G 5G23G14G 1G11G19G12G31G20G30G25
 -10952011.39647  -8515752.26245  23248977.6024   23248965.2734
        46.5004         31.5004
  -1199058.03246  -1091845.71642  25188392.5474   25188382.9144
        36.2504         15.5004
  -1324643.69346   -970393.02842  25376072.2274   25376059.3094
        39.2504         17.7504
 -20309395.53447 -15714982.68046  21766999.7114   21766988.0274
        47.5004         39.5004
 -25148977.30148 -19581048.70947  20486616.7504   20486606.1804
        53.7504         47.5004
 -14229057.80548 -12881206.12546  21600362.4694   21600350.7274
        50.2504         41.5004
    186225.55446   -886299.45843  24652984.3134   24652972.9224
        38.7504         22.5004
    -10922.38646     -7332.97543  25829010.4614   25829000.7704
        40.0004         23.2504
 -23023556.99248 -17932191.56347  21000151.0864   21000139.6954
        52.5004         45.7504
 -12413253.87647  -9647428.31044  23379151.1414   23379140.8634
        43.2504         28.5004
  -3022266.74845  -2324825.90542  24873010.0004   24872999.9574
        35.5004         16.7504
  -3473231.80346  -2691734.83043  24493820.7344   24493812.2734
        37.5004         21.7504
 07  3 30  0  2 27.0000000  0 12G22G 5G23G14G 1G11G19G12G31G20G30G25
 -10949616.38247  -8513886.02245  23249432.7274   23249421.6294
        46.2504         32.0004
  -1199187.05046  -1091946.30042  25188367.3284   25188358.1054
        36.2504         15.5004
  -1327676.16946   -972755.99943  25375495.6644   25375482.1024
        39.5004         19.0004
 -20307110.77447 -15713202.35046  21767434.2424   21767422.9104
        47.2504         39.2504
 -25149010.50348 -19581074.57847  20486610.4144   20486599.9024
        53.7504         47.2504
 -14229786.43348 -12881773.88846  21600223.8834   21600211.9654
        49.7504         41.7504
    189051.54446   -884097.38143  24653523.1884   24653510.9184
        39.7504         22.5004
    -10954.35846     -7357.82044  25829004.4534   25828995.2304
        40.2504         24.0004
 -23024953.15948 -17933279.48347  20999885.3754   20999874.1024
        52.0004         45.7504
 -12416100.03147  -9649646.09444  23378609.5004   23378599.1054
        42.7504         28.0004
  -3023617.70045  -2325878.57542  24872752.3914   24872742.6994
        35.5004         16.2504
  -3476956.54546  -2694637.21143  24493112.1094   24493103.0044
        37.5004         21.7504
 07  3 30  0  2 28.0000000  0 12G22G 5G23G14G 1G11G19G12G31G20G30G25
 -10947221.43247  -8512019.82945  23249888.7814   23249877.3324
        46.2504         32.0004
  -1199315.78446  -1092046.64742  25188343.8594   25188333.9924
        36.5004         14.7504
  -1330708.80246   -975119.08143  25374918.1564   25374904.7114
        39.5004         19.2504
 -20304826.07047 -15711422.05646  21767869.1564   21767857.6484
        47.5004         39.2504
 -25149043.57649 -19581100.34747  20486604.1884   20486593.9694
        54.0004         47.2504
 -14230514.73048 -12882341.39246  21600084.9304   21600073.5394
        50.2504         41.5004
    191877.33446   -881895.46643  24654061.2274   24654049.0164
        40.0004         22.7504
    -10986.02546     -7382.40943  25828998.3984   25828989.2344
        40.7504         22.0004
 -23026348.98348 -17934367.14247  20999619.7344   20999608.1094
        52.2504         45.5004
 -12418946.39447  -9651864.04744  23378068.2584   23378057.5704
        43.2504         28.0004
  -3024968.44645  -2326931.08242  24872495.0474   24872485.4144
        34.5004         16.2504
  -3480681.57246  -2697539.82543  24492403.3444   24492394.5314
        37.7504         21.5004
 07  3 30  0  2 29.0000000  0 12G22G 5G23G14G 1G11G19G12G31G20G30G25
 -10944826.18747  -8510153.40945  23250344.7814   23250333.2734
        46.2504         31.2504
  -1199443.86346  -1092146.45042  25188319.1724   25188309.8324
        36.0004         15.5004
  -1333741.18246   -977481.97343  25374341.7664   25374328.6134
        39.5004         19.2504
 -20302541.07148 -15709641.53846  21768303.8984   21768292.3914
        48.0004         39.5004
 -25149076.14048 -19581125.72447  20486598.0784   20486587.3914
        53.7504         47.2504
 -14231242.30948 -12882908.33946  21599946.8204   21599934.9614
        50.5004         41.2504
    194703.16546   -879693.51843  24654598.2034   24654586.7544
        39.2504         22.7504
    -11017.06246     -7406.65743  25828992.2504   25828983.1454
        40.2504         22.0004
 -23027744.11048 -17935454.25447  20999354.3984   20999342.8914
        52.2504         45.2504
 -12421792.59247  -9654081.86544  23377526.1024   23377516.0004
        43.5004         28.0004
  -3026318.57746  -2327983.14342  24872238.3364   24872228.7624
        36.0004         15.5004
  -3484406.38346  -2700442.25343  24491694.3674   24491685.7304
        38.0004         21.5004
 07  3 30  0  2 30.0000000  0 12G22G 5G23G14G 1G11G19G12G31G20G30G25
 -10942430.81247  -8508286.89145  23250800.6024   23250788.9774
        46.0004         32.0004
  -1199571.44646  -1092245.83442  25188295.1804   25188285.2544
        36.2504         15.5004
  -1336773.53946   -979844.85143  25373764.7344   25373751.6994
        39.2504         20.2504
 -20300255.92247 -15707860.90646  21768738.8444   21768727.5124
        47.7504         39.5004
 -25149108.36748 -19581150.83947  20486591.5474   20486581.1524
        53.7504         47.0004
 -14231969.36448 -12883474.88046  21599808.1724   21599796.4884
        50.5004         41.0004
    197528.96646   -877491.60143  24655135.9304   24655124.0124
        39.0004         22.5004
    -11047.65646     -7430.48743  25828986.4454   25828977.3404
        40.0004         22.5004
 -23029138.68548 -17936540.93547  20999088.8134   20999077.5984
        51.7504         45.5004
 -12424638.79647  -9656299.67644  23376984.7344   23376974.1644
        43.7504         27.7504
  -3027668.38646  -2329034.97342  24871982.1254   24871972.1414
        36.0004         15.5004
  -3488131.18546  -2703344.67343  24490986.2114   24490976.9884
        38.2504         21.7504
 07  3 30  0  2 31.0000000  0 12G22G 5G23G14G 1G11G19G12G31G20G30G25
 -10940035.17947  -8506420.16445  23251256.3984   23251244.7154
        46.2504         31.7504
  -1199698.37646  -1092344.76442  25188271.8134   25188261.7114
        36.0004         16.2504
  -1339805.74046   -982207.60943  25373187.9064   25373174.6954
        39.2504         21.0004
 -20297970.53248 -15706080.08246  21769173.6334   21769162.6524
        48.2504         39.7504
 -25149140.13348 -19581175.59647  20486585.6724   20486574.9844
        53.7504         47.2504
 -14232695.72948 -12884040.87246  21599670.3754   21599658.2814
        51.0004         41.0004
    200354.85746   -875289.62443  24655673.5554   24655661.6374
        39.0004         22.5004
    -11077.62246     -7453.86643  25828981.0234   25828971.1564
        40.5004         22.2504
 -23030532.58848 -17937627.09247  20998823.4614   20998812.1884
        52.0004         45.5004
 -12427484.86447  -9658517.39144  23376443.2034   23376432.5744
        43.5004         28.2504
  -3029017.66446  -2330086.35642  24871725.2584   24871714.8634
        36.2504         15.5004
  -3491855.79646  -2706246.96243  24490277.4064   24490268.4184
        38.5004         21.5004
 07  3 30  0  2 32.0000000  0 12G22G 5G23G14G 1G11G19G12G31G20G30G25
 -10937639.34347  -8504553.27845  23251711.6334   23251700.4774
        46.0004         31.7504
  -1199824.75145  -1092443.22642  25188247.3594   25188237.5514
        35.7504         16.2504
  -1342837.77246   -984570.25143  25372610.8524   25372596.9964
        38.5004         21.2504
 -20295684.93848 -15704299.10246  21769608.2584   21769597.1024
        48.2504         39.5004
 -25149171.50148 -19581200.03547  20486579.7974   20486568.9344
        53.7504         47.0004
 -14233421.49948 -12884606.40546  21599532.3134   21599520.5124
        51.5004         41.0004
    203180.72846   -873087.66143  24656210.8364   24656199.9734
        39.2504         22.5004
    -11107.07546     -7476.84843  25828975.3204   25828965.9804
        40.5004         22.5004
 -23031925.89748 -17938712.78547  20998558.4924   20998547.0434
        52.2504         45.5004
 -12430330.88047  -9660735.06544  23375901.8674   23375890.8284
        43.7504         29.0004
  -3030366.49346  -2331137.38542  24871468.9384   24871458.2504
        36.7504         16.2504
  -3495580.37146  -2709149.23443  24489568.0164   24489558.9694
        38.5004         21.2504
 07  3 30  0  2 33.0000000  0 12G22G 5G23G14G 1G11G19G12G31G20G30G25
 -10935243.52347  -8502686.40745  23252167.7424   23252156.5864
        46.5004         31.7504
  -1199950.79645  -1092541.43042  25188221.7584   25188213.2974
        35.5004         15.5004
  -1345869.99246   -986933.01843  25372033.3524   25372019.9064
        38.5004         21.5004
 -20293399.38448 -15702518.15346  21770043.5474   21770031.9804
        48.5004         39.5004
 -25149202.68249 -19581224.32947  20486573.8834   20486563.1954
        54.0004         47.2504
 -14234146.88348 -12885171.64746  21599393.9454   21599382.3204
        51.5004         41.0004
    206006.35646   -870885.87543  24656748.7114   24656736.9104
        40.0004         22.0004
    -11136.20146     -7499.52043  25828969.3364   25828960.2894
        40.5004         22.5004
 -23033318.79748 -17939798.16047  20998293.6724   20998282.1054
        52.2504         45.5004
 -12433177.06947  -9662952.86644  23375359.7664   23375349.6644
        44.0004         28.0004
  -3031715.05746  -2332188.21342  24871212.3984   24871201.8874
        36.7504         16.2504
  -3499305.09546  -2712051.62143  24488859.2274   24488850.5904
        39.0004         21.5004
 07  3 30  0  2 34.0000000  0 12G22G 5G23G14G 1G11G19G12G31G20G30G25
 -10932847.28547  -8500819.20345  23252624.1094   23252612.6604
        46.0004         31.5004
  -1200075.98346  -1092638.96142  25188198.8914   25188189.3164
        36.0004         15.5004
  -1348901.77846   -989295.45243  25371456.6334   25371443.1294
        38.5004         21.2504
 -20291113.38048 -15700736.84846  21770478.4454   21770467.1724
        48.5004         39.7504
 -25149233.23349 -19581248.13347  20486568.0004   20486557.5474
        54.2504         47.2504
 -14234871.41048 -12885736.20646  21599256.0704   21599244.8554
        51.7504         41.0004
    208832.24046   -868683.87943  24657287.5784   24657274.7814
        40.5004         22.5004
    -11164.57646     -7521.67243  25828964.1254   25828955.3134
        40.7504         22.7504
 -23034710.85648 -17940882.88747  20998028.6564   20998017.3834
        52.2504         45.7504
 -12436022.93347  -9665170.41444  23374818.2974   23374807.9024
        43.7504         27.5004
  -3033062.96746  -2333238.54242  24870956.3594   24870945.0274
        37.0004         16.7504
  -3503029.52246  -2714953.78243  24488151.1954   24488141.7974
        38.2504         21.7504
 07  3 30  0  2 35.0000000  0 12G22G 5G23G14G 1G11G19G12G31G20G30G25
 -10930450.85847  -8498951.85945  23253080.3914   23253068.8244
        45.5004         31.7504
  -1200200.63446  -1092736.10242  25188176.1414   25188165.5124
        37.0004         15.5004
  -1351933.48846   -991657.82343  25370879.9224   25370866.3014
        38.5004         21.0004
 -20288827.19548 -15698955.41046  21770913.4144   21770902.0824
        49.0004         39.5004
 -25149263.40349 -19581271.64147  20486562.3364   20486551.4734
        54.2504         47.2504
 -14235595.36248 -12886300.33146  21599118.3284   21599106.5864
        51.5004         40.7504
    211658.10046   -866481.89843  24657824.9454   24657812.8524
        40.5004         22.5004
    -11192.44646     -7543.34043  25828959.2194   25828949.4694
        40.5004         22.5004
 -23036102.31248 -17941967.13347  20997763.8594   20997752.2934
        52.5004         45.5004
 -12438868.76147  -9667387.94944  23374276.9924   23374266.3054
        43.7504         28.0004
  -3034410.41246  -2334288.53442  24870698.1484   24870688.5744
        36.5004         16.7504
  -3506753.87746  -2717855.87343  24487441.7034   24487432.8324
        39.0004         21.7504
 07  3 30  0  2 36.0000000  0 12G22G 5G23G14G 1G11G19G12G31G20G30G25
 -10928054.35747  -8497084.46645  23253535.9064   23253524.3984
        45.5004         32.2504
  -1200324.90046  -1092832.98742  25188152.1254   25188141.9654
        36.7504         15.5004
  -1354965.21546   -994020.20943  25370303.1644   25370289.7194
        37.7504         21.0004
 -20286540.95648 -15697173.92746  21771348.5474   21771336.7464
        49.0004         39.5004
 -25149293.31348 -19581294.95647  20486556.5784   20486546.0084
        53.7504         47.0004
 -14236318.82748 -12886864.07146  21598981.0084   21598969.0904
        51.5004         40.7504
    214483.83246   -864280.01743  24658362.4064   24658350.6054
        40.0004         22.2504
    -11219.91146     -7564.75643  25828954.3674   25828944.1484
        40.5004         23.0004
 -23037493.31248 -17943051.03047  20997499.3594   20997487.7344
        52.2504         45.5004
 -12441714.65247  -9669605.52644  23373735.5864   23373724.9574
        44.0004         28.7504
  -3035757.51346  -2335338.25142  24870442.7194   24870431.9734
        37.0004         16.2504
  -3510478.23946  -2720758.03543  24486733.0314   24486724.3954
        38.2504         21.5004
 07  3 30  0  2 37.0000000  0 12G22G 5G23G14G 1G11G19G12G31G20G30G25
 -10925657.66247  -8495216.92045  23253992.7194   23253980.9184
        45.5004         32.0004
  -1200448.54646  -1092929.31642  25188129.1174   25188118.4884
        37.5004         16.2504
  -1357996.82746   -996382.51943  25369726.1884   25369712.6254
        37.2504         21.2504
 -20284254.51948 -15695392.28446  21771783.9064   21771772.2814
        49.2504         39.5004
 -25149322.81849 -19581317.94147  20486551.0634   20486540.3754
        54.5004         47.0004
 -14237041.69248 -12887427.33846  21598843.4224   21598831.5044
        51.2504         41.0004
    217309.57746   -862078.14243  24658900.7584   24658888.1954
        40.7504         22.2504
    -11246.82646     -7585.67543  25828948.7974   25828939.1054
        40.7504         22.7504
 -23038883.70448 -17944134.45347  20997234.4774   20997222.9104
        52.2504         45.5004
 -12444560.45847  -9671823.04344  23373193.7034   23373182.9574
        43.5004         28.5004
  -3037104.14846  -2336387.56942  24870186.7114   24870176.0234
        37.2504         17.7504
  -3514202.63346  -2723660.08443  24486023.6884   24486015.6374
        37.7504         21.2504
 07  3 30  0  2 38.0000000  0 12G22G 5G23G14G 1G11G19G12G31G20G30G25
 -10923260.78147  -8493349.22545  23254448.7194   23254436.4494
        45.7504         31.5004
  -1200571.64946  -1093025.19942  25188105.9224   25188095.1764
        37.5004         16.2504
  -1361028.36846   -998744.77443  25369148.7734   25369135.8554
        37.7504         21.0004
 -20281967.90748 -15693610.51146  21772219.3134   21772207.7464
        49.0004         39.5004
 -25149351.92949 -19581340.62947  20486545.3284   20486534.6994
        54.0004         47.0004
 -14237763.95948 -12887990.14846  21598705.8594   21598694.1764
        51.2504         41.0004
    220135.30346   -859876.27943  24659437.9774   24659426.2344
        40.0004         22.5004
    -11273.21446     -7606.25843  25828942.8594   25828934.1644
        40.5004         22.7504
 -23040273.47248 -17945217.38447  20996970.2584   20996958.5164
        51.7504         45.5004
 -12447406.25747  -9674040.54444  23372652.4534   23372641.5904
        44.0004         27.5004
  -3038450.38446  -2337436.59743  24869930.2504   24869919.6804
        37.0004         18.5004
  -3517926.94846  -2726562.15243  24485315.5084   24485306.8714
        38.0004         21.0004
 07  3 30  0  2 39.0000000  0 12G22G 5G23G14G 1G11G19G12G31G20G30G25
 -10920863.60847  -8491481.30445  23254904.7504   23254893.0084
        46.0004         32.0004
  -1200694.08646  -1093120.59942  25188082.0784   25188072.0944
        37.7504         16.2504
  -1364059.59946  -1001106.77643  25368571.5634   25368559.0004
        37.7504         21.2504
 -20279680.97748 -15691828.48846  21772654.2814   21772642.5394
        48.7504         39.5004
 -25149380.57048 -19581362.94747  20486539.7344   20486529.0474
        53.7504         47.0004
 -14238485.52548 -12888552.40346  21598568.2974   21598556.6724
        51.2504         41.0004
    222961.14746   -857674.31543  24659975.5944   24659964.2034
        40.2504         22.5004
    -11298.98446     -7626.35343  25828938.0554   25828928.7734
        40.0004         22.5004
 -23041662.55048 -17946299.78847  20996705.9224   20996694.5314
        52.0004         45.5004
 -12450251.88247  -9676257.91344  23372110.7664   23372100.1374
        43.7504         27.2504
  -3039796.02446  -2338485.12243  24869674.6954   24869663.3634
        37.2504         18.5004
  -3521651.08146  -2729464.07243  24484607.0314   24484597.9264
        37.7504         21.0004
 07  3 30  0  2 40.0000000  0 12G22G 5G23G14G 1G11G19G12G31G20G30G25
 -10918466.43747  -8489613.37945  23255360.4064   23255348.7814
        45.7504         31.7504
  -1200816.12746  -1093215.71442  25188060.0474   25188048.3054
        37.5004         16.2504
  -1367090.94146  -1003468.85643  25367994.8754   25367982.3134
        37.5004         21.0004
 -20277394.05648 -15690046.47046  21773089.5554   21773077.9884
        48.7504         39.2504
 -25149408.97448 -19581385.07747  20486534.6334   20486524.1804
        53.7504         47.2504
 -14239206.64848 -12889114.31846  21598431.0944   21598419.7624
        51.0004         40.7504
    225786.79546   -855472.52343  24660513.9144   24660501.4104
        41.0004         22.7504
    -11324.40746     -7646.15143  25828933.1954   25828924.0314
        41.0004         22.7504
 -23043051.20848 -17947381.85247  20996441.5234   20996429.7814
        52.0004         45.5004
 -12453097.62747  -9678475.38044  23371569.4304   23371558.5664
        44.2504         28.0004
  -3041141.42946  -2339533.47943  24869418.3834   24869407.2854
        37.0004         18.5004
  -3525375.36546  -2732366.10843  24483897.9064   24483889.3874
        37.5004         21.0004
 07  3 30  0  2 41.0000000  0 12G22G 5G23G14G 1G11G19G12G31G20G30G25
 -10916068.99547  -8487745.23945  23255817.4774   23255805.0314
        46.2504         31.0004
  -1200937.56746  -1093310.32442  25188036.5164   25188025.4184
        37.2504         16.2504
  -1370122.14846  -1005830.83043  25367418.0864   25367405.5234
        37.5004         21.2504
 -20275106.88748 -15688264.25146  21773524.3204   21773512.9884
        48.5004         39.0004
 -25149436.93048 -19581406.86347  20486529.1414   20486518.6294
        53.7504         47.5004
 -14239927.13248 -12889675.73446  21598293.8364   21598282.6804
        51.0004         41.0004
    228612.48046   -853270.69243  24661051.2734   24661039.2974
        40.5004         23.5004
    -11349.25446     -7665.54743  25828929.4144   25828919.6644
        40.5004         22.5004
 -23044439.18048 -17948463.38847  20996177.5864   20996165.9614
        52.0004         45.7504
 -12455943.26047  -9680692.76044  23371028.0004   23371017.4304
        44.0004         28.0004
  -3042486.26846  -2340581.39443  24869162.8444   24869151.5704
        38.0004         18.2504
  -3529099.48246  -2735268.01243  24483189.4304   24483180.2074
        38.0004         20.7504
 07  3 30  0  2 42.0000000  0 12G22G 5G23G14G 1G11G19G12G31G20G30G25
 -10913671.39447  -8485876.97545  23256273.7734   23256261.3284
        46.2504         31.5004
  -1201058.48746  -1093404.53742  25188012.8754   25188002.5394
        37.0004         16.2504
  -1373153.22846  -1008192.71143  25366841.0864   25366828.8754
        37.5004         21.2504
 -20272819.52048 -15686481.89746  21773959.6724   21773948.6334
        48.2504         39.2504
 -25149464.50248 -19581428.34947  20486523.9924   20486513.4224
        53.5004         47.2504
 -14240647.02848 -12890236.69646  21598156.9224   21598145.4734
        50.7504         40.7504
    231438.12546   -851068.86143  24661588.8524   24661577.2274
        40.5004         23.2504
    -11373.58746     -7684.52143  25828924.7034   25828914.8954
        41.0004         23.5004
 -23045826.58848 -17949544.48447  20995913.3754   20995902.0434
        51.7504         45.7504
 -12458788.84347  -9682910.09844  23370486.5554   23370475.8674
        43.7504         28.7504
  -3043830.74246  -2341629.04843  24868907.0864   24868895.3444
        37.7504         19.0004
  -3532823.56246  -2738169.89743  24482481.6334   24482471.7074
        37.7504         21.2504
 07  3 30  0  2 43.0000000  0 12G22G 5G23G14G 1G11G19G12G31G20G30G25
 -10911273.43247  -8484008.42245  23256730.0864   23256717.5234
        46.5004         31.7504
  -1201178.59246  -1093498.12842  25187990.2504   25187979.6214
        37.5004         16.2504
  -1376184.00146  -1010554.35443  25366263.6414   25366251.8984
        36.5004         21.7504
 -20270531.79748 -15684699.25846  21774395.4064   21774383.8404
        48.5004         39.2504
 -25149491.51348 -19581449.39447  20486518.7584   20486508.1884
        53.5004         47.0004
 -14241366.15648 -12890797.05446  21598020.0864   21598008.5204
        51.0004         40.5004
    234263.99546   -848866.90543  24662127.3594   24662114.9144
        40.0004         23.0004
    -11397.20446     -7702.89443  25828920.0704   25828910.2624
        41.2504         23.0004
 -23047213.20548 -17950624.96247  20995649.6334   20995637.6564
        52.0004         45.7504
 -12461634.19147  -9685127.25344  23369944.8204   23369934.7194
        43.2504         29.0004
  -3045174.55446  -2342676.17943  24868651.3594   24868639.6764
        37.7504         18.5004
  -3536547.39146  -2741071.57643  24481773.8054   24481763.4104
        38.5004         20.5004
 07  3 30  0  2 44.0000000  0 12G22G 5G23G14G 1G11G19G12G31G20G30G25
 -10908875.44347  -8482139.86345  23257186.2424   23257173.5634
        46.5004         31.5004
  -1201298.39246  -1093591.50742  25187967.8674   25187957.0634
        37.0004         16.2504
  -1379214.88046  -1012916.06543  25365686.6954   25365675.5984
        36.5004         21.5004
 -20268244.07348 -15682916.61746  21774830.7504   21774819.2424
        48.2504         39.2504
 -25149518.31748 -19581470.27747  20486513.7734   20486503.0274
        53.7504         47.2504
 -14242084.86748 -12891357.08546  21597883.3754   21597871.5164
        51.0004         40.7504
    237089.64946   -846665.08943  24662664.3524   24662652.7854
        39.5004         22.0004
    -11420.48547     -7720.90144  25828916.2114   25828905.6414
        42.5004         25.5004
 -23048599.40448 -17951705.11947  20995385.6564   20995373.9734
        51.5004         45.7504
 -12464479.67247  -9687344.50344  23369403.5864   23369392.5474
        43.5004         28.0004
  -3046518.08146  -2343723.11343  24868395.7274   24868384.2774
        38.2504         19.0004
  -3540271.32546  -2743973.35043  24481064.3054   24481054.5554
        38.2504         20.5004
 07  3 30  0  2 45.0000000  0 12G22G 5G23G14G 1G11G19G12G31G20G30G25
 -10906477.44847  -8480271.29645  23257642.5784   23257629.8404
        46.5004         31.2504
  -1201417.75946  -1093684.55442  25187945.2344   25187933.9024
        38.0004         15.5004
  -1382245.80045  -1015277.81243  25365109.5944   25365098.5554
        35.5004         21.5004
 -20265956.33648 -15681133.96946  21775266.1804   21775254.4964
        48.7504         39.2504
 -25149544.89348 -19581490.98447  20486508.6484   20486498.0784
        53.2504         47.0004
 -14242803.13048 -12891916.76946  21597746.4844   21597735.2114
        51.2504         41.0004
    239915.13246   -844463.42043  24663201.1174   24663190.3134
        39.5004         22.0004
    -11443.41647     -7738.83544  25828911.5394   25828901.2624
        42.5004         26.2504
 -23049985.17248 -17952784.94347  20995122.1644   20995110.2464
        52.0004         45.7504
 -12467325.27647  -9689561.85944  23368862.0634   23368851.5514
        43.2504         28.5004
  -3047861.34546  -2344769.81343  24868140.3914   24868128.4144
        37.7504         18.5004
  -3543995.37846  -2746875.19443  24480355.8284   24480345.7854
        38.0004         20.0004
 07  3 30  0  2 46.0000000  0 12G22G 5G23G14G 1G11G19G12G31G20G30G25
 -10904078.96447  -8478402.35345  23258099.1254   23258085.9734
        47.0004         31.2504
  -1201536.35946  -1093776.92442  25187922.6174   25187911.8134
        38.0004         15.5004
  -1385276.28646  -1017639.20643  25364533.6254   25364522.0004
        36.0004         21.5004
 -20263668.09848 -15679350.92046  21775701.4924   21775689.9264
        49.0004         39.2504
 -25149570.79648 -19581511.16747  20486503.8364   20486493.2074
        53.5004         47.2504
 -14243520.51448 -12892475.77246  21597610.0634   21597598.3794
        51.2504         41.0004
    242740.88246   -842261.54043  24663739.6414   24663728.7194
        40.0004         22.0004
    -11465.53047     -7756.13544  25828907.0394   25828897.1134
        43.0004         25.5004
 -23051370.03648 -17953864.05547  20994858.5944   20994847.0864
        52.0004         45.7504
 -12470170.54747  -9691778.95244  23368320.5864   23368310.1334
        43.5004         27.7504
  -3049203.85846  -2345815.92143  24867884.5864   24867872.6684
        38.0004         18.5004
  -3547719.06746  -2749776.76843  24479646.8754   24479637.3594
        38.0004         19.7504
 07  3 30  0  2 47.0000000  0 12G22G 5G23G14G 1G11G19G12G31G20G30G25
 -10901680.23547  -8476533.21445  23258555.5474   23258542.1024
        46.0004         31.5004
  -1201654.27946  -1093868.80042  25187899.3754   25187889.0984
        38.5004         15.5004
  -1388306.71845  -1020000.58643  25363956.9844   25363945.2424
        35.5004         21.5004
 -20261379.63548 -15677567.70246  21776136.8984   21776125.2154
        49.2504         39.2504
 -25149596.25949 -19581531.01247  20486498.9304   20486488.2424
        54.0004         47.2504
 -14244237.25148 -12893034.26546  21597473.5784   21597462.1884
        51.5004         41.0004
    245566.68546   -840059.63143  24664277.4224   24664266.3244
        39.7504         21.5004
    -11487.03647     -7772.95244  25828903.1954   25828893.2704
        43.0004         25.5004
 -23052754.25748 -17954942.66347  20994595.1564   20994583.4144
        52.2504         45.7504
 -12473015.69347  -9693995.94244  23367779.4224   23367768.5594
        44.0004         27.5004
  -3050545.84446  -2346861.63043  24867629.9774   24867617.3554
        38.2504         18.2504
  -3551442.66346  -2752678.26643  24478938.5314   24478928.8984
        37.7504         20.2504
 07  3 30  0  2 48.0000000  0 12G22G 5G23G14G 1G11G19G12G31G20G30G25
 -10899281.65747  -8474664.18645  23259012.3204   23258998.2304
        46.7504         31.0004
  -1201771.94046  -1093960.48842  25187877.0864   25187866.5164
        37.2504         15.5004
  -1391337.26246  -1022362.04443  25363380.6414   25363368.5474
        36.0004         21.5004
 -20259091.31548 -15675784.59346  21776572.4844   21776560.8594
        48.7504         39.2504
 -25149621.65848 -19581550.80147  20486494.0394   20486483.9384
        53.5004         47.2504
 -14244953.72448 -12893592.55446  21597337.0704   21597326.1484
        51.2504         40.7504
    248392.13046   -837858.00143  24664815.0474   24664803.8914
        39.0004         21.2504
    -11508.39647     -7789.53943  25828899.0554   25828888.5434
        42.5004         23.2504
 -23054138.20348 -17956021.06547  20994331.7424   20994320.2934
        52.0004         45.7504
 -12475861.10947  -9696213.14644  23367237.8984   23367227.1524
        44.5004         28.2504
  -3051887.79146  -2347907.30143  24867374.2424   24867362.2664
        37.7504         18.5004
  -3555166.51246  -2755579.97343  24478229.1414   24478220.1524
        38.2504         20.5004
 07  3 30  0  2 49.0000000  0 12G22G 5G23G14G 1G11G19G12G31G20G30G25
 -10896882.65047  -8472794.82845  23259468.6334   23259454.8954
        46.2504         31.0004
  -1201888.86346  -1094051.57942  25187854.5634   25187844.4024
        36.7504         16.2504
  -1394367.45645  -1024723.22143  25362803.8754   25362791.9574
        35.7504         21.2504
 -20256802.55448 -15674001.14546  21777008.1024   21776996.7114
        48.7504         39.2504
 -25149646.41348 -19581570.09547  20486489.3834   20486478.5784
        53.7504         47.2504
 -14245669.34648 -12894150.17746  21597201.3524   21597189.9024
        51.2504         40.7504
    251217.84546   -835656.15543  24665352.2504   24665341.6804
        39.7504         21.5004
    -11528.95647     -7805.56044  25828895.2114   25828884.6994
        42.7504         24.7504
 -23055521.30248 -17957098.80947  20994068.3524   20994056.8444
        52.0004         46.0004
 -12478706.25947  -9698430.14444  23366696.5234   23366685.8364
        44.5004         28.0004
  -3053228.98346  -2348952.38543  24867118.9844   24867107.3594
        38.5004         19.0004
  -3558890.10446  -2758481.48343  24477520.7034   24477511.7734
        37.7504         21.0004
 07  3 30  0  2 50.0000000  0 12G22G 5G23G14G 1G11G19G12G31G20G30G25
 -10894483.36747  -8470925.25645  23259925.3834   23259911.5864
        46.5004         31.5004
  -1202005.12746  -1094142.16442  25187831.8204   25187822.5984
        36.0004         16.2504
  -1397397.49846  -1027084.30243  25362227.0474   25362215.6564
        36.0004         21.2504
 -20254513.52548 -15672217.48646  21777443.5554   21777431.8714
        48.7504         39.2504
 -25149670.68548 -19581589.00447  20486485.0004   20486474.3714
        53.5004         47.2504
 -14246384.27948 -12894707.27346  21597065.3054   21597053.8554
        51.2504         41.0004
    254043.62846   -833454.23943  24665890.8914   24665879.3834
        40.5004         21.5004
    -11548.91947     -7821.14444  25828891.6254   25828880.7624
        42.7504         24.5004
 -23056903.71548 -17958176.00747  20993805.3984   20993793.9494
        52.2504         46.0004
 -12481551.25447  -9700647.02644  23366155.2584   23366144.6884
        44.7504         28.2504
  -3054569.62746  -2349997.02543  24866864.6564   24866851.6214
        38.5004         19.0004
  -3562613.44346  -2761382.77143  24476812.5864   24476803.1294
        38.0004         21.5004
 07  3 30  0  2 51.0000000  0 12G22G 5G23G14G 1G11G19G12G31G20G30G25
 -10892084.22747  -8469055.79645  23260381.4064   23260367.6684
        45.7504         31.7504
  -1202121.15645  -1094232.56742  25187809.4224   25187800.7854
        35.7504         16.2504
  -1400427.71145  -1029445.50343  25361650.5164   25361639.5354
        35.5004         20.7504
 -20252224.65948 -15670433.95246  21777878.6254   21777867.4694
        49.0004         39.2504
 -25149694.94148 -19581607.90847  20486480.0864   20486469.3984
        53.2504         47.0004
 -14247098.95348 -12895264.16546  21596929.2664   21596917.6414
        51.2504         40.7504
    256869.06046   -831252.59543  24666428.9144   24666416.9964
        40.2504         21.5004
    -11568.68747     -7836.56443  25828888.3204   25828877.2814
        43.0004         23.5004
 -23058285.89348 -17959253.02447  20993542.5474   20993530.9224
        52.2504         45.5004
 -12484396.54647  -9702864.12944  23365613.3444   23365603.5944
        45.0004         28.5004
  -3055910.21946  -2351041.61643  24866608.1414   24866596.3404
        38.5004         19.2504
  -3566337.11846  -2764284.31643  24476103.6094   24476094.7384
        38.0004         21.2504
 07  3 30  0  2 52.0000000  0 12G22G 5G23G14G 1G11G19G12G31G20G30G25
 -10889684.75747  -8467186.07645  23260837.8594   23260824.3554
        46.0004         31.5004
  -1202236.49945  -1094322.47742  25187788.1254   25187778.9024
        35.2504         15.5004
  -1403457.75845  -1031806.57043  25361073.4144   25361063.1374
        34.5004         20.5004
 -20249935.40348 -15668650.12046  21778314.8524   21778303.0514
        49.0004         39.5004
 -25149718.62348 -19581626.35647  20486475.9694   20486465.1054
        53.5004         47.0004
 -14247812.88148 -12895820.47446  21596793.2814   21596782.0664
        51.0004         41.0004
    259694.62846   -829050.83343  24666965.5944   24666954.3794
        39.0004         22.0004
    -11587.79147     -7851.44244  25828884.3364   25828873.4144
        42.7504         25.2504
 -23059667.27548 -17960329.42647  20993279.5084   20993268.4104
        52.2504         45.5004
 -12487241.60047  -9705081.06344  23365072.0474   23365061.6524
        44.5004         28.5004
  -3057250.14446  -2352085.69443  24866353.5634   24866341.9384
        38.5004         19.2504
  -3570060.55946  -2767185.68743  24475394.8204   24475385.9494
        38.2504         20.7504
 07  3 30  0  2 53.0000000  0 12G22G 5G23G14G 1G11G19G12G31G20G30G25
 -10887284.85547  -8465316.01545  23261294.5474   23261280.9844
        45.5004         31.5004
  -1202350.95745  -1094411.67842  25187765.4384   25187757.1524
        34.5004         16.2504
  -1406487.40045  -1034167.30743  25360497.3834   25360486.5784
        33.5004         20.2504
 -20247645.79148 -15666866.01246  21778750.6884   21778738.8874
        49.5004         39.2504
 -25149741.71049 -19581644.34647  20486471.2504   20486460.6804
        54.0004         47.0004
 -14248525.98848 -12896376.14446  21596657.5944   21596646.2624
        51.0004         40.7504
    262520.41646   -826848.93243  24667503.7194   24667492.3284
        39.7504         22.0004
    -11606.16747     -7865.75644  25828880.7664   25828870.1374
        42.5004         24.2504
 -23061047.86648 -17961405.21347  20993016.7734   20993005.3244
        52.0004         45.5004
 -12490086.41047  -9707297.78844  23364530.7974   23364520.4024
        43.5004         28.0004
  -3058589.45446  -2353129.30943  24866098.5394   24866087.2074
        38.2504         19.5004
  -3573783.73646  -2770086.86243  24474686.0784   24474677.3834
        37.5004         20.5004
 07  3 30  0  2 54.0000000  0 12G22G 5G23G14G 1G11G19G12G31G20G30G25
 -10884885.22447  -8463446.17045  23261751.4844   23261737.8054
        44.7504         31.2504
  -1202465.43545  -1094500.86542  25187743.2274   25187734.8244
        33.2504         15.5004
  -1409517.39045  -1036528.31843  25359919.7974   25359909.8134
        32.5004         20.2504
 -20245356.43648 -15665082.10046  21779186.2194   21779174.4774
        49.5004         39.2504
 -25149764.84548 -19581662.37347  20486466.6484   20486456.6054
        53.7504         47.0004
 -14249238.91948 -12896931.67046  21596521.6094   21596510.2774
        51.2504         41.0004
    265345.72046   -824647.39543  24668040.9384   24668030.0164
        39.0004         22.0004
    -11624.41947     -7879.97844  25828876.8524   25828866.6334
        42.0004         24.5004
 -23062428.25848 -17962480.84247  20992754.2504   20992742.6254
        52.0004         45.5004
 -12492931.59647  -9709514.81844  23363988.8674   23363978.7074
        43.7504         27.5004
  -3059928.69846  -2354172.90243  24865844.1334   24865832.6254
        39.0004         19.0004
  -3577507.34446  -2772988.36943  24473977.7974   24473968.8674
        37.5004         20.7504
 07  3 30  0  2 55.0000000  0 12G22G 5G23G14G 1G11G19G12G31G20G30G25
 -10882484.37047  -8461575.37945  23262207.8364   23262194.7424
        44.0004         31.2504
  -1202578.26545  -1094588.78942  25187721.2814   25187713.2894
        32.7504         15.5004
                                  25359341.6644   25359332.7344
        31.7504         20.2504
 -20243065.82948 -15663297.20846  21779621.8364   21779610.6804
        49.0004         39.0004
 -25149786.56949 -19581679.30947  20486462.6094   20486451.9224
        54.0004         47.0004
 -14249950.26148 -12897485.96546  21596386.6644   21596375.2154
        51.7504         41.0004
    268172.09846   -822445.03843  24668579.0634   24668567.6134
        39.7504         22.2504
    -11641.14347     -7892.99644  25828873.8914   25828863.6134
        42.5004         24.0004
 -23063807.04648 -17963555.22347  20992491.7194   20992480.4454
        52.0004         45.5004
 -12495775.70847  -9711731.02044  23363448.6094   23363437.6884
        43.7504         28.0004
  -3061266.52046  -2355215.37043  24865589.3674   24865578.2114
        40.0004         19.2504
  -3581229.76546  -2775888.95043  24473268.7504   24473260.5824
        37.0004         21.0004
 07  3 30  0  2 56.0000000  0 12G22G 5G23G14G 1G11G19G12G31G20G30G25
 -10880084.13747  -8459705.07145  23262665.0394   23262651.9454
        45.0004         31.0004
  -1202691.36545  -1094676.91542  25187700.1644   25187692.2894
        33.5004         14.7504
  -1415575.78645  -1041249.14343  25358765.4454   25358756.6914
        32.0004         20.0004
 -20240775.86948 -15661512.82646  21780057.6954   21780046.4804
        49.5004         39.0004
 -25149808.69248 -19581696.54447  20486458.6414   20486448.0124
        53.2504         47.2504
 -14250661.77948 -12898040.38946  21596251.1884   21596239.6214
        52.0004         41.0004
    270997.61246   -820243.35143  24669116.7424   24669105.0594
        39.5004         22.2504
    -11658.14546     -7906.27844  25828870.2664   25828860.6334
        41.7504         25.5004
 -23065186.02848 -17964629.75247  20992229.1804   20992217.5554
        52.2504         45.5004
 -12498620.54247  -9713947.76844  23362906.6564   23362896.3204
        44.2504         28.2504
  -3062604.62446  -2356258.04743  24865334.6414   24865323.3674
        40.5004         19.5004
  -3584952.97446  -2778790.15143  24472561.2584   24472552.0354
        38.0004         20.5004
 07  3 30  0  2 57.0000000  0 12G22G 5G23G14G 1G11G19G12G31G20G30G25
 -10877684.29747  -8457835.06945  23263121.3204   23263109.2274
        45.0004         31.0004
  -1202804.42845  -1094765.00742  25187678.2814   25187670.4654
        33.2504         14.7504
  -1418605.83045  -1043610.20743  25358189.8594   25358179.9344
        32.7504         20.0004
 -20238486.26748 -15659728.71846  21780493.7344   21780482.5204
        49.7504         39.0004
 -25149830.99748 -19581713.92547  20486454.1724   20486443.4264
        53.5004         47.2504
 -14251373.27148 -12898594.80546  21596115.7584   21596104.4844
        52.2504         40.7504
    273822.60846   -818042.04843  24669654.1254   24669642.6174
        39.5004         22.0004
    -11675.17346     -7919.51543  25828867.4774   25828857.2584
        41.5004         23.2504
 -23066564.96648 -17965704.25047  20991966.9304   20991955.5984
        52.2504         45.5004
 -12501465.92647  -9716164.94644  23362365.4064   23362354.7774
        44.0004         28.2504
  -3063942.85946  -2357300.83843  24865080.1174   24865068.6094
        40.2504         19.7504
  -3588676.63646  -2781691.70843  24471852.9224   24471843.2894
        38.2504         20.2504
 07  3 30  0  2 58.0000000  0 12G22G 5G23G14G 1G11G19G12G31G20G30G25
 -10875283.57247  -8455964.37645  23263578.4064   23263566.0204
        45.0004         30.5004
  -1202916.26645  -1094852.16342  25187657.5084   25187649.3404
        32.2504         14.7504
  -1421635.11845  -1045970.69243  25357613.9304   25357603.5944
        33.2504         20.2504
 -20236195.82048 -15657943.95546  21780928.5394   21780917.6174
        49.2504         39.0004
 -25149852.25048 -19581730.48747  20486450.3204   20486440.1024
        53.7504         47.2504
 -14252083.51648 -12899148.24246  21595981.1484   21595969.2894
        51.7504         40.7504
    276648.18846   -815840.30843  24670191.3834   24670180.3444
        40.0004         22.0004
    -11691.03946     -7931.86643  25828864.8134   25828854.0664
        41.5004         22.7504
 -23067942.65748 -17966777.77347  20991704.8444   20991693.4534
        52.5004         45.5004
 -12504310.57747  -9718381.55144  23361823.4144   23361813.4884
        44.0004         28.5004
  -3065280.01446  -2358342.79843  24864825.9304   24864814.4804
        40.5004         20.0004
  -3592399.61946  -2784592.74043  24471144.3594   24471134.3754
        38.0004         20.5004
 07  3 30  0  2 59.0000000  0 12G22G 5G23G14G 1G11G19G12G31G20G30G25
 -10872882.70347  -8454093.56545  23264034.8284   23264022.7344
        45.0004         30.5004
  -1203027.60445  -1094938.93042  25187635.3364   25187627.9884
        31.7504         14.7504
  -1424664.28545  -1048331.08143  25357036.4924   25357027.0944
        32.2504         19.5004
 -20233905.21648 -15656159.07046  21781365.3204   21781353.5204
        50.0004         39.0004
 -25149873.14648 -19581746.77047  20486446.2424   20486435.6724
        53.7504         47.2504
 -14252793.18648 -12899701.22846  21595845.8674   21595833.9494
        52.2504         41.0004
    279473.77746   -813638.54843  24670729.4924   24670717.6334
        40.0004         22.0004
    -11706.38446     -7943.80943  25828861.1094   25828851.0664
        41.7504         23.0004
 -23069319.77648 -17967850.85747  20991442.7734   20991431.1484
        53.0004         45.7504
 -12507155.20947  -9720598.14744  23361282.9694   23361272.3404
        44.5004         27.5004
  -3066616.72346  -2359384.36343  24864570.3834   24864559.8134
        40.2504         19.7504
  -3596122.54446  -2787493.71843  24470436.5554   24470426.2194
        38.7504         20.7504
 07  3 30  0  3  0.0000000  0 12G22G 5G23G14G 1G11G19G12G31G20G30G25
 -10870481.10447  -8452222.19445  23264491.5234   23264479.6644
        45.0004         30.7504
  -1203137.85045  -1095024.84442  25187615.0084   25187607.0744
        32.7504         13.7504
                                  25356459.3834   25356451.3324
        33.2504         19.5004
 -20231613.87648 -15654373.60946  21781801.0554   21781789.8984
        49.5004         39.0004
 -25149893.12648 -19581762.33747  20486442.4384   20486431.8674
        53.5004         47.0004
 -14253501.71348 -12900253.32646  21595711.4224   21595699.2114
        51.7504         40.7504
    282299.84446   -811436.41943  24671267.7194   24671255.5664
        40.2504         22.0004
    -11720.66946     -7954.99644  25828858.5944   25828848.4924
        41.5004         25.7504
 -23070695.73748 -17968923.03347  20991180.5864   20991168.9024
        52.7504         45.7504
 -12509999.24847  -9722814.27744  23360741.9454   23360731.1414
        44.0004         27.7504
  -3067952.48946  -2360425.21543  24864315.6954   24864306.1214
        40.5004         20.0004
  -3599844.86846  -2790394.22743  24469727.2274   24469717.7114
        38.2504         21.0004
 07  3 30  0  3  1.0000000  0 12G22G 5G23G14G 1G11G19G12G31G20G30G25
 -10868079.97247  -8450351.18745  23264948.9454   23264937.0274
        45.0004         31.2504
  -1203248.18345  -1095110.81042  25187595.2344   25187586.1294
        33.5004         13.7504
                                  25355884.5084   25355874.7584
        33.0004         19.5004
 -20229323.02048 -15652588.53146  21782236.5704   21782225.4144
        49.2504         39.0004
 -25149913.34248 -19581778.08847  20486438.4924   20486427.9804
        53.7504         47.2504
 -14254210.29248 -12900805.46846  21595576.5004   21595564.9344
        51.7504         40.7504
    285125.29746   -809234.76343  24671805.1884   24671793.2704
        40.0004         21.7504
    -11735.09646     -7966.19343  25828855.8524   25828845.3984
        41.2504         23.7504
 -23072071.76948 -17969995.26147  20990919.1024   20990907.8284
        52.5004         45.7504
 -12512843.85947  -9725030.86044  23360199.7344   23360189.6334
        44.0004         27.0004
  -3069288.40046  -2361466.18143  24864061.4144   24864051.4304
        40.2504         20.0004
  -3603567.78446  -2793295.20943  24469019.2584   24469008.9804
        38.5004         21.2504
 07  3 30  0  3  2.0000000  0 12G22G 5G23G14G 1G11G19G12G31G20G30G25
 -10865678.57547  -8448479.97845  23265405.9304   23265394.0124
        45.5004         31.0004
  -1203357.92745  -1095196.33642  25187574.8204   25187565.5394
        33.0004         15.5004
  -1433750.66445  -1055411.28843  25355308.3754   25355298.9184
        32.7504         19.5004
 -20227031.90148 -15650803.24446  21782672.9844   21782661.5944
        50.0004         39.0004
 -25149933.13348 -19581793.50447  20486434.8284   20486424.3754
        53.5004         47.2504
 -14254918.24848 -12901357.12246  21595441.2814   21595430.2424
        52.0004         40.7504
    287950.78346   -807033.07443  24672342.7504   24672330.9494
        39.7504         22.0004
    -11748.95346     -7976.98443  25828852.9304   25828842.8874
        41.2504         22.7504
 -23073447.11548 -17971066.95847  20990657.3524   20990645.8444
        52.2504         45.7504
 -12515688.40147  -9727247.39044  23359658.6804   23359648.2854
        44.0004         27.5004
  -3070623.85646  -2362506.79743  24863807.9694   24863797.3984
        40.7504         19.7504
  -3607290.57246  -2796196.08743  24468310.6954   24468300.8284
        38.2504         21.2504
 07  3 30  0  3  3.0000000  0 12G22G 5G23G14G 1G11G19G12G31G20G30G25
 -10863277.51147  -8446609.02645  23265863.1094   23265851.0744
        46.0004         31.0004
  -1203467.56345  -1095281.78742  25187554.0164   25187544.8524
        34.0004         16.7504
  -1436780.01945  -1057771.79143  25354730.2734   25354722.2234
        32.5004         19.7504
 -20224741.12248 -15649018.21546  21783108.8914   21783097.7934
        49.5004         39.2504
 -25149953.03548 -19581809.02147  20486431.0784   20486420.6254
        53.5004         47.2504
 -14255626.07148 -12901908.67946  21595306.7274   21595294.9264
        51.7504         41.0004
    290775.75846   -804831.79043  24672880.3284   24672868.7034
        40.2504         22.0004
    -11762.76546     -7987.75243  25828850.4694   25828840.3094
        41.0004         22.5004
 -23074822.38448 -17972138.59347  20990395.5314   20990384.3754
        52.0004         45.7504
 -12518533.37347  -9729464.24844  23359117.5864   23359107.2504
        44.0004         27.7504
  -3071959.35546  -2363547.46743  24863553.5784   24863543.3594
        40.0004         20.0004
  -3611013.79546  -2799097.30043  24467601.8674   24467592.1174
        38.2504         21.2504
 07  3 30  0  3  4.0000000  0 12G22G 5G23G14G 1G11G19G12G31G20G30G25
 -10860875.58747  -8444737.39345  23266319.6414   23266308.6604
        45.7504         31.0004
  -1203575.98345  -1095366.24742  25187534.0314   25187524.4574
        34.0004         16.7504
  -1439808.49545  -1060131.61543  25354155.0864   25354145.4534
        33.2504         19.7504
 -20222449.46448 -15647232.51146  21783545.3524   21783533.4344
        49.5004         39.5004
 -25149971.85748 -19581823.68147  20486427.4454   20486416.9344
        53.7504         47.2504
 -14256332.63648 -12902459.24146  21595171.7734   21595160.7934
        51.0004         40.7504
    293601.38146   -802630.00843  24673418.0314   24673406.3484
        40.5004         22.2504
    -11775.35746     -7997.56843  25828848.0864   25828838.2194
        40.5004         22.5004
 -23076196.36348 -17973209.23047  20990134.4384   20990122.9304
        52.2504         45.5004
 -12521377.62247  -9731680.54544  23358576.3364   23358566.2344
        44.0004         27.0004
  -3073293.66246  -2364587.17443  24863299.6334   24863289.3554
        40.5004         20.0004
  -3614736.26646  -2801997.93343  24466893.9534   24466884.3204
        37.7504         21.2504
 07  3 30  0  3  5.0000000  0 12G22G 5G23G14G 1G11G19G12G31G20G30G25
 -10858473.67247  -8442865.78045  23266776.4384   23266765.4574
        45.7504         31.7504
  -1203684.03745  -1095450.43942  25187513.1094   25187503.7704
        33.5004         16.7504
  -1442837.10445  -1062491.56643  25353579.7274   25353569.1564
        34.5004         20.2504
 -20220157.85348 -15645446.84346  21783981.3594   21783970.1454
        49.5004         39.5004
 -25149990.52048 -19581838.22947  20486423.9614   20486413.4494
        53.7504         47.2504
 -14257038.81148 -12903009.50346  21595037.6484   21595025.9654
        50.7504         40.5004
    296426.78146   -800428.38743  24673955.8594   24673943.7664
        40.2504         22.2504
    -11787.67646     -8007.16243  25828845.7894   25828835.5704
        40.5004         22.7504
 -23077569.95648 -17974279.56347  20989872.7194   20989861.2114
        52.5004         45.5004
 -12524222.02447  -9733896.95644  23358035.9384   23358024.6644
        44.2504         27.7504
  -3074627.79046  -2365626.76443  24863045.0944   24863035.1684
        40.0004         19.7504
  -3618458.92646  -2804898.69643  24466184.6564   24466175.6094
        37.2504         21.5004
 07  3 30  0  3  6.0000000  0 12G22G 5G23G14G 1G11G19G12G31G20G30G25
 -10856071.45247  -8440993.91845  23267234.4064   23267223.1334
        45.7504         32.2504
  -1203791.44745  -1095534.14142  25187493.0314   25187482.9304
        34.5004         17.2504
  -1445865.43645  -1064851.30343  25353004.5314   25352993.2584
        35.7504         20.0004
 -20217865.89548 -15643660.90046  21784417.3594   21784405.7934
        49.2504         39.2504
 -25150008.66848 -19581852.36047  20486420.5474   20486410.0944
        53.5004         47.2504
 -14257744.26848 -12903559.21346  21594903.5394   21594891.8554
        51.2504         40.7504
    299252.29746   -798226.69043  24674493.3134   24674481.2194
        40.0004         22.0004
    -11799.35246     -8016.25443  25828843.2814   25828833.1214
        40.5004         22.7504
 -23078942.83548 -17975349.33947  20989611.5704   20989600.1804
        52.2504         45.5004
 -12527066.22747  -9736113.20944  23357493.8134   23357483.3594
        44.2504         28.5004
  -3075961.34146  -2366665.91543  24862791.8834   24862781.7234
        39.0004         19.2504
  -3622181.39546  -2807799.29343  24465476.2734   24465467.1684
        37.5004         21.0004
 07  3 30  0  3  7.0000000  0 12G22G 5G23G14G 1G11G19G12G31G20G30G25
 -10853669.20247  -8439122.03945  23267691.0784   23267680.2154
        45.7504         32.2504
  -1203898.44345  -1095617.54842  25187472.5164   25187462.8834
        34.5004         17.7504
  -1448893.77745  -1067211.05343  25352428.7584   25352416.4884
        35.2504         20.0004
 -20215573.91948 -15641874.94646  21784853.4144   21784842.2584
        49.2504         39.2504
 -25150026.55648 -19581866.30547  20486417.1174   20486406.3714
        53.0004         47.2504
 -14258449.27748 -12904108.56946  21594769.3134   21594757.7464
        51.0004         41.0004
    302077.70346   -796025.08043  24675031.0004   24675018.9654
        40.0004         21.5004
    -11810.61046     -8025.02843  25828840.4614   25828830.7114
        40.2504         22.7504
 -23080315.24248 -17976418.74547  20989350.1414   20989338.8094
        52.5004         45.5004
 -12529910.56447  -9738329.57344  23356953.1414   23356941.7504
        44.7504         28.2504
  -3077294.57246  -2367704.78343  24862539.1174   24862527.6684
        38.7504         19.2504
  -3625903.90946  -2810699.93443  24464768.3914   24464759.1094
        37.5004         21.2504
 07  3 30  0  3  8.0000000  0 12G22G 5G23G14G 1G11G19G12G31G20G30G25
 -10851266.69447  -8437249.95645  23268148.1954   23268137.2734
        46.0004         32.7504
  -1204004.83445  -1095700.47642  25187451.9064   25187442.5084
        34.7504         17.7504
  -1451922.05946  -1069570.75643  25351852.5864   25351840.9024
        37.0004         20.5004
 -20213281.71648 -15640088.81246  21785289.4304   21785278.0394
        49.2504         39.2504
 -25150044.04048 -19581879.92947  20486413.8364   20486403.2664
        53.2504         47.0004
 -14259153.63648 -12904657.42346  21594635.4924   21594623.8674
        51.5004         40.7504
    304903.05946   -793823.50443  24675568.2034   24675556.8134
        39.7504         21.2504
    -11821.35746     -8033.40543  25828839.0004   25828828.9574
        41.0004         22.5004
 -23081687.00148 -17977487.65047  20989089.1804   20989077.9654
        52.0004         45.5004
 -12532754.77647  -9740545.83444  23356411.6724   23356400.9264
        44.5004         28.0004
  -3078627.29246  -2368743.26643  24862285.3984   24862274.3014
        38.5004         19.2504
  -3629626.34346  -2813600.52743  24464060.0234   24464050.7424
        37.2504         21.2504
 07  3 30  0  3  9.0000000  0 12G22G 5G23G14G 1G11G19G12G31G20G30G25
 -10848863.94947  -8435377.68845  23268606.1174   23268594.6684
        45.5004         33.0004
  -1204110.57445  -1095782.85742  25187432.3134   25187422.4454
        34.2504         16.7504
  -1454950.09246  -1071930.27443  25351276.5554   25351264.8714
        36.5004         21.0004
 -20210989.25948 -15638302.48246  21785725.3984   21785714.5354
        49.0004         39.5004
 -25150061.05348 -19581893.18647  20486410.3204   20486399.6914
        53.2504         47.2504
 -14259857.33348 -12905205.75846  21594501.5784   21594489.9534
        51.7504         40.7504
    307728.55146   -791621.81543  24676106.1724   24676094.5474
        39.5004         21.5004
    -11831.45546     -8041.26344  25828837.2974   25828826.7274
        41.5004         24.7504
 -23083058.10448 -17978556.04047  20988828.3834   20988816.8754
        52.2504         45.5004
 -12535598.87947  -9742762.00944  23355870.2424   23355859.7894
        44.5004         28.7504
  -3079959.51246  -2369781.37443  24862031.7584   24862020.6024
        37.5004         19.2504
  -3633348.65846  -2816501.02643  24463351.5474   24463342.7934
        37.7504         21.5004
 07  3 30  0  3 10.0000000  0 12G22G 5G23G14G 1G11G19G12G31G20G30G25
 -10846461.23447  -8433505.44145  23269063.7114   23269052.0274
        45.5004         33.0004
  -1204215.99645  -1095864.98242  25187411.4454   25187403.1604
        35.0004         17.2504
  -1457978.28946  -1074289.90343  25350699.3674   25350688.2704
        37.5004         21.0004
 -20208696.86948 -15636516.20846  21786162.1954   21786150.5124
        49.0004         39.5004
 -25150077.91048 -19581906.32247  20486407.5314   20486397.2544
        53.5004         47.2504
 -14260560.65848 -12905753.80046  21594367.4454   21594355.9384
        51.2504         41.0004
    310553.77346   -789420.34543  24676643.0944   24676631.9964
        39.2504         21.5004
    -11841.29646     -8048.92744  25828835.7424   25828824.6454
        41.2504         24.0004
 -23084428.81948 -17979624.13047  20988567.6174   20988556.0514
        52.2504         45.5004
 -12538443.16247  -9744978.34144  23355328.7974   23355318.1684
        44.2504         28.7504
  -3081291.48546  -2370819.28043  24861777.3594   24861767.1994
        36.5004         19.2504
  -3637071.11646  -2819401.62843  24462643.4304   24462634.3244
        38.2504         21.7504
 07  3 30  0  3 11.0000000  0 12G22G 5G23G14G 1G11G19G12G31G20G30G25
 -10844058.04547  -8431632.83045  23269520.6564   23269509.5004
        45.2504         32.5004
  -1204320.57745  -1095946.45342  25187392.3594   25187382.4924
        35.0004         16.7504
  -1461006.05746  -1076649.19943  25350123.5704   25350111.9454
        37.5004         21.2504
 -20206403.95748 -15634729.51946  21786598.3284   21786586.7624
        49.0004         39.2504
 -25150094.08048 -19581918.92247  20486404.2504   20486393.7974
        53.5004         47.2504
 -14261263.07048 -12906301.13546  21594233.8674   21594222.5944
        51.5004         41.0004
    313379.28346   -787218.65243  24677180.9144   24677170.1684
        39.2504         22.0004
    -11850.31046     -8055.91044  25828834.2114   25828823.2894
        41.2504         25.5004
 -23085798.64248 -17980691.52347  20988307.0084   20988295.5594
        52.5004         45.5004
 -12541287.09047  -9747194.38744  23354787.6174   23354777.1644
        43.7504         28.0004
  -3082622.75346  -2371856.61543  24861523.6564   24861514.1414
        36.0004         19.2504
  -3640793.20946  -2822301.97143  24461934.7584   24461926.1804
        38.0004         21.7504
 07  3 30  0  3 12.0000000  0 12G22G 5G23G14G 1G11G19G12G31G20G30G25
 -10841654.78447  -8429760.16445  23269977.5634   23269966.8754
        45.5004         32.7504
  -1204424.70445  -1096027.59242  25187372.0474   25187363.5274
        35.2504         16.7504
  -1464033.78346  -1079008.47643  25349547.8204   25349535.9614
        37.5004         21.0004
 -20204110.99048 -15632942.79046  21787034.6484   21787023.1994
        49.0004         39.2504
 -25150109.98048 -19581931.31147  20486401.2424   20486390.8484
        53.5004         47.0004
 -14261965.03048 -12906848.11846  21594100.6884   21594088.7704
        52.0004         40.7504
    316204.61846   -785017.09643  24677718.9064   24677707.6914
        39.2504         22.0004
    -11858.92946     -8062.67844  25828832.8524   25828821.6374
        41.5004         24.0004
 -23087167.98448 -17981758.54547  20988046.2344   20988034.8444
        52.2504         45.5004
 -12544131.08947  -9749410.48344  23354246.6414   23354235.9534
        44.2504         28.2504
  -3083953.70145  -2372893.68843  24861270.4224   24861260.4964
        35.5004         19.2504
  -3644515.36446  -2825202.37343  24461226.9614   24461218.0904
        38.0004         22.0004
 07  3 30  0  3 13.0000000  0 12G22G 5G23G14G 1G11G19G12G31G20G30G25
 -10839251.37147  -8427887.38145  23270435.2194   23270423.8284
        45.7504         32.7504
  -1204528.27945  -1096108.28642  25187352.1024   25187343.0554
        35.7504         16.7504
  -1467061.54346  -1081367.79143  25348971.9304   25348959.6024
        38.5004         20.7504
 -20201817.87748 -15631155.94846  21787471.3134   21787459.5124
        49.2504         39.2504
 -25150125.52848 -19581943.42347  20486398.2894   20486387.7774
        53.7504         47.0004
 -14262666.41448 -12907394.64846  21593967.1254   21593955.6174
        52.0004         41.0004
    319029.96846   -782815.53543  24678256.2194   24678245.1804
        39.7504         21.7504
    -11867.04446     -8069.02044  25828830.8054   25828820.0004
        41.5004         24.0004
 -23088536.75648 -17982825.11447  20987785.9614   20987774.3954
        51.7504         45.5004
 -12546975.07547  -9751626.58044  23353705.4144   23353694.9614
        44.7504         28.2504
  -3085284.19146  -2373930.43643  24861017.0084   24861007.1994
        36.0004         19.2504
  -3648237.43246  -2828102.67643  24460518.7974   24460509.7504
        37.5004         22.0004
 07  3 30  0  3 14.0000000  0 12G22G 5G23G14G 1G11G19G12G31G20G30G25
 -10836847.70347  -8426014.39145  23270892.4384   23270881.3404
        45.5004         33.2504
  -1204631.26446  -1096188.55042  25187333.0474   25187323.6484
        36.0004         16.7504
  -1470089.00946  -1083726.89943  25348395.3204   25348383.1684
        38.5004         21.2504
 -20199524.50648 -15629368.90346  21787907.4924   21787896.1604
        49.0004         39.2504
 -25150140.62248 -19581955.19147  20486395.5784   20486384.6564
        53.0004         47.2504
 -14263367.12148 -12907940.65846  21593833.9694   21593822.1684
        51.7504         41.0004
    321855.34446   -780613.94743  24678794.0944   24678783.0554
        39.7504         22.0004
    -11874.58346     -8074.76644  25828829.5864   25828818.8404
        41.2504         25.0004
 -23089904.86248 -17983891.17147  20987525.6884   20987514.1804
        51.7504         45.5004
 -12549818.92847  -9753842.56744  23353164.5864   23353153.8984
        44.2504         28.5004
  -3086614.21545  -2374966.83043  24860765.2194   24860754.7664
        35.7504         19.2504
  -3651959.45746  -2831002.94943  24459810.3594   24459801.0204
        38.0004         21.5004
 07  3 30  0  3 15.0000000  0 12G22G 5G23G14G 1G11G19G12G31G20G30G25
 -10834443.94147  -8424141.33745  23271349.8134   23271338.7154
        46.0004         32.7504
  -1204733.76846  -1096268.45042  25187313.7734   25187304.3164
        36.2504         16.7504
  -1473116.57946  -1086086.00743  25347820.0634   25347806.6174
        38.2504         20.7504
 -20197231.03348 -15627581.78846  21788344.0164   21788332.3914
        49.0004         39.5004
 -25150155.41948 -19581966.72047  20486392.5164   20486382.2384
        53.0004         47.2504
 -14264067.34448 -12908486.28846  21593700.3444   21593688.4844
        51.5004         41.0004
    324680.64146   -778412.42543  24679331.0004   24679320.9574
        39.5004         22.0004
    -11881.67746     -8080.42643  25828827.9844   25828817.5314
        41.0004         23.7504
 -23091272.43648 -17984956.81447  20987265.3364   20987253.7704
        52.0004         45.5004
 -12552662.82747  -9756058.59244  23352623.5234   23352612.3674
        44.2504         28.5004
  -3087943.77846  -2376002.86743  24860511.4224   24860501.6134
        36.0004         19.2504
  -3655681.44246  -2833903.20543  24459102.1094   24459093.0634
        37.7504         21.5004
 07  3 30  0  3 16.0000000  0 12G22G 5G23G14G 1G11G19G12G31G20G30G25
 -10832040.00347  -8422268.14845  23271807.8754   23271795.6644
        45.7504         32.5004
  -1204835.69046  -1096347.87442  25187293.1804   25187284.9534
        37.0004         16.7504
  -1476143.96346  -1088445.01343  25347243.4304   25347230.7504
        39.0004         20.2504
 -20194937.41148 -15625794.55146  21788780.0234   21788768.9844
        49.2504         39.2504
 -25150169.84148 -19581977.95347  20486390.0944   20486379.1724
        53.2504         47.2504
 -14264766.96548 -12909031.44746  21593567.2584   21593555.3984
        51.7504         41.0004
    327505.87646   -776210.93843  24679869.4144   24679858.7274
        39.5004         22.2504
    -11888.28646     -8085.55444  25828826.6484   25828816.2544
        41.0004         24.5004
 -23092639.43648 -17986022.00747  20987005.0634   20986993.7304
        51.7504         45.7504
 -12555506.66747  -9758274.57244  23352081.9454   23352071.3754
        44.0004         27.7504
  -3089272.94646  -2377038.62343  24860259.0474   24860248.3594
        36.0004         19.5004
  -3659403.41246  -2836803.43443  24458393.7194   24458384.2034
        37.7504         21.5004
 07  3 30  0  3 17.0000000  0 12G22G 5G23G14G 1G11G19G12G31G20G30G25
 -10829635.77647  -8420394.71745  23272265.0554   23272253.3714
        46.0004         32.2504
  -1204937.04646  -1096426.85442  25187275.5944   25187265.1994
        37.2504         16.7504
  -1479171.19846  -1090803.90743  25346667.4694   25346654.4924
        39.0004         20.0004
 -20192643.50948 -15624007.09346  21789216.3204   21789205.1644
        48.2504         39.2504
 -25150183.77948 -19581988.81847  20486387.2814   20486376.5354
        53.0004         47.0004
 -14265465.90748 -12909576.07546  21593434.2424   21593422.5004
        51.0004         41.2504
    330331.19246   -774009.39043  24680407.3834   24680396.3444
        39.5004         22.5004
    -11894.25546     -8090.19343  25828826.1254   25828815.0864
        41.2504         22.7504
 -23094005.74248 -17987086.65547  20986744.9454   20986733.6724
        51.5004         46.0004
 -12558350.38747  -9760490.45444  23351541.1094   23351530.4804
        44.0004         28.5004
  -3090601.60745  -2378073.92743  24860005.8674   24859995.7664
        35.2504         19.5004
  -3663125.21746  -2839703.53543  24457685.7894   24457675.9224
        38.0004         21.5004
 07  3 30  0  3 18.0000000  0 12G22G 5G23G14G 1G11G19G12G31G20G30G25
 -10827231.31247  -8418521.10545  23272723.1254   23272710.6804
        45.7504         32.2504
  -1205037.71946  -1096505.29742  25187256.0704   25187246.4384
        37.0004         16.7504
  -1482198.21146  -1093162.65143  25346091.6414   25346078.6054
        39.0004         19.7504
 -20190349.32648 -15622219.41846  21789653.1564   21789642.1764
        48.2504         39.0004
 -25150197.29248 -19581999.34047  20486384.6884   20486374.2934
        53.0004         47.0004
 -14266164.18248 -12910120.18646  21593301.3834   21593289.8164
        51.0004         41.2504
    333156.56746   -771807.79743  24680944.5704   24680934.2344
        39.5004         23.2504
    -11899.64346     -8094.38643  25828825.0784   25828813.8634
        40.7504         22.5004
 -23095371.39148 -17988150.80547  20986485.2194   20986473.4774
        51.7504         46.0004
 -12561193.98647  -9762706.24144  23350999.6724   23350989.1604
        44.0004         28.0004
  -3091929.77645  -2379108.86243  24859752.8364   24859743.0864
        35.5004         19.5004
  -3666846.91146  -2842603.54543  24456977.5944   24456967.9614
        37.7504         21.7504
 07  3 30  0  3 19.0000000  0 12G22G 5G23G14G 1G11G19G12G31G20G30G25
 -10824826.83247  -8416647.48545  23273180.2034   23273168.3444
        46.0004         31.7504
  -1205138.07146  -1096583.47842  25187237.1484   25187227.1644
        37.7504         16.7504
  -1485225.33446  -1095521.47443  25345515.2734   25345501.8874
        38.2504         19.5004
 -20188055.17848 -15620431.77546  21790089.6564   21790078.7934
        48.5004         39.0004
 -25150210.57848 -19582009.70147  20486382.1094   20486371.3634
        53.0004         47.0004
 -14266862.07448 -12910664.00146  21593168.5314   21593156.6134
        51.0004         41.2504
    335981.74246   -769606.35743  24681482.2344   24681471.4884
        39.5004         23.2504
    -11904.72246     -8098.35343  25828824.1564   25828812.7664
        40.5004         22.5004
 -23096736.61148 -17989214.60847  20986225.4454   20986214.0554
        51.2504         46.0004
 -12564037.69547  -9764922.12244  23350458.1644   23350448.0634
        44.5004         28.5004
  -3093257.58646  -2380143.49743  24859499.9064   24859489.7464
        36.0004         19.5004
  -3670568.72546  -2845503.64943  24456268.9774   24456259.3444
        38.5004         21.2504
 07  3 30  0  3 20.0000000  0 12G22G 5G23G14G 1G11G19G12G31G20G30G25
 -10822422.05647  -8414773.63645  23273637.9144   23273625.6454
        46.0004         32.0004
  -1205237.65946  -1096661.09842  25187217.9694   25187208.1604
        38.2504         16.7504
  -1488252.21946  -1097880.10643  25344939.5164   25344926.4804
        38.5004         19.5004
 -20185760.68048 -15618643.86046  21790526.6804   21790515.4654
        48.5004         39.5004
 -25150223.35348 -19582019.65347  20486379.4924   20486368.9804
        53.5004         47.2504
 -14267559.20548 -12911207.21846  21593035.8134   21593024.1884
        50.7504         41.2504
    338807.05746   -767404.81743  24682020.3834   24682009.4614
        39.7504         22.5004
    -11909.08746     -8101.76243  25828822.8204   25828811.8984
        39.7504         22.2504
 -23098101.08648 -17990277.83747  20985965.5234   20985954.3094
        51.5004         45.7504
 -12566881.23247  -9767137.86844  23349917.3444   23349906.7154
        44.5004         28.7504
  -3094584.90046  -2381177.74243  24859247.6884   24859237.8204
        36.0004         19.2504
  -3674290.34146  -2848403.60943  24455560.9694   24455551.1604
        38.5004         21.2504
 07  3 30  0  3 21.0000000  0 12G22G 5G23G14G 1G11G19G12G31G20G30G25
 -10820017.23447  -8412899.75145  23274095.3754   23274082.8714
        46.0004         31.5004
  -1205336.93946  -1096738.45642  25187199.0944   25187188.9924
        37.2504         16.7504
  -1491279.11746  -1100238.74243  25344363.7194   25344350.3324
        38.5004         19.7504
 -20183466.20548 -15616855.95146  21790963.3594   21790952.3204
        48.5004         39.0004
 -25150235.91848 -19582029.44447  20486377.3594   20486366.9654
        53.5004         47.2504
 -14268255.91448 -12911750.10746  21592903.3594   21592891.5004
        51.0004         41.5004
    341632.15346   -765203.45543  24682558.2974   24682546.9654
        40.5004         22.7504
    -11913.14046     -8104.91243  25828822.9924   25828811.5434
        39.5004         22.2504
 -23099465.14348 -17991340.73847  20985706.3364   20985694.8284
        51.5004         46.0004
 -12569724.89247  -9769353.70244  23349376.1484   23349366.4574
        44.7504         28.2504
  -3095911.87645  -2382211.74143  24858995.0704   24858985.3204
        35.7504         19.7504
  -3678012.07046  -2851303.66743  24454853.3284   24454842.8754
        38.5004         21.5004
 07  3 30  0  3 22.0000000  0 12G22G 5G23G14G 1G11G19G12G31G20G30G25
 -10817612.07147  -8411025.59445  23274553.0784   23274540.8674
        46.0004         31.5004
  -1205435.40946  -1096815.16242  25187179.5634   25187170.8094
        37.0004         16.2504
  -1494305.79546  -1102597.19443  25343787.5554   25343774.6374
        38.5004         20.2504
 -20181171.32848 -15615067.73146  21791399.9144   21791388.3484
        48.2504         39.0004
 -25150247.90148 -19582038.78347  20486374.9454   20486364.3754
        53.2504         47.2504
 -14268951.83048 -12912292.38046  21592770.8444   21592759.1024
        50.2504         41.2504
    344457.43346   -763001.94643  24683096.5634   24683085.0554
        41.0004         22.7504
    -11916.46746     -8107.50143  25828821.6334   25828810.5944
        39.5004         22.0004
 -23100828.40748 -17992403.02347  20985446.5004   20985435.2854
        51.7504         45.7504
 -12572568.31647  -9771569.35844  23348834.9534   23348824.7344
        44.2504         28.0004
  -3097238.22946  -2383245.25143  24858743.0474   24858733.4144
        36.0004         19.7504
  -3681733.50346  -2854203.47143  24454145.6094   24454134.9224
        39.0004         21.5004
 07  3 30  0  3 23.0000000  0 12G22G 5G23G14G 1G11G19G12G31G20G30G25
 -10815206.80847  -8409151.35645  23275010.8984   23274998.3364
        46.0004         31.0004
  -1205533.45946  -1096891.56942  25187160.9614   25187152.0904
        36.7504         16.2504
  -1497332.43546  -1104955.60543  25343211.3594   25343198.6214
        38.0004         20.2504
 -20178876.39648 -15613279.47846  21791836.9774   21791825.1764
        48.5004         39.0004
 -25150259.61048 -19582047.90947  20486372.8754   20486361.8954
        52.5004         47.2504
 -14269647.28248 -12912834.29146  21592638.2274   21592626.5434
        50.5004         41.0004
    347282.58746   -760800.53643  24683634.0394   24683622.5904
        40.7504         22.5004
    -11919.37246     -8109.75643  25828821.3754   25828810.0434
        39.2504         22.0004
 -23102191.18448 -17993464.92247  20985187.3054   20985176.2074
        51.7504         45.7504
 -12575411.79247  -9773785.04744  23348293.9064   23348283.4534
        43.7504         27.7504
  -3098564.27146  -2384278.52643  24858491.7974   24858480.4654
        36.2504         19.5004
  -3685455.01846  -2857103.35543  24453436.8524   24453426.8674
        38.5004         21.5004
 07  3 30  0  3 24.0000000  0 12G22G 5G23G14G 1G11G19G12G31G20G30G25
 -10812801.27347  -8407276.92345  23275468.0004   23275455.4964
        46.0004         31.0004
  -1205630.90946  -1096967.48842  25187142.0234   25187133.4454
        37.2504         16.2504
  -1500358.88246  -1107313.87343  25342634.4144   25342622.7304
        36.7504         19.7504
 -20176581.19448 -15611491.00646  21792273.2584   21792262.1024
        48.5004         39.2504
 -25150270.85048 -19582056.66447  20486370.5474   20486360.0944
        52.7504         47.2504
 -14270342.04148 -12913375.66346  21592506.2814   21592494.5394
        50.7504         41.2504
    350107.80246   -758599.06843  24684170.8754   24684159.8954
        40.7504         22.7504
    -11921.70146     -8111.55043  25828820.2664   25828809.1094
        38.5004         22.0004
 -23103553.27148 -17994526.29147  20984928.2114   20984916.9384
        51.5004         46.0004
 -12578255.12947  -9776000.63444  23347752.6724   23347742.6294
        44.2504         29.5004
  -3099889.72646  -2385311.34843  24858238.1484   24858228.5744
        36.0004         19.2504
  -3689176.39146  -2860003.13543  24452728.5394   24452718.6134
        39.0004         21.7504
 07  3 30  0  3 25.0000000  0 12G22G 5G23G14G 1G11G19G12G31G20G30G25
 -10810395.55947  -8405402.33645  23275926.4304   23275913.2774
        46.2504         31.2504
  -1205727.70746  -1097042.90242  25187124.0084   25187115.1374
        37.0004         16.7504
  -1503385.19246  -1109672.01443  25342059.0704   25342046.9774
        37.5004         20.0004
 -20174285.79248 -15609702.37746  21792709.8054   21792698.7664
        48.5004         39.0004
 -25150281.68748 -19582065.10547  20486368.6334   20486357.8874
        52.5004         47.2504
 -14271036.19948 -12913916.56546  21592374.3364   21592362.0664
        51.0004         41.2504
    352933.01646   -756397.59543  24684709.0784   24684697.7464
        41.0004         22.7504
    -11923.49946     -8112.94443  25828820.1024   25828809.1214
        38.7504         21.5004
 -23104914.75348 -17995587.18147  20984668.7424   20984658.1724
        51.5004         45.7504
 -12581098.39747  -9778216.17444  23347211.3754   23347201.3324
        44.0004         28.7504
  -3101214.70046  -2386343.82843  24857987.2974   24857976.6094
        36.0004         19.5004
  -3692897.63946  -2862902.81143  24452020.4304   24452010.2704
        38.5004         21.7504
 07  3 30  0  3 26.0000000  0 12G22G 5G23G14G 1G11G19G12G31G20G30G25
 -10807989.79947  -8403527.72245  23276383.5474   23276371.1024
        45.7504         30.5004
  -1205824.15046  -1097118.05342  25187105.7974   25187096.7504
        36.5004         16.7504
  -1506411.62446  -1112030.26343  25341482.9384   25341471.1954
        36.7504         20.0004
 -20171990.36448 -15607913.73946  21793146.7974   21793135.7584
        48.7504         39.0004
 -25150292.30248 -19582073.38247  20486366.2584   20486355.4534
        53.0004         47.0004
 -14271729.91148 -12914457.11946  21592242.1804   21592230.4964
        51.0004         41.0004
    355758.09346   -754196.23843  24685246.9384   24685235.7814
        41.2504         22.5004
    -11924.89546     -8114.03043  25828818.7734   25828808.4964
        38.5004         21.5004
 -23106275.78648 -17996647.73147  20984409.8594   20984398.8794
        51.7504         45.5004
 -12583941.77847  -9780431.78644  23346670.5314   23346660.2544
        43.7504         28.7504
  -3102539.42145  -2387376.06243  24857733.6174   24857724.3954
        35.7504         19.2504
  -3696619.01646  -2865802.58843  24451311.7194   24451301.9694
        38.0004         21.5004
 07  3 30  0  3 27.0000000  0 12G22G 5G23G14G 1G11G19G12G31G20G30G25
 -10805583.78747  -8401652.90445  23276841.5554   23276828.3444
        45.7504         31.0004
  -1205919.96346  -1097192.74042  25187086.8674   25187078.3484
        36.2504         16.2504
  -1509437.82146  -1114388.34543  25340907.8364   25340895.5084
        37.0004         20.0004
 -20169694.69648 -15606124.90246  21793584.1644   21793572.3634
        49.0004         39.0004
 -25150302.46248 -19582081.29947  20486364.6414   20486353.8364
        53.2504         47.0004
 -14272422.94748 -12914997.14646  21592110.3674   21592098.7424
        51.2504         41.2504
    358583.16346   -751994.88243  24685784.0164   24685772.6844
        40.5004         22.0004
    -11925.73146     -8114.68543  25828818.7424   25828808.2304
        38.5004         21.5004
 -23107636.15048 -17997707.75447  20984151.4224   20984139.8554
        51.7504         45.7504
 -12586785.06047  -9782647.33344  23346129.1254   23346118.9654
        43.2504         28.5004
  -3103863.66345  -2388407.94443  24857482.0004   24857472.0164
        35.7504         19.5004
  -3700340.27146  -2868702.25643  24450603.4064   24450594.0664
        38.0004         21.5004
 07  3 30  0  3 28.0000000  0 12G22G 5G23G14G 1G11G19G12G31G20G30G25
 -10803177.45547  -8399777.84645  23277298.9224   23277286.3594
        45.7504         30.7504
  -1206015.09746  -1097266.88242  25187069.4224   25187060.1414
        37.0004         16.2504
  -1512463.76746  -1116746.22543  25340331.2194   25340319.7704
        36.7504         20.7504
 -20167398.70848 -15604335.82446  21794020.5004   21794009.1684
        48.5004         39.0004
 -25150312.10448 -19582088.80747  20486362.8364   20486352.5004
        53.5004         47.0004
 -14273115.28448 -12915536.62846  21591978.3364   21591966.8284
        51.5004         41.5004
    361408.38646   -749793.40643  24686322.2194   24686310.7114
        40.5004         22.5004
    -11925.90446     -8114.82343  25828819.1724   25828808.6024
        38.7504         21.2504
 -23108995.78848 -17998767.21247  20983892.4144   20983881.3754
        51.7504         45.7504
 -12589628.14747  -9784862.72544  23345588.0164   23345578.1484
        43.5004         28.5004
  -3105187.33246  -2389439.36743  24857230.8284   24857220.6684
        36.2504         19.2504
  -3704061.30846  -2871601.75343  24449894.8594   24449885.6954
        38.0004         20.7504
 07  3 30  0  3 29.0000000  0 12G22G 5G23G14G 1G11G19G12G31G20G30G25
 -10800770.81747  -8397902.54445  23277757.6644   23277744.5124
        46.0004         30.2504
  -1206109.51446  -1097340.47142  25187052.3444   25187042.1844
        37.0004         16.2504
  -1515489.48646  -1119103.94043  25339755.4304   25339743.6884
        36.7504         21.2504
 -20165102.39048 -15602546.48746  21794457.4844   21794446.3874
        48.7504         39.0004
 -25150321.22048 -19582095.91247  20486361.1174   20486350.3714
        53.2504         47.0004
 -14273806.85748 -12916075.51746  21591846.8984   21591835.0984
        50.7504         41.5004
    364233.73546   -747591.83443  24686859.0394   24686848.1174
        40.5004         22.5004
    -11925.39546     -8114.42743  25828818.5164   25828808.1214
        38.0004         21.2504
 -23110354.67448 -17999826.08347  20983633.7114   20983622.7304
        51.5004         45.7504
 -12592471.03847  -9787077.96344  23345046.8984   23345037.3244
        44.0004         29.0004
  -3106510.29345  -2390470.23843  24856978.0084   24856969.2544
        35.5004         19.2504
  -3707782.17546  -2874501.13243  24449187.2734   24449178.3444
        37.2504         21.0004
 07  3 30  0  3 30.0000000  0 12G22G 5G23G14G 1G11G19G12G31G20G30G25
 -10798364.43047  -8396027.43745  23278215.1094   23278202.0744
        46.2504         30.5004
  -1206203.84246  -1097413.97742  25187033.6174   25187024.4534
        36.5004         16.2504
  -1518515.58046  -1121461.93143  25339180.6414   25339168.0784
        37.0004         21.0004
 -20162806.35047 -15600757.36846  21794894.7114   21794883.6134
        47.7504         39.0004
 -25150330.41548 -19582103.07947  20486359.4304   20486348.6844
        52.7504         47.0004
 -14274498.29548 -12916614.30946  21591715.2974   21591703.9064
        50.5004         41.5004
    367058.59846   -745390.64943  24687396.4064   24687385.6024
        40.0004         22.7504
    -11924.81746     -8113.96143  25828819.0944   25828808.0554
        39.0004         21.2504
 -23111713.43248 -18000884.85147  20983375.1724   20983363.8984
        52.0004         45.5004
 -12595314.31647  -9789293.50144  23344506.4384   23344496.3954
        43.7504         28.7504
  -3107833.32446  -2391501.19743  24856726.5944   24856716.7854
        36.2504         19.2504
  -3711503.42246  -2877400.81943  24448479.1024   24448469.9964
        37.0004         21.0004
 07  3 30  0  3 31.0000000  0 12G22G 5G23G14G 1G11G19G12G31G20G30G25
 -10795957.58847  -8394151.96845  23278673.1094   23278659.6054
        45.5004         30.7504
  -1206297.33246  -1097486.82942  25187015.4454   25187006.1644
        36.0004         16.2504
  -1521541.22345  -1123819.56543  25338604.1174   25338592.0234
        35.7504         21.0004
 -20160509.85647 -15598967.89146  21795331.7664   21795320.4924
        47.5004         38.7504
 -25150338.93348 -19582109.71547  20486357.6884   20486347.3524
        52.5004         47.2504
 -14275188.86748 -12917152.41146  21591584.1174   21591572.1414
        50.5004         41.5004
    369883.74646   -743189.24243  24687934.0314   24687922.9924
        40.7504         22.7504
    -11923.47946     -8112.91443  25828819.8134   25828808.7734
        39.0004         21.0004
 -23113071.28948 -18001942.92247  20983116.8984   20983105.4494
        52.0004         45.7504
 -12598157.27947  -9791508.79544  23343965.1254   23343955.1994
        43.7504         29.5004
  -3109155.63946  -2392531.53043  24856475.1804   24856465.4304
        36.2504         19.0004
  -3715224.29546  -2880300.19043  24447770.2424   24447761.8404
        37.2504         20.7504
 07  3 30  0  3 32.0000000  0 12G22G 5G23G14G 1G11G19G12G31G20G30G25
 -10793550.43247  -8392276.26945  23279131.5164   23279118.0704
        45.7504         31.0004
  -1206390.13045  -1097559.11442  25186997.7194   25186988.9064
        35.7504         16.2504
  -1524566.67845  -1126177.07743  25338028.2344   25338016.4344
        35.7504         20.7504
 -20158213.07948 -15597178.20046  21795768.4614   21795757.1884
        48.0004         38.7504
 -25150346.96948 -19582115.97847  20486356.3984   20486345.3014
        52.5004         47.2504
 -14275878.74348 -12917689.97846  21591452.6024   21591441.0354
        50.5004         41.5004
    372708.93646   -740987.78143  24688472.0164   24688461.1524
        40.5004         22.7504
    -11921.49646     -8111.34443  25828820.2114   25828808.9384
        38.0004         21.5004
 -23114428.46648 -18003000.46247  20982858.6414   20982847.6024
        52.0004         45.5004
 -12601000.08547  -9793723.97144  23343424.2114   23343414.1684
        44.0004         28.7504
  -3110477.37845  -2393561.49543  24856222.9144   24856213.9844
        35.0004         19.2504
  -3718945.01246  -2883199.43343  24447062.6334   24447053.6454
        37.2504         20.2504
 07  3 30  0  3 33.0000000  0 12G22G 5G23G14G 1G11G19G12G31G20G30G25
 -10791143.32147  -8390400.60245  23279589.6884   23279576.0664
        46.0004         31.2504
  -1206482.62546  -1097631.17542  25186979.4534   25186970.7584
        36.0004         15.5004
  -1527592.25546  -1128534.65043  25337453.0084   25337440.6214
        36.0004         21.0004
 -20155916.29648 -15595388.49446  21796205.8914   21796194.4414
        48.2504         38.7504
 -25150354.81148 -19582122.08547  20486354.5864   20486343.9574
        53.0004         47.2504
 -14276568.19948 -12918227.21846  21591321.4064   21591309.6644
        50.5004         41.5004
    375533.98546   -738786.44343  24689008.4774   24688998.0234
        39.5004         23.2504
    -11919.18246     -8109.54543  25828820.2194   25828809.4734
        38.0004         21.2504
 -23115785.21148 -18004057.67147  20982600.7424   20982589.4104
        52.0004         45.5004
 -12603843.01047  -9795939.23944  23342882.9694   23342873.3364
        43.5004         28.0004
  -3111798.94445  -2394591.29443  24855972.0704   24855962.6724
        35.5004         18.5004
  -3722665.84046  -2886098.76843  24446354.8284   24446345.7234
        37.5004         20.2504
 07  3 30  0  3 34.0000000  0 12G22G 5G23G14G 1G11G19G12G31G20G30G25
 -10788735.98147  -8388524.75145  23280047.7584   23280034.3134
        46.2504         31.5004
  -1206574.52046  -1097702.76142  25186962.9614   25186953.6804
        36.0004         15.5004
  -1530617.69145  -1130892.12743  25336875.9304   25336865.0084
        34.5004         20.7504
 -20153619.31247 -15593598.63146  21796642.8834   21796631.3754
        47.2504         39.0004
 -25150362.23848 -19582127.87447  20486353.2894   20486342.8364
        52.7504         47.2504
 -14277257.04848 -12918763.97646  21591190.3054   21591179.1484
        50.0004         41.7504
    378359.00446   -736585.13443  24689546.8364   24689535.7974
        40.0004         22.5004
    -11916.29246     -8107.30843  25828819.8674   25828810.1174
        36.7504         21.0004
 -23117141.34948 -18005114.39847  20982342.5164   20982331.0664
        51.7504         45.7504
 -12606685.87147  -9798154.45544  23342342.4064   23342331.9534
        43.5004         28.0004
  -3113119.89045  -2395620.60343  24855719.0164   24855710.9654
        35.0004         18.5004
  -3726386.63846  -2888998.08543  24445647.0634   24445637.9574
        37.5004         20.2504
 07  3 30  0  3 35.0000000  0 12G22G 5G23G14G 1G11G19G12G31G20G30G25
 -10786328.36447  -8386648.68745  23280505.9924   23280492.8404
        46.2504         31.7504
  -1206665.76745  -1097773.86142  25186945.8284   25186936.3134
        35.5004         15.5004
  -1533642.90745  -1133249.42343  25336300.0944   25336289.3484
        34.2504         20.7504
 -20151322.04347 -15591808.55546  21797079.8674   21797068.8284
        47.5004         39.0004
 -25150369.19248 -19582133.28747  20486351.5944   20486341.2584
        52.7504         47.2504
 -14277945.18948 -12919300.19046  21591059.9304   21591048.2464
        50.5004         41.5004
    381184.10246   -734383.76943  24690083.9304   24690073.6524
        40.0004         22.5004
    -11912.80846     -8104.62743  25828819.7974   25828810.5744
        36.7504         21.0004
 -23118496.78448 -18006170.57647  20982084.5084   20982073.2344
        52.0004         45.7504
 -12609528.61447  -9800369.57144  23341801.0784   23341791.0944
        43.7504         27.7504
  -3114440.39545  -2396649.54742  24855468.2814   24855460.1134
        35.0004         17.7504
  -3730107.21046  -2891897.23343  24444939.2194   24444929.9384
        38.2504         20.0004
 07  3 30  0  3 36.0000000  0 12G22G 5G23G14G 1G11G19G12G31G20G30G25
 -10783920.57947  -8384772.48445  23280964.5474   23280951.1604
        46.5004         31.5004
  -1206756.43545  -1097844.48342  25186927.4534   25186918.9924
        34.7504         15.5004
  -1536668.04845  -1135606.65543  25335724.5634   25335713.5824
        33.7504         20.2504
 -20149024.61747 -15590018.35646  21797517.2034   21797505.5784
        47.5004         38.7504
 -25150375.78648 -19582138.42847  20486350.8284   20486340.1414
        52.5004         47.2504
 -14278632.76048 -12919835.96046  21590928.4774   21590917.3204
        50.5004         41.5004
    384009.17346   -732182.40643  24690621.5474   24690610.9774
        39.7504         22.0004
    -11908.85146     -8101.52143  25828821.3444   25828811.3594
        37.2504         20.7504
 -23119851.64348 -18007226.31547  20981826.6804   20981815.0554
        51.7504         45.7504
 -12612371.29147  -9802584.63844  23341260.8984   23341250.1524
        44.2504         28.5004
  -3115760.48945  -2397678.13043  24855217.3674   24855208.3794
        34.5004         18.2504
  -3733827.78946  -2894796.39043  24444231.3594   24444221.6684
        38.5004         19.5004
 07  3 30  0  3 37.0000000  0 12G22G 5G23G14G 1G11G19G12G31G20G30G25
 -10781512.60947  -8382896.14745  23281422.6484   23281409.6724
        46.5004         32.0004
  -1206846.52845  -1097914.69342  25186910.4774   25186901.7814
        35.0004         16.2504
  -1539693.00945  -1137963.76843  25335149.4224   25335137.7974
        34.5004         20.0004
 -20146726.98347 -15588227.99246  21797954.4694   21797943.0784
        47.7504         39.0004
 -25150381.96148 -19582143.24447  20486349.5704   20486338.7074
        53.0004         47.2504
 -14279319.72048 -12920371.25646  21590798.0554   21590786.0204
        50.5004         41.5004
    386834.24046   -729981.04943  24691159.4144   24691148.7854
        40.2504         22.0004
    -11904.28846     -8097.95843  25828822.2344   25828812.4264
        37.5004         20.7504
 -23121205.88548 -18008281.56847  20981569.0554   20981557.7814
        52.0004         45.5004
 -12615213.91247  -9804799.66944  23340719.6254   23340708.9964
        44.2504         28.5004
  -3117080.01245  -2398706.37143  24854966.6884   24854957.1134
        35.7504         18.2504
  -3737548.23046  -2897695.43743  24443523.1724   24443513.5394
        38.5004         20.0004
 07  3 30  0  3 38.0000000  0 12G22G 5G23G14G 1G11G19G12G31G20G30G25
 -10779104.45447  -8381019.66145  23281881.0944   23281868.4144
        46.5004         32.5004
  -1206936.13945  -1097984.52842  25186894.0864   25186884.5704
        35.5004         16.2504
  -1542717.96145  -1140320.85343  25334573.8834   25334562.3754
        34.0004         19.7504
 -20144429.21147 -15586437.52246  21798391.7034   21798380.2544
        47.7504         38.7504
 -25150387.77548 -19582147.77447  20486348.3594   20486337.8484
        53.2504         47.0004
 -14280006.10948 -12920906.10746  21590667.1334   21590655.2734
        50.5004         41.2504
    389659.27046   -727779.74343  24691696.2504   24691686.3834
        40.0004         22.0004
    -11899.26746     -8094.05543  25828822.9924   25828813.1844
        37.2504         21.2504
 -23122559.53248 -18009336.35747  20981311.5394   20981300.2074
        51.7504         45.5004
 -12618056.51647  -9807014.67744  23340178.6094   23340168.3324
        44.5004         28.0004
  -3118399.12045  -2399734.22343  24854714.3054   24854706.1374
        34.2504         18.5004
  -3741268.67846  -2900594.50343  24442815.5314   24442805.4884
        38.5004         20.2504
 07  3 30  0  3 39.0000000  0 12G22G 5G23G14G 1G11G19G12G31G20G30G25
 -10776696.09047  -8379143.01445  23282339.1884   23282327.0354
        46.5004         32.2504
  -1207025.09645  -1098053.84642  25186877.6094   25186867.6254
        35.5004         16.2504
  -1545742.74645  -1142677.82843  25333998.3444   25333986.7194
        33.5004         19.5004
 -20142131.21847 -15584646.87846  21798828.8364   21798817.5044
        47.0004         39.0004
 -25150393.19648 -19582151.99447  20486347.2114   20486336.7584
        52.7504         47.2504
 -14280691.86648 -12921440.46046  21590536.6254   21590525.1174
        50.2504         41.5004
    392484.29946   -725578.42443  24692233.8594   24692224.1094
        40.0004         22.0004
    -11893.69246     -8089.71743  25828824.6174   25828814.5164
        37.5004         20.7504
 -23123912.56348 -18010390.66347  20981054.0234   20981042.8674
        51.7504         45.5004
 -12620899.00847  -9809229.60444  23339638.0004   23339627.1374
        44.0004         28.2504
  -3119717.86545  -2400761.82243  24854463.2664   24854454.9224
        35.0004         18.5004
  -3744988.99946  -2903493.45043  24442107.0314   24442097.9264
        38.0004         20.7504
 07  3 30  0  3 40.0000000  0 12G22G 5G23G14G 1G11G19G12G31G20G30G25
 -10774287.58747  -8377266.26445  23282798.0394   23282785.5944
        46.5004         32.5004
  -1207113.62145  -1098122.81942  25186859.9774   25186850.7544
        34.0004         16.2504
  -1548767.47545  -1145034.76243  25333422.2344   25333410.9024
        34.0004         19.5004
 -20139833.10247 -15582856.14046  21799266.3984   21799255.0084
        47.5004         39.0004
 -25150398.26848 -19582155.94847  20486346.3754   20486336.1564
        53.0004         47.5004
 -14281377.09948 -12921974.40646  21590406.3754   21590394.5164
        50.5004         41.5004
    395309.23946   -723377.17843  24692772.4844   24692761.7384
        40.0004         22.2504
    -11887.65446     -8085.01443  25828825.6884   25828815.8204
        38.0004         21.0004
 -23125265.04148 -18011444.54347  20980796.7584   20980785.3674
        52.0004         45.5004
 -12623741.52647  -9811444.55044  23339097.1804   23339086.6094
        43.7504         28.5004
  -3121036.11745  -2401789.03343  24854212.6954   24854204.1174
        34.7504         19.0004
  -3748709.32146  -2906392.39643  24441400.0394   24441389.9384
        38.5004         21.5004
 07  3 30  0  3 41.0000000  0 12G22G 5G23G14G 1G11G19G12G31G20G30G25
 -10771878.87547  -8375389.34045  23283255.8444   23283244.3954
        46.5004         33.5004
  -1207201.46845  -1098191.25842  25186843.0864   25186833.9224
        34.7504         16.7504
  -1551792.01345  -1147391.55043  25332845.8444   25332834.9224
        31.7504         19.0004
 -20137534.74547 -15581065.21646  21799703.8444   21799692.1024
        47.2504         39.0004
 -25150402.90848 -19582159.56347  20486345.5864   20486335.0164
        53.0004         47.2504
 -14282061.66848 -12922507.84146  21590276.0634   21590264.4384
        50.2504         41.5004
    398134.26446   -721175.86743  24693309.7734   24693299.1454
        39.7504         21.7504
    -11881.00546     -8079.81643  25828828.2664   25828817.1094
        38.2504         21.5004
 -23126616.86148 -18012497.90847  20980539.1954   20980528.3324
        52.2504         45.5004
 -12626583.91647  -9813659.39344  23338556.8134   23338545.7734
        44.5004         28.5004
  -3122353.91345  -2402815.87143  24853961.7734   24853953.0784
        34.0004         19.0004
  -3752429.52046  -2909291.22743  24440691.2034   24440682.1564
        38.5004         21.5004
 07  3 30  0  3 42.0000000  0 12G22G 5G23G14G 1G11G19G12G31G20G30G25
 -10769470.13647  -8373512.40345  23283714.5394   23283702.4454
        46.5004         33.5004
  -1207288.94445  -1098259.43942  25186825.9614   25186817.5594
        35.2504         16.2504
  -1554816.79145  -1149748.51643  25332270.1174   25332259.5474
        31.0004         18.5004
 -20135236.40147 -15579274.29946  21800140.9924   21800129.4264
        47.5004         38.5004
 -25150407.34548 -19582163.01747  20486344.5004   20486334.0474
        53.2504         47.2504
 -14282745.82848 -12923040.95246  21590145.7504   21590134.3014
        50.0004         41.2504
    400959.07746   -718974.71943  24693847.0394   24693836.8794
        39.7504         22.0004
    -11874.04046     -8074.40043  25828828.3754   25828818.4494
        37.5004         22.0004
 -23127968.27548 -18013550.96047  20980282.2194   20980270.8874
        52.0004         45.7504
 -12629426.46047  -9815874.35944  23338015.7034   23338004.9574
        44.2504         29.0004
  -3123671.42945  -2403842.51743  24853711.6564   24853702.3164
        34.5004         18.5004
  -3756149.85346  -2912190.18243  24439983.5314   24439974.2504
        38.2504         21.5004
 07  3 30  0  3 43.0000000  0 12G22G 5G23G14G 1G11G19G12G31G20G30G25
 -10767060.89447  -8371635.07045  23284173.2424   23284161.3244
        46.5004         32.7504
  -1207375.57845  -1098326.93142  25186809.3444   25186800.4734
        35.5004         16.7504
  -1557840.84045  -1152104.90343  25331694.7504   25331684.0634
        31.0004         19.0004
 -20132937.54647 -15577482.98246  21800578.3914   21800567.4694
        47.5004         38.5004
 -25150411.06948 -19582165.92047  20486344.0234   20486333.6294
        53.5004         47.2504
 -14283429.06848 -12923573.34746  21590015.9774   21590004.7034
        50.5004         41.5004
    403784.20146   -716773.32443  24694384.7114   24694374.3164
        40.0004         22.0004
    -11866.26046     -8068.34543  25828830.3444   25828819.8324
        38.0004         21.7504
 -23129318.75748 -18014603.28147  20980025.4534   20980013.7704
        52.2504         45.5004
 -12632268.61047  -9818089.03544  23337474.3134   23337463.8014
        44.2504         28.7504
  -3124988.09145  -2404868.50243  24853460.3364   24853451.9924
        34.5004         19.0004
  -3759869.79246  -2915088.83943  24439275.4694   24439266.1294
        38.2504         21.5004
 07  3 30  0  3 44.0000000  0 12G22G 5G23G14G 1G11G19G12G31G20G30G25
 -10764651.70847  -8369757.78545  23284631.7734   23284619.6804
        46.0004         33.2504
  -1207461.87246  -1098394.18542  25186794.3134   25186784.6804
        36.0004         16.2504
  -1560865.27545  -1154461.57243  25331120.0004   25331108.3164
        32.5004         19.0004
 -20130638.77348 -15575691.72746  21801016.0634   21801004.7304
        48.0004         38.5004
 -25150414.67648 -19582168.73247  20486343.3204   20486333.0434
        53.2504         47.2504
 -14284111.97548 -12924105.48346  21589885.8364   21589873.9184
        50.7504         41.5004
    406609.03746   -714572.15543  24694922.4534   24694912.1764
        40.5004         22.0004
    -11858.15246     -8062.03643  25828832.0634   25828821.6094
        38.2504         22.0004
 -23130668.89148 -18015655.33147  20979768.6094   20979756.8094
        51.5004         45.5004
 -12635110.95547  -9820303.84844  23336933.7584   23336923.0704
        44.7504         29.0004
  -3126304.64745  -2405894.37743  24853209.1804   24853201.1884
        34.7504         18.5004
  -3763589.86946  -2917987.60543  24438568.0554   24438559.0084
        38.0004         21.2504
 07  3 30  0  3 45.0000000  0 12G22G 5G23G14G 1G11G19G12G31G20G30G25
 -10762242.43747  -8367880.43445  23285090.1954   23285078.6294
        46.2504         33.5004
  -1207547.69645  -1098461.08142  25186777.4614   25186768.0634
        35.5004         16.2504
  -1563889.62245  -1156818.17143  25330543.9844   25330532.9454
        33.0004         19.0004
 -20128339.90147 -15573900.40446  21801453.2034   21801441.8134
        47.0004         38.5004
 -25150417.98048 -19582171.30847  20486342.5704   20486332.2934
        53.0004         47.0004
 -14284794.37348 -12924637.22346  21589755.9224   21589744.4734
        50.5004         41.2504
    409433.77646   -712371.06343  24695459.6174   24695449.4574
        40.0004         22.2504
    -11849.69846     -8055.44043  25828834.0394   25828823.1764
        38.5004         21.5004
 -23132018.51248 -18016706.98947  20979511.4774   20979499.9694
        51.7504         45.7504
 -12637953.35047  -9822518.69444  23336392.7424   23336382.2304
        45.0004         29.2504
  -3127620.78345  -2406919.94143  24852959.7034   24852950.8324
        34.5004         18.5004
  -3767310.01746  -2920886.40843  24437859.2274   24437850.4144
        37.7504         21.0004
 07  3 30  0  3 46.0000000  0 12G22G 5G23G14G 1G11G19G12G31G20G30G25
 -10759832.69247  -8366002.71045  23285548.2974   23285537.0234
        45.5004         33.5004
  -1207632.68645  -1098527.32642  25186761.3834   25186752.2194
        35.5004         16.2504
  -1566913.51245  -1159174.44043  25329968.9694   25329957.9884
        34.5004         18.5004
 -20126040.54747 -15572108.69646  21801891.3674   21801879.5084
        47.5004         38.5004
 -25150420.60748 -19582173.35047  20486342.2424   20486331.4384
        53.0004         47.0004
 -14285475.85948 -12925168.25046  21589626.2584   21589614.9264
        50.5004         41.5004
    412258.77946   -710169.76143  24695996.6254   24695987.1094
        39.7504         22.0004
    -11840.32946     -8048.12343  25828835.7344   25828824.9884
        38.5004         21.2504
 -23133367.23348 -18017757.93447  20979255.0474   20979243.4224
        52.0004         45.5004
 -12640795.39947  -9824733.27944  23335852.3444   23335841.3054
        44.7504         28.2504
  -3128936.18445  -2407944.93643  24852710.4064   24852700.6564
        35.0004         18.5004
  -3771029.75046  -2923784.90443  24437151.2034   24437142.6254
        37.5004         20.5004
 07  3 30  0  3 47.0000000  0 12G22G 5G23G14G 1G11G19G12G31G20G30G25
 -10757422.93747  -8364124.98245  23286006.9064   23285995.7504
        45.7504         33.0004
  -1207717.33345  -1098593.27842  25186745.4144   25186735.9574
        35.0004         16.2504
  -1569937.61345  -1161530.90043  25329393.3984   25329382.1844
        33.7504         19.0004
 -20123741.20947 -15570317.00346  21802328.1884   21802317.0314
        47.0004         38.5004
 -25150423.03548 -19582175.24347  20486341.6644   20486330.9184
        53.0004         47.2504
 -14286156.94448 -12925698.96346  21589496.5634   21589484.9964
        50.5004         41.5004
    415083.62046   -707968.59543  24696535.0314   24696524.6374
        40.5004         22.0004
    -11830.65546     -8040.57443  25828837.5704   25828827.2934
        38.7504         21.2504
 -23134715.54848 -18018808.57047  20978998.3984   20978986.7734
        52.0004         45.7504
 -12643637.60147  -9826947.97444  23335311.0314   23335300.5784
        45.0004         28.5004
  -3130251.38645  -2408969.77543  24852460.9384   24852450.0164
        35.5004         18.5004
  -3774749.65646  -2926683.52843  24436442.7664   24436434.8324
        37.2504         20.2504
 07  3 30  0  3 48.0000000  0 12G22G 5G23G14G 1G11G19G12G31G20G30G25
 -10755012.94647  -8362247.06845  23286465.6884   23286454.4734
        45.0004         33.0004
  -1207801.30045  -1098658.72042  25186729.5394   25186720.1414
        35.0004         16.2504
  -1572961.40845  -1163887.08943  25328817.4064   25328807.0124
        34.0004         19.0004
 -20121441.61347 -15568525.10946  21802766.1804   21802754.7304
        47.0004         38.7504
 -25150425.00648 -19582176.78347  20486341.0554   20486330.8954
        53.0004         47.2504
 -14286837.35348 -12926229.15946  21589366.8444   21589355.3364
        50.0004         41.5004
    417908.45546   -705767.42343  24697072.9694   24697062.3404
        40.7504         22.5004
    -11820.41946     -8032.60643  25828839.7814   25828829.1524
        39.0004         21.0004
 -23136063.19148 -18019858.68047  20978741.7734   20978730.7934
        52.0004         46.0004
 -12646479.65547  -9829162.56844  23334769.7734   23334759.7304
        45.0004         29.2504
  -3131565.96645  -2409994.13543  24852209.0474   24852199.9414
        34.2504         18.5004
  -3778469.44446  -2929582.06443  24435736.6644   24435726.3284
        37.0004         20.5004
 07  3 30  0  3 49.0000000  0 12G22G 5G23G14G 1G11G19G12G31G20G30G25
 -10752602.69147  -8360368.95345  23286923.9384   23286913.0744
        45.0004         33.0004
  -1207884.73345  -1098723.74242  25186712.6024   25186704.2584
        34.5004         17.2504
  -1575985.02945  -1166243.13843  25328242.3284   25328231.3484
        34.2504         19.0004
 -20119141.78447 -15566733.03646  21803203.6024   21803192.4454
        47.2504         38.5004
 -25150426.53648 -19582177.97247  20486340.9384   20486330.6024
        53.0004         47.2504
 -14287517.14148 -12926758.85746  21589237.7814   21589226.2734
        50.0004         41.0004
    420733.31946   -703566.22243  24697609.6414   24697599.8324
        40.0004         22.5004
    -11809.58246     -8024.16743  25828842.4064   25828830.4884
        38.5004         20.7504
 -23137410.16348 -18020908.26447  20978485.6564   20978473.8554
        51.2504         45.7504
 -12649321.60447  -9831377.07145  23334229.1024   23334218.8244
        44.7504         30.0004
  -3132880.11445  -2411018.13743  24851959.7504   24851949.8244
        35.5004         18.5004
  -3782189.07346  -2932480.46943  24435027.7194   24435018.2624
        37.5004         20.2504
 07  3 30  0  3 50.0000000  0 12G22G 5G23G14G 1G11G19G12G31G20G30G25
 -10750192.30647  -8358490.73245  23287382.8204   23287372.1334
        45.0004         32.5004
  -1207967.58345  -1098788.27542  25186696.7034   25186688.7114
        34.5004         16.7504
  -1579008.67245  -1168599.22743  25327667.0784   25327656.1564
        35.0004         19.0004
 -20116841.80947 -15564940.85446  21803641.6024   21803630.2704
        47.5004         38.7504
 -25150427.73448 -19582178.90847  20486340.7114   20486329.9064
        53.5004         47.0004
 -14288196.35848 -12927288.11746  21589108.3054   21589097.1484
        50.0004         41.2504
    423558.13446   -701365.05543  24698147.9224   24698137.2934
        40.5004         22.5004
    -11798.26846     -8015.34943  25828843.9384   25828833.0164
        39.0004         21.0004
 -23138756.59148 -18021957.43047  20978229.3204   20978217.6374
        51.5004         45.7504
 -12652163.54447  -9833591.57444  23333689.0944   23333678.3484
        44.7504         29.7504
  -3134193.85145  -2412041.81643  24851709.5554   24851699.8054
        35.7504         18.5004
  -3785908.68946  -2935378.89043  24434320.2974   24434309.9614
        38.0004         20.2504
 07  3 30  0  3 51.0000000  0 12G22G 5G23G14G 1G11G19G12G31G20G30G25
 -10747781.76147  -8356612.39145  23287841.1484   23287830.8714
        45.0004         32.7504
  -1208049.89845  -1098852.41542  25186681.8834   25186673.0704
        34.7504         16.7504
  -1582032.24646  -1170955.27343  25327091.7894   25327080.8674
        36.0004         19.2504
 -20114541.68247 -15563148.55246  21804078.9924   21804067.8364
        47.7504         38.7504
 -25150428.55748 -19582179.54747  20486340.6024   20486330.3834
        53.0004         47.2504
 -14288875.00948 -12927816.93646  21588979.3444   21588968.0124
        50.2504         41.0004
    426382.91746   -699163.92543  24698684.9694   24698674.9844
        40.7504         22.7504
    -11786.45846     -8006.14043  25828846.0784   25828835.6844
        39.2504         20.7504
 -23140102.44248 -18023006.14847  20977973.1484   20977961.4654
        51.7504         45.5004
 -12655005.46547  -9835806.04944  23333148.2274   23333137.5394
        44.5004         29.0004
  -3135507.16246  -2413065.12743  24851460.0554   24851450.3054
        36.2504         18.2504
  -3789628.28246  -2938277.27643  24433612.7664   24433602.4304
        37.5004         20.2504
 07  3 30  0  3 52.0000000  0 12G22G 5G23G14G 1G11G19G12G31G20G30G25
 -10745371.01247  -8354733.88945  23288299.7504   23288289.8834
        45.0004         32.2504
  -1208131.68045  -1098916.14042  25186665.6564   25186657.4884
        34.5004         16.7504
  -1585055.64245  -1173311.17143  25326517.5394   25326505.5044
        35.7504         19.7504
 -20112241.38248 -15561356.10946  21804516.7664   21804505.8444
        48.5004         39.0004
 -25150429.00748 -19582179.90147  20486340.2504   20486329.7974
        52.2504         47.2504
 -14289553.05348 -12928345.27846  21588850.2114   21588838.8204
        50.5004         41.0004
    429207.65546   -696962.82543  24699222.9224   24699212.5864
        40.7504         23.0004
    -11774.08446     -7996.52243  25828848.0474   25828837.5944
        38.2504         20.5004
 -23141447.68548 -18024054.38547  20977717.2114   20977705.9384
        51.5004         45.5004
 -12657847.31847  -9838020.47844  23332606.8984   23332596.2704
        44.2504         29.7504
  -3136819.92146  -2414088.03243  24851210.4224   24851200.3204
        36.5004         18.5004
  -3793347.78446  -2941175.59943  24432904.7814   24432894.6214
        37.5004         20.2504
 07  3 30  0  3 53.0000000  0 12G22G 5G23G14G 1G11G19G12G31G20G30G25
 -10742960.10947  -8352855.26645  23288758.3834   23288748.1054
        44.7504         32.5004
  -1208212.93845  -1098979.45542  25186651.6174   25186642.1604
        35.5004         16.2504
  -1588078.93946  -1175666.99443  25325942.5004   25325930.3484
        36.7504         20.5004
 -20109940.90148 -15559563.52246  21804954.5704   21804943.2384
        48.7504         39.0004
 -25150429.08148 -19582179.96347  20486340.4844   20486329.9734
        52.5004         47.0004
 -14290230.51048 -12928873.16846  21588721.2194   21588709.9454
        50.5004         41.0004
    432032.39846   -694761.71844  24699760.3054   24699750.0864
        40.5004         24.0004
    -11761.29546     -7986.55243  25828850.4614   25828840.0084
        38.7504         19.7504
 -23142792.33048 -18025102.16247  20977461.4924   20977449.9264
        51.5004         45.5004
 -12660689.14347  -9840234.89144  23332066.6334   23332055.8284
        44.0004         29.7504
  -3138132.35546  -2415110.73043  24850961.2974   24850949.7894
        36.2504         18.5004
  -3797067.22246  -2944073.85243  24432196.8674   24432186.8834
        38.2504         20.0004
 07  3 30  0  3 54.0000000  0 12G22G 5G23G14G 1G11G19G12G31G20G30G25
 -10740549.01147  -8350976.49645  23289216.7974   23289207.0474
        44.5004         32.0004
  -1208293.57145  -1099042.30242  25186636.4384   25186626.7464
        35.0004         16.7504
  -1591102.11646  -1178022.71343  25325367.5084   25325355.0044
        37.7504         21.0004
 -20107640.23348 -15557770.79046  21805392.6484   21805381.3164
        48.7504         38.7504
 -25150428.77348 -19582179.71647  20486340.6024   20486329.9734
        52.5004         47.2504
 -14290907.37448 -12929400.58946  21588592.6024   21588581.1524
        50.0004         41.0004
    434857.11346   -692560.62843  24700297.8284   24700287.2584
        41.0004         22.7504
    -11747.89346     -7976.09443  25828853.5164   25828842.3014
        39.0004         20.0004
 -23144136.36648 -18026149.46247  20977205.6484   20977194.0824
        51.7504         45.5004
 -12663530.91747  -9842449.26644  23331525.6094   23331515.0394
        43.7504         29.0004
  -3139444.28546  -2416133.04243  24850710.4224   24850700.2624
        36.0004         18.2504
  -3800786.63746  -2946972.10643  24431489.8914   24431479.0864
        38.0004         19.7504
 07  3 30  0  3 55.0000000  0 12G22G 5G23G14G 1G11G19G12G31G20G30G25
 -10738137.69947  -8349097.55245  23289675.1884   23289665.7304
        45.0004         31.5004
  -1208373.67445  -1099104.72942  25186620.9304   25186611.5314
        35.0004         16.7504
  -1594125.20846  -1180378.35543  25324791.9534   25324779.6844
        37.7504         21.2504
 -20105339.35948 -15555977.90946  21805830.4064   21805818.8984
        48.2504         39.0004
 -25150428.05648 -19582179.15547  20486340.7504   20486330.3554
        52.5004         47.2504
 -14291583.63048 -12929927.54446  21588464.0944   21588452.5864
        50.5004         41.0004
    437681.83146   -690359.56643  24700835.7584   24700825.2464
        40.5004         23.0004
    -11733.98846     -7965.23343  25828856.1724   25828845.0164
        38.2504         20.0004
 -23145479.77448 -18027196.27647  20976949.9304   20976938.4224
        51.7504         45.5004
 -12666372.56847  -9844663.53044  23330984.6724   23330973.9264
        43.2504         29.5004
  -3140755.77246  -2417154.98943  24850461.0944   24850451.6374
        36.0004         18.2504
  -3804505.90146  -2949870.23443  24430782.2814   24430771.7704
        38.5004         19.2504
 07  3 30  0  3 56.0000000  0 12G22G 5G23G14G 1G11G19G12G31G20G30G25
 -10735726.21047  -8347218.47745  23290134.2974   23290123.9614
        44.5004         31.5004
  -1208453.22845  -1099166.71042  25186606.1094   25186596.6524
        34.7504         16.7504
  -1597148.21246  -1182733.93443  25324216.8674   25324205.4774
        36.7504         21.5004
 -20103038.36148 -15554184.92846  21806268.1484   21806256.2894
        48.5004         39.0004
 -25150426.97248 -19582178.31247  20486340.8524   20486330.2234
        52.0004         47.2504
 -14292259.31648 -12930454.05246  21588335.4774   21588323.8524
        50.7504         41.0004
    440506.47746   -688158.55543  24701372.8364   24701362.6174
        40.2504         23.7504
    -11719.60846     -7954.00643  25828858.8134   25828847.1884
        37.5004         20.0004
 -23146822.62048 -18028242.64447  20976694.4694   20976683.0784
        52.0004         45.5004
 -12669214.26747  -9846877.83645  23330444.2734   23330432.9414
        43.7504         30.0004
  -3142066.81846  -2418176.58843  24850212.5474   24850201.5664
        36.5004         18.2504
  -3808225.15846  -2952768.36043  24430073.7274   24430064.0354
        38.0004         19.7504
 07  3 30  0  3 57.0000000  0 12G22G 5G23G14G 1G11G19G12G31G20G30G25
 -10733314.58847  -8345339.29745  23290593.3984   23290582.7704
        44.7504         31.5004
  -1208532.26645  -1099228.30442  25186590.8914   25186581.5514
        34.7504         17.2504
  -1600171.09546  -1185089.42343  25323641.2274   25323629.3094
        37.0004         22.0004
 -20100737.18148 -15552391.79146  21806705.7974   21806694.4064
        48.2504         39.0004
 -25150425.53148 -19582177.19047  20486341.1484   20486330.7544
        52.2504         47.2504
 -14292934.41048 -12930980.10346  21588206.8444   21588195.3954
        50.5004         41.0004
    443331.10746   -685957.55043  24701910.4534   24701899.7074
        40.0004         22.5004
    -11704.66346     -7942.34643  25828861.1414   25828850.2774
        38.0004         20.0004
 -23148164.87848 -18029288.55847  20976439.0864   20976427.7544
        52.2504         45.5004
 -12672055.91147  -9849092.10144  23329902.8914   23329892.9654
        44.0004         29.5004
  -3143377.43946  -2419197.82642  24849963.1804   24849952.4924
        36.7504         17.7504
  -3811944.38546  -2955666.45043  24429366.6094   24429356.2734
        38.5004         19.5004
 07  3 30  0  3 58.0000000  0 12G22G 5G23G14G 1G11G19G12G31G20G30G25
 -10730902.79247  -8343459.97745  23291052.3204   23291041.5164
        44.7504         31.0004
  -1208610.70945  -1099289.38342  25186574.7424   25186566.1644
        34.2504         17.7504
  -1603193.89846  -1187444.83843  25323066.2814   25323054.2464
        37.5004         22.5004
 -20098435.82348 -15550598.53046  21807143.8284   21807132.1454
        48.5004         39.0004
 -25150423.71648 -19582175.77347  20486341.5314   20486331.0204
        52.5004         47.0004
 -14293608.90848 -12931505.69046  21588078.5474   21588067.2734
        50.7504         40.7504
    446155.71146   -683756.55843  24702447.0784   24702437.5044
        39.2504         22.0004
    -11689.24646     -7930.32743  25828863.8754   25828853.3634
        37.0004         19.7504
 -23149506.54448 -18030334.00847  20976183.7734   20976172.0314
        51.7504         45.5004
 -12674897.53147  -9851306.34544  23329362.6954   23329352.0084
        43.7504         29.5004
  -3144687.59746  -2420218.71842  24849714.2894   24849703.0164
        37.0004         17.7504
  -3815663.56046  -2958564.49843  24428658.2584   24428648.8014
        38.0004         19.7504
 07  3 30  0  3 59.0000000  0 12G22G 5G23G14G 1G11G19G12G31G20G30G25
 -10728490.65947  -8341580.39545  23291511.3284   23291500.2894
        44.7504         30.7504
  -1208688.53045  -1099350.01243  25186560.0474   25186551.3524
        34.5004         18.2504
  -1606216.46946  -1189800.08943  25322491.1954   25322479.1024
        37.2504         22.5004
 -20096134.17147 -15548805.03346  21807581.9064   21807570.6334
        47.5004         39.0004
 -25150421.38548 -19582173.96147  20486341.7664   20486331.1954
        52.2504         47.2504
 -14294282.70548 -12932030.72546  21587950.2734   21587938.7664
        50.5004         40.7504
    448980.39846   -681555.50743  24702985.1804   24702974.6684
        40.0004         22.5004
    -11673.16146     -7917.81243  25828867.0164   25828856.3284
        36.0004         19.7504
 -23150847.48648 -18031378.89947  20975928.4844   20975917.0944
        52.0004         45.5004
 -12677738.95047  -9853520.43945  23328822.1334   23328811.5634
        44.5004         30.0004
  -3145997.08746  -2421239.13642  24849466.0164   24849453.3954
        38.0004         17.7504
  -3819382.49146  -2961462.33443  24427950.8364   24427941.3794
        38.2504         19.7504
 07  3 30  0  4  0.0000000  0 12G22G 5G23G14G 1G11G19G12G31G20G30G25
 -10726078.52147  -8339700.80145  23291970.6174   23291959.1684
        45.5004         30.7504
  -1208765.91645  -1099410.31742  25186544.9694   25186537.1524
        34.0004         17.7504
  -1609239.09846  -1192155.37543  25321916.1174   25321904.3754
        37.5004         22.5004
 -20093832.50147 -15547011.52946  21808020.1414   21808008.6334
        47.7504         39.0004
 -25150418.85648 -19582171.99247  20486342.5164   20486331.9454
        52.5004         47.5004
 -14294956.06048 -12932555.41346  21587822.2734   21587810.3554
        50.2504         41.0004
    451804.95446   -679354.55443  24703522.5944   24703512.1414
        40.2504         22.7504
    -11656.68746     -7904.98043  25828870.7504   25828859.5354
        36.7504         19.7504
 -23152187.97448 -18032423.43147  20975673.1484   20975661.8754
        51.5004         45.5004
 -12680580.45447  -9855734.58844  23328280.8754   23328270.1294
        44.0004         29.5004
  -3147306.45346  -2422259.40643  24849216.5704   24849204.5944
        37.5004         18.2504
  -3823101.59646  -2964360.32843  24427242.7114   24427233.7814
        38.7504         19.7504
 07  3 30  0  4  1.0000000  0 12G22G 5G23G14G 1G11G19G12G31G20G30G25
 -10723666.14047  -8337821.03145  23292429.5234   23292417.7234
        45.5004         31.0004
  -1208842.73445  -1099470.18342  25186530.4224   25186521.8444
        34.5004         17.7504
  -1612261.55346  -1194510.53143  25321340.8524   25321329.5204
        38.2504         22.5004
 -20091530.59247 -15545217.82946  21808457.9694   21808446.6374
        47.0004         39.0004
 -25150415.87748 -19582169.66447  20486342.9614   20486332.5664
        53.0004         47.2504
 -14295628.77748 -12933079.60846  21587693.8754   21587682.5434
        50.7504         40.7504
    454629.51246   -677153.60843  24704060.8674   24704049.7704
        40.2504         22.7504
    -11639.70546     -7891.76543  25828873.4924   25828862.2194
        37.0004         19.7504
 -23153527.82748 -18033467.47447  20975418.5394   20975406.6804
        51.7504         45.5004
 -12683421.85847  -9857948.66644  23327740.7274   23327729.6294
        44.5004         29.0004
  -3148615.21646  -2423279.20642  24848966.5234   24848955.0744
        37.2504         17.7504
  -3826820.52846  -2967258.16843  24426535.0704   24426526.1414
        38.2504         20.2504
 07  3 30  0  4  2.0000000  0 12G22G 5G23G14G 1G11G19G12G31G20G30G25
 -10721253.45247  -8335941.02045  23292888.9694   23292876.5824
        45.7504         30.7504
  -1208918.81345  -1099529.47442  25186516.6024   25186507.6724
        34.7504         17.7504
  -1615283.78946  -1196865.52143  25320765.8134   25320753.9534
        38.2504         23.0004
 -20089228.37047 -15543423.88946  21808896.0084   21808884.7934
        47.5004         39.0004
 -25150412.38248 -19582166.93947  20486343.6334   20486333.0634
        53.0004         47.2504
 -14296300.75848 -12933603.23146  21587566.3284   21587554.8204
        51.0004         40.7504
    457454.15246   -674952.58943  24704597.8984   24704587.5634
        40.2504         22.7504
    -11622.05746     -7878.01243  25828876.9774   25828865.7034
        36.5004         19.7504
 -23154866.94248 -18034510.93647  20975163.2814   20975151.9494
        51.5004         45.5004
 -12686263.09047  -9860162.61444  23327200.0554   23327188.7234
        44.5004         29.2504
  -3149923.42846  -2424298.59943  24848717.9064   24848706.8094
        37.5004         18.2504
  -3830539.25646  -2970155.87743  24425828.1254   24425818.8444
        38.5004         20.5004
 07  3 30  0  4  3.0000000  0 12G22G 5G23G14G 1G11G19G12G31G20G30G25
 -10718840.68647  -8334060.94145  23293348.2274   23293335.6644
        46.0004         31.2504
  -1208994.50445  -1099588.45042  25186501.9384   25186493.3014
        35.0004         17.7504
  -1618305.99246  -1199220.48243  25320190.4694   25320179.0204
        37.5004         22.7504
 -20086926.10748 -15541629.91946  21809334.0944   21809322.8794
        48.0004         38.7504
 -25150408.62448 -19582164.00847  20486344.1724   20486333.8364
        53.0004         47.2504
 -14296972.25348 -12934126.46846  21587438.7814   21587426.9804
        51.0004         40.7504
    460278.70046   -672751.64743  24705135.9924   24705125.0704
        40.5004         22.2504
    -11604.00246     -7863.92243  25828879.7814   25828869.1524
        36.0004         20.0004
 -23156205.56248 -18035554.01847  20974908.8134   20974897.4224
        51.5004         45.5004
 -12689104.38347  -9862376.61344  23326659.2114   23326648.4064
        44.5004         29.2504
  -3151231.32646  -2425317.74343  24848469.2344   24848457.4344
        37.5004         18.5004
  -3834258.05746  -2973053.63443  24425120.0234   24425111.2114
        38.7504         20.5004
